<?xml version="1.0" encoding="UTF-8" standalone="no" ?>
<gpx xmlns="http://www.topografix.com/GPX/1/1" xmlns:xsi="http://www.w3.org/2001/XMLSchema-instance" xsi:schemaLocation="http://www.topografix.com/GPX/1/1 http://www.topografix.com/GPX/1/1/gpx.xsd" version="1.1" creator="VisuGPX - https://www.visugpx.com">
  <metadata>
    <name>Boue'Troude 2024</name>
  </metadata>
  <trk>
    <name><![CDATA[Grand Bourgtheroulde Vélo]]></name>
    <trkseg>
      <trkpt lat="49.29875" lon="0.87893">
        <ele>131.80000305176</ele>
        <time>2024-10-13T06:00:36.000Z</time>
      </trkpt>
      <trkpt lat="49.29875" lon="0.87893">
        <ele>131.80000305176</ele>
        <time>2024-10-13T06:00:39.000Z</time>
      </trkpt>
      <trkpt lat="49.29876" lon="0.87891">
        <ele>131.60000610352</ele>
        <time>2024-10-13T06:00:51.000Z</time>
      </trkpt>
      <trkpt lat="49.29877" lon="0.87888">
        <ele>131.39999389648</ele>
        <time>2024-10-13T06:00:53.000Z</time>
      </trkpt>
      <trkpt lat="49.29912" lon="0.87825">
        <ele>128.19999694824</ele>
        <time>2024-10-13T06:01:14.000Z</time>
      </trkpt>
      <trkpt lat="49.29905" lon="0.87747">
        <ele>129.39999389648</ele>
        <time>2024-10-13T06:01:34.000Z</time>
      </trkpt>
      <trkpt lat="49.29908" lon="0.87745">
        <ele>129.19999694824</ele>
        <time>2024-10-13T06:01:36.000Z</time>
      </trkpt>
      <trkpt lat="49.29916" lon="0.8774">
        <ele>128.60000610352</ele>
        <time>2024-10-13T06:01:40.000Z</time>
      </trkpt>
      <trkpt lat="49.29917" lon="0.87732">
        <ele>128.60000610352</ele>
        <time>2024-10-13T06:01:42.000Z</time>
      </trkpt>
      <trkpt lat="49.29917" lon="0.87727">
        <ele>129</ele>
        <time>2024-10-13T06:01:43.000Z</time>
      </trkpt>
      <trkpt lat="49.29917" lon="0.87715">
        <ele>129.80000305176</ele>
        <time>2024-10-13T06:01:45.000Z</time>
      </trkpt>
      <trkpt lat="49.29918" lon="0.8771">
        <ele>130</ele>
        <time>2024-10-13T06:01:46.000Z</time>
      </trkpt>
      <trkpt lat="49.29918" lon="0.87683">
        <ele>131.80000305176</ele>
        <time>2024-10-13T06:01:50.000Z</time>
      </trkpt>
      <trkpt lat="49.29918" lon="0.87676">
        <ele>132.39999389648</ele>
        <time>2024-10-13T06:01:51.000Z</time>
      </trkpt>
      <trkpt lat="49.29919" lon="0.87669">
        <ele>132.60000610352</ele>
        <time>2024-10-13T06:01:52.000Z</time>
      </trkpt>
      <trkpt lat="49.29922" lon="0.87656">
        <ele>133.39999389648</ele>
        <time>2024-10-13T06:01:54.000Z</time>
      </trkpt>
      <trkpt lat="49.29941" lon="0.87612">
        <ele>134</ele>
        <time>2024-10-13T06:02:04.000Z</time>
      </trkpt>
      <trkpt lat="49.29942" lon="0.87604">
        <ele>134.19999694824</ele>
        <time>2024-10-13T06:02:06.000Z</time>
      </trkpt>
      <trkpt lat="49.29941" lon="0.87601">
        <ele>134.39999389648</ele>
        <time>2024-10-13T06:02:07.000Z</time>
      </trkpt>
      <trkpt lat="49.29935" lon="0.87593">
        <ele>135.19999694824</ele>
        <time>2024-10-13T06:02:10.000Z</time>
      </trkpt>
      <trkpt lat="49.29933" lon="0.87591">
        <ele>135</ele>
        <time>2024-10-13T06:02:11.000Z</time>
      </trkpt>
      <trkpt lat="49.29931" lon="0.87587">
        <ele>134.80000305176</ele>
        <time>2024-10-13T06:02:12.000Z</time>
      </trkpt>
      <trkpt lat="49.29931" lon="0.87583">
        <ele>134.60000610352</ele>
        <time>2024-10-13T06:02:13.000Z</time>
      </trkpt>
      <trkpt lat="49.29928" lon="0.8757">
        <ele>134.19999694824</ele>
        <time>2024-10-13T06:02:15.000Z</time>
      </trkpt>
      <trkpt lat="49.29937" lon="0.87535">
        <ele>132.80000305176</ele>
        <time>2024-10-13T06:02:22.000Z</time>
      </trkpt>
      <trkpt lat="49.29938" lon="0.87531">
        <ele>132.80000305176</ele>
        <time>2024-10-13T06:02:23.000Z</time>
      </trkpt>
      <trkpt lat="49.29946" lon="0.87486">
        <ele>131.80000305176</ele>
        <time>2024-10-13T06:02:36.000Z</time>
      </trkpt>
      <trkpt lat="49.29912" lon="0.8744">
        <ele>132.60000610352</ele>
        <time>2024-10-13T06:02:49.000Z</time>
      </trkpt>
      <trkpt lat="49.2991" lon="0.87435">
        <ele>132.80000305176</ele>
        <time>2024-10-13T06:02:50.000Z</time>
      </trkpt>
      <trkpt lat="49.29908" lon="0.87423">
        <ele>133</ele>
        <time>2024-10-13T06:02:52.000Z</time>
      </trkpt>
      <trkpt lat="49.29915" lon="0.87399">
        <ele>132.80000305176</ele>
        <time>2024-10-13T06:02:56.000Z</time>
      </trkpt>
      <trkpt lat="49.29916" lon="0.87393">
        <ele>132.80000305176</ele>
        <time>2024-10-13T06:02:57.000Z</time>
      </trkpt>
      <trkpt lat="49.29922" lon="0.87375">
        <ele>132.60000610352</ele>
        <time>2024-10-13T06:03:00.000Z</time>
      </trkpt>
      <trkpt lat="49.29926" lon="0.87363">
        <ele>132.39999389648</ele>
        <time>2024-10-13T06:03:02.000Z</time>
      </trkpt>
      <trkpt lat="49.29943" lon="0.87322">
        <ele>131.80000305176</ele>
        <time>2024-10-13T06:03:09.000Z</time>
      </trkpt>
      <trkpt lat="49.29959" lon="0.87285">
        <ele>130.19999694824</ele>
        <time>2024-10-13T06:03:15.000Z</time>
      </trkpt>
      <trkpt lat="49.29989" lon="0.87208">
        <ele>130</ele>
        <time>2024-10-13T06:03:27.000Z</time>
      </trkpt>
      <trkpt lat="49.29998" lon="0.87189">
        <ele>129.80000305176</ele>
        <time>2024-10-13T06:03:30.000Z</time>
      </trkpt>
      <trkpt lat="49.30007" lon="0.87181">
        <ele>129.39999389648</ele>
        <time>2024-10-13T06:03:32.000Z</time>
      </trkpt>
      <trkpt lat="49.30061" lon="0.87174">
        <ele>128</ele>
        <time>2024-10-13T06:03:43.000Z</time>
      </trkpt>
      <trkpt lat="49.30076" lon="0.87175">
        <ele>128</ele>
        <time>2024-10-13T06:03:46.000Z</time>
      </trkpt>
      <trkpt lat="49.30087" lon="0.87176">
        <ele>127.80000305176</ele>
        <time>2024-10-13T06:03:48.000Z</time>
      </trkpt>
      <trkpt lat="49.30098" lon="0.87177">
        <ele>127.19999694824</ele>
        <time>2024-10-13T06:03:50.000Z</time>
      </trkpt>
      <trkpt lat="49.30108" lon="0.87176">
        <ele>127</ele>
        <time>2024-10-13T06:03:52.000Z</time>
      </trkpt>
      <trkpt lat="49.30165" lon="0.87175">
        <ele>125.80000305176</ele>
        <time>2024-10-13T06:04:02.000Z</time>
      </trkpt>
      <trkpt lat="49.30212" lon="0.87163">
        <ele>124.19999694824</ele>
        <time>2024-10-13T06:04:09.000Z</time>
      </trkpt>
      <trkpt lat="49.30234" lon="0.87158">
        <ele>124</ele>
        <time>2024-10-13T06:04:12.000Z</time>
      </trkpt>
      <trkpt lat="49.30289" lon="0.87157">
        <ele>124.80000305176</ele>
        <time>2024-10-13T06:04:20.000Z</time>
      </trkpt>
      <trkpt lat="49.30312" lon="0.87158">
        <ele>124.19999694824</ele>
        <time>2024-10-13T06:04:24.000Z</time>
      </trkpt>
      <trkpt lat="49.30369" lon="0.87153">
        <ele>122.80000305176</ele>
        <time>2024-10-13T06:04:34.000Z</time>
      </trkpt>
      <trkpt lat="49.30425" lon="0.87155">
        <ele>123</ele>
        <time>2024-10-13T06:04:44.000Z</time>
      </trkpt>
      <trkpt lat="49.30479" lon="0.87164">
        <ele>124</ele>
        <time>2024-10-13T06:04:54.000Z</time>
      </trkpt>
      <trkpt lat="49.30537" lon="0.87159">
        <ele>122.40000152588</ele>
        <time>2024-10-13T06:05:05.000Z</time>
      </trkpt>
      <trkpt lat="49.30564" lon="0.87154">
        <ele>122</ele>
        <time>2024-10-13T06:05:10.000Z</time>
      </trkpt>
      <trkpt lat="49.30575" lon="0.87152">
        <ele>122</ele>
        <time>2024-10-13T06:05:12.000Z</time>
      </trkpt>
      <trkpt lat="49.30581" lon="0.87151">
        <ele>122</ele>
        <time>2024-10-13T06:05:13.000Z</time>
      </trkpt>
      <trkpt lat="49.30611" lon="0.87147">
        <ele>122.19999694824</ele>
        <time>2024-10-13T06:05:18.000Z</time>
      </trkpt>
      <trkpt lat="49.30617" lon="0.87147">
        <ele>122.40000152588</ele>
        <time>2024-10-13T06:05:19.000Z</time>
      </trkpt>
      <trkpt lat="49.30623" lon="0.87147">
        <ele>122.59999847412</ele>
        <time>2024-10-13T06:05:20.000Z</time>
      </trkpt>
      <trkpt lat="49.30678" lon="0.87157">
        <ele>121.80000305176</ele>
        <time>2024-10-13T06:05:29.000Z</time>
      </trkpt>
      <trkpt lat="49.30733" lon="0.87168">
        <ele>120.80000305176</ele>
        <time>2024-10-13T06:05:38.000Z</time>
      </trkpt>
      <trkpt lat="49.30765" lon="0.87168">
        <ele>120.19999694824</ele>
        <time>2024-10-13T06:05:43.000Z</time>
      </trkpt>
      <trkpt lat="49.30778" lon="0.87166">
        <ele>120</ele>
        <time>2024-10-13T06:05:45.000Z</time>
      </trkpt>
      <trkpt lat="49.30784" lon="0.87165">
        <ele>120</ele>
        <time>2024-10-13T06:05:46.000Z</time>
      </trkpt>
      <trkpt lat="49.3079" lon="0.87164">
        <ele>119.80000305176</ele>
        <time>2024-10-13T06:05:47.000Z</time>
      </trkpt>
      <trkpt lat="49.30796" lon="0.87163">
        <ele>119.59999847412</ele>
        <time>2024-10-13T06:05:48.000Z</time>
      </trkpt>
      <trkpt lat="49.30808" lon="0.87158">
        <ele>119</ele>
        <time>2024-10-13T06:05:49.000Z</time>
      </trkpt>
      <trkpt lat="49.30808" lon="0.87158">
        <ele>119</ele>
        <time>2024-10-13T06:05:50.000Z</time>
      </trkpt>
      <trkpt lat="49.30814" lon="0.87156">
        <ele>118.80000305176</ele>
        <time>2024-10-13T06:05:51.000Z</time>
      </trkpt>
      <trkpt lat="49.3082" lon="0.87153">
        <ele>118.40000152588</ele>
        <time>2024-10-13T06:05:52.000Z</time>
      </trkpt>
      <trkpt lat="49.30825" lon="0.87151">
        <ele>118.19999694824</ele>
        <time>2024-10-13T06:05:53.000Z</time>
      </trkpt>
      <trkpt lat="49.30853" lon="0.87134">
        <ele>117</ele>
        <time>2024-10-13T06:05:58.000Z</time>
      </trkpt>
      <trkpt lat="49.30894" lon="0.87116">
        <ele>118</ele>
        <time>2024-10-13T06:06:05.000Z</time>
      </trkpt>
      <trkpt lat="49.30931" lon="0.87116">
        <ele>119.80000305176</ele>
        <time>2024-10-13T06:06:12.000Z</time>
      </trkpt>
      <trkpt lat="49.30949" lon="0.87119">
        <ele>120.80000305176</ele>
        <time>2024-10-13T06:06:16.000Z</time>
      </trkpt>
      <trkpt lat="49.30962" lon="0.87119">
        <ele>121.59999847412</ele>
        <time>2024-10-13T06:06:19.000Z</time>
      </trkpt>
      <trkpt lat="49.3098" lon="0.87116">
        <ele>122.80000305176</ele>
        <time>2024-10-13T06:06:23.000Z</time>
      </trkpt>
      <trkpt lat="49.30983" lon="0.87114">
        <ele>123</ele>
        <time>2024-10-13T06:06:24.000Z</time>
      </trkpt>
      <trkpt lat="49.30987" lon="0.87112">
        <ele>123.19999694824</ele>
        <time>2024-10-13T06:06:25.000Z</time>
      </trkpt>
      <trkpt lat="49.3099" lon="0.87109">
        <ele>123.59999847412</ele>
        <time>2024-10-13T06:06:26.000Z</time>
      </trkpt>
      <trkpt lat="49.31008" lon="0.87098">
        <ele>125</ele>
        <time>2024-10-13T06:06:31.000Z</time>
      </trkpt>
      <trkpt lat="49.31011" lon="0.87096">
        <ele>125.19999694824</ele>
        <time>2024-10-13T06:06:32.000Z</time>
      </trkpt>
      <trkpt lat="49.31018" lon="0.87092">
        <ele>125.59999847412</ele>
        <time>2024-10-13T06:06:34.000Z</time>
      </trkpt>
      <trkpt lat="49.31075" lon="0.87077">
        <ele>127.40000152588</ele>
        <time>2024-10-13T06:06:49.000Z</time>
      </trkpt>
      <trkpt lat="49.31125" lon="0.87072">
        <ele>128</ele>
        <time>2024-10-13T06:07:01.000Z</time>
      </trkpt>
      <trkpt lat="49.31129" lon="0.87073">
        <ele>128</ele>
        <time>2024-10-13T06:07:02.000Z</time>
      </trkpt>
      <trkpt lat="49.31132" lon="0.87075">
        <ele>128</ele>
        <time>2024-10-13T06:07:03.000Z</time>
      </trkpt>
      <trkpt lat="49.31139" lon="0.87084">
        <ele>128.19999694824</ele>
        <time>2024-10-13T06:07:05.000Z</time>
      </trkpt>
      <trkpt lat="49.31143" lon="0.87096">
        <ele>128.19999694824</ele>
        <time>2024-10-13T06:07:07.000Z</time>
      </trkpt>
      <trkpt lat="49.31144" lon="0.87103">
        <ele>128</ele>
        <time>2024-10-13T06:07:08.000Z</time>
      </trkpt>
      <trkpt lat="49.31147" lon="0.87124">
        <ele>128</ele>
        <time>2024-10-13T06:07:11.000Z</time>
      </trkpt>
      <trkpt lat="49.31148" lon="0.87131">
        <ele>128</ele>
        <time>2024-10-13T06:07:12.000Z</time>
      </trkpt>
      <trkpt lat="49.31149" lon="0.87138">
        <ele>128</ele>
        <time>2024-10-13T06:07:13.000Z</time>
      </trkpt>
      <trkpt lat="49.31151" lon="0.87145">
        <ele>127.80000305176</ele>
        <time>2024-10-13T06:07:14.000Z</time>
      </trkpt>
      <trkpt lat="49.31153" lon="0.87151">
        <ele>127.80000305176</ele>
        <time>2024-10-13T06:07:15.000Z</time>
      </trkpt>
      <trkpt lat="49.31156" lon="0.87157">
        <ele>127.80000305176</ele>
        <time>2024-10-13T06:07:16.000Z</time>
      </trkpt>
      <trkpt lat="49.3116" lon="0.87161">
        <ele>128</ele>
        <time>2024-10-13T06:07:17.000Z</time>
      </trkpt>
      <trkpt lat="49.31164" lon="0.87165">
        <ele>128</ele>
        <time>2024-10-13T06:07:18.000Z</time>
      </trkpt>
      <trkpt lat="49.31168" lon="0.87168">
        <ele>128.19999694824</ele>
        <time>2024-10-13T06:07:19.000Z</time>
      </trkpt>
      <trkpt lat="49.31173" lon="0.87169">
        <ele>128.39999389648</ele>
        <time>2024-10-13T06:07:20.000Z</time>
      </trkpt>
      <trkpt lat="49.31187" lon="0.87172">
        <ele>129</ele>
        <time>2024-10-13T06:07:23.000Z</time>
      </trkpt>
      <trkpt lat="49.31192" lon="0.87173">
        <ele>129</ele>
        <time>2024-10-13T06:07:24.000Z</time>
      </trkpt>
      <trkpt lat="49.31224" lon="0.87176">
        <ele>129.80000305176</ele>
        <time>2024-10-13T06:07:31.000Z</time>
      </trkpt>
      <trkpt lat="49.31248" lon="0.87171">
        <ele>129</ele>
        <time>2024-10-13T06:07:36.000Z</time>
      </trkpt>
      <trkpt lat="49.313" lon="0.87143">
        <ele>129</ele>
        <time>2024-10-13T06:07:47.000Z</time>
      </trkpt>
      <trkpt lat="49.31351" lon="0.87114">
        <ele>129.80000305176</ele>
        <time>2024-10-13T06:07:59.000Z</time>
      </trkpt>
      <trkpt lat="49.31409" lon="0.87117">
        <ele>130</ele>
        <time>2024-10-13T06:08:12.000Z</time>
      </trkpt>
      <trkpt lat="49.31465" lon="0.87132">
        <ele>129</ele>
        <time>2024-10-13T06:08:24.000Z</time>
      </trkpt>
      <trkpt lat="49.3152" lon="0.87158">
        <ele>128</ele>
        <time>2024-10-13T06:08:36.000Z</time>
      </trkpt>
      <trkpt lat="49.31565" lon="0.87213">
        <ele>127</ele>
        <time>2024-10-13T06:08:47.000Z</time>
      </trkpt>
      <trkpt lat="49.31612" lon="0.87255">
        <ele>125.59999847412</ele>
        <time>2024-10-13T06:08:56.000Z</time>
      </trkpt>
      <trkpt lat="49.31666" lon="0.87282">
        <ele>124.19999694824</ele>
        <time>2024-10-13T06:09:04.000Z</time>
      </trkpt>
      <trkpt lat="49.31723" lon="0.87301">
        <ele>124.80000305176</ele>
        <time>2024-10-13T06:09:11.000Z</time>
      </trkpt>
      <trkpt lat="49.3178" lon="0.8732">
        <ele>121.19999694824</ele>
        <time>2024-10-13T06:09:18.000Z</time>
      </trkpt>
      <trkpt lat="49.31833" lon="0.87357">
        <ele>116.59999847412</ele>
        <time>2024-10-13T06:09:25.000Z</time>
      </trkpt>
      <trkpt lat="49.31855" lon="0.87373">
        <ele>115</ele>
        <time>2024-10-13T06:09:28.000Z</time>
      </trkpt>
      <trkpt lat="49.31903" lon="0.87426">
        <ele>112.40000152588</ele>
        <time>2024-10-13T06:09:35.000Z</time>
      </trkpt>
      <trkpt lat="49.31948" lon="0.87478">
        <ele>108.80000305176</ele>
        <time>2024-10-13T06:09:41.000Z</time>
      </trkpt>
      <trkpt lat="49.31998" lon="0.8753">
        <ele>107.80000305176</ele>
        <time>2024-10-13T06:09:48.000Z</time>
      </trkpt>
      <trkpt lat="49.32046" lon="0.87575">
        <ele>107.59999847412</ele>
        <time>2024-10-13T06:09:55.000Z</time>
      </trkpt>
      <trkpt lat="49.32087" lon="0.87609">
        <ele>115.19999694824</ele>
        <time>2024-10-13T06:10:02.000Z</time>
      </trkpt>
      <trkpt lat="49.32099" lon="0.87617">
        <ele>117.40000152588</ele>
        <time>2024-10-13T06:10:07.000Z</time>
      </trkpt>
      <trkpt lat="49.32125" lon="0.87553">
        <ele>116.80000305176</ele>
        <time>2024-10-13T06:10:21.000Z</time>
      </trkpt>
      <trkpt lat="49.32152" lon="0.87482">
        <ele>113.59999847412</ele>
        <time>2024-10-13T06:10:39.000Z</time>
      </trkpt>
      <trkpt lat="49.3218" lon="0.87441">
        <ele>114.80000305176</ele>
        <time>2024-10-13T06:10:50.000Z</time>
      </trkpt>
      <trkpt lat="49.32196" lon="0.87414">
        <ele>113.19999694824</ele>
        <time>2024-10-13T06:10:55.000Z</time>
      </trkpt>
      <trkpt lat="49.32231" lon="0.87349">
        <ele>107.40000152588</ele>
        <time>2024-10-13T06:11:09.000Z</time>
      </trkpt>
      <trkpt lat="49.32256" lon="0.87299">
        <ele>107.59999847412</ele>
        <time>2024-10-13T06:11:18.000Z</time>
      </trkpt>
      <trkpt lat="49.32275" lon="0.87217">
        <ele>109.19999694824</ele>
        <time>2024-10-13T06:11:31.000Z</time>
      </trkpt>
      <trkpt lat="49.32288" lon="0.87136">
        <ele>107.59999847412</ele>
        <time>2024-10-13T06:11:45.000Z</time>
      </trkpt>
      <trkpt lat="49.32304" lon="0.87103">
        <ele>106.59999847412</ele>
        <time>2024-10-13T06:11:52.000Z</time>
      </trkpt>
      <trkpt lat="49.32331" lon="0.87055">
        <ele>106.40000152588</ele>
        <time>2024-10-13T06:12:07.000Z</time>
      </trkpt>
      <trkpt lat="49.32373" lon="0.86995">
        <ele>106.59999847412</ele>
        <time>2024-10-13T06:12:22.000Z</time>
      </trkpt>
      <trkpt lat="49.32377" lon="0.86918">
        <ele>106.59999847412</ele>
        <time>2024-10-13T06:12:35.000Z</time>
      </trkpt>
      <trkpt lat="49.32367" lon="0.86891">
        <ele>106.80000305176</ele>
        <time>2024-10-13T06:12:40.000Z</time>
      </trkpt>
      <trkpt lat="49.32365" lon="0.86886">
        <ele>107</ele>
        <time>2024-10-13T06:12:41.000Z</time>
      </trkpt>
      <trkpt lat="49.32363" lon="0.86882">
        <ele>107</ele>
        <time>2024-10-13T06:12:42.000Z</time>
      </trkpt>
      <trkpt lat="49.3233" lon="0.86824">
        <ele>108</ele>
        <time>2024-10-13T06:12:54.000Z</time>
      </trkpt>
      <trkpt lat="49.32327" lon="0.86811">
        <ele>108</ele>
        <time>2024-10-13T06:12:55.000Z</time>
      </trkpt>
      <trkpt lat="49.32325" lon="0.86798">
        <ele>107.80000305176</ele>
        <time>2024-10-13T06:12:58.000Z</time>
      </trkpt>
      <trkpt lat="49.32334" lon="0.86726">
        <ele>109.40000152588</ele>
        <time>2024-10-13T06:13:12.000Z</time>
      </trkpt>
      <trkpt lat="49.32335" lon="0.86689">
        <ele>109.40000152588</ele>
        <time>2024-10-13T06:13:18.000Z</time>
      </trkpt>
      <trkpt lat="49.32334" lon="0.86673">
        <ele>109.40000152588</ele>
        <time>2024-10-13T06:13:20.000Z</time>
      </trkpt>
      <trkpt lat="49.32313" lon="0.86592">
        <ele>109.40000152588</ele>
        <time>2024-10-13T06:13:33.000Z</time>
      </trkpt>
      <trkpt lat="49.32307" lon="0.86577">
        <ele>109.19999694824</ele>
        <time>2024-10-13T06:13:36.000Z</time>
      </trkpt>
      <trkpt lat="49.32297" lon="0.86538">
        <ele>108.40000152588</ele>
        <time>2024-10-13T06:13:47.000Z</time>
      </trkpt>
      <trkpt lat="49.32302" lon="0.86536">
        <ele>109.19999694824</ele>
        <time>2024-10-13T06:13:51.000Z</time>
      </trkpt>
      <trkpt lat="49.32312" lon="0.86558">
        <ele>110.59999847412</ele>
        <time>2024-10-13T06:14:03.000Z</time>
      </trkpt>
      <trkpt lat="49.32316" lon="0.8656">
        <ele>111.19999694824</ele>
        <time>2024-10-13T06:14:05.000Z</time>
      </trkpt>
      <trkpt lat="49.32319" lon="0.86562">
        <ele>111.59999847412</ele>
        <time>2024-10-13T06:14:07.000Z</time>
      </trkpt>
      <trkpt lat="49.32321" lon="0.86565">
        <ele>112</ele>
        <time>2024-10-13T06:14:08.000Z</time>
      </trkpt>
      <trkpt lat="49.32321" lon="0.86565">
        <ele>112</ele>
        <time>2024-10-13T06:14:09.000Z</time>
      </trkpt>
      <trkpt lat="49.32324" lon="0.86568">
        <ele>112.19999694824</ele>
        <time>2024-10-13T06:14:12.000Z</time>
      </trkpt>
      <trkpt lat="49.32334" lon="0.86578">
        <ele>113</ele>
        <time>2024-10-13T06:14:29.000Z</time>
      </trkpt>
      <trkpt lat="49.32336" lon="0.8658">
        <ele>113.19999694824</ele>
        <time>2024-10-13T06:14:30.000Z</time>
      </trkpt>
      <trkpt lat="49.32338" lon="0.86582">
        <ele>113.19999694824</ele>
        <time>2024-10-13T06:14:31.000Z</time>
      </trkpt>
      <trkpt lat="49.3234" lon="0.86586">
        <ele>113.19999694824</ele>
        <time>2024-10-13T06:14:32.000Z</time>
      </trkpt>
      <trkpt lat="49.32343" lon="0.86589">
        <ele>113.40000152588</ele>
        <time>2024-10-13T06:14:33.000Z</time>
      </trkpt>
      <trkpt lat="49.32346" lon="0.86592">
        <ele>113.59999847412</ele>
        <time>2024-10-13T06:14:34.000Z</time>
      </trkpt>
      <trkpt lat="49.32365" lon="0.86613">
        <ele>115.19999694824</ele>
        <time>2024-10-13T06:14:42.000Z</time>
      </trkpt>
      <trkpt lat="49.32378" lon="0.86628">
        <ele>116.59999847412</ele>
        <time>2024-10-13T06:14:47.000Z</time>
      </trkpt>
      <trkpt lat="49.32385" lon="0.86638">
        <ele>117.59999847412</ele>
        <time>2024-10-13T06:14:50.000Z</time>
      </trkpt>
      <trkpt lat="49.3241" lon="0.86669">
        <ele>121</ele>
        <time>2024-10-13T06:15:02.000Z</time>
      </trkpt>
      <trkpt lat="49.32418" lon="0.86678">
        <ele>122</ele>
        <time>2024-10-13T06:15:05.000Z</time>
      </trkpt>
      <trkpt lat="49.32421" lon="0.86681">
        <ele>122.40000152588</ele>
        <time>2024-10-13T06:15:06.000Z</time>
      </trkpt>
      <trkpt lat="49.32423" lon="0.86685">
        <ele>122.80000305176</ele>
        <time>2024-10-13T06:15:07.000Z</time>
      </trkpt>
      <trkpt lat="49.32428" lon="0.86692">
        <ele>123.40000152588</ele>
        <time>2024-10-13T06:15:09.000Z</time>
      </trkpt>
      <trkpt lat="49.32434" lon="0.86699">
        <ele>124.19999694824</ele>
        <time>2024-10-13T06:15:11.000Z</time>
      </trkpt>
      <trkpt lat="49.32442" lon="0.8671">
        <ele>125</ele>
        <time>2024-10-13T06:15:14.000Z</time>
      </trkpt>
      <trkpt lat="49.3245" lon="0.86719">
        <ele>125</ele>
        <time>2024-10-13T06:15:17.000Z</time>
      </trkpt>
      <trkpt lat="49.32462" lon="0.86732">
        <ele>125.40000152588</ele>
        <time>2024-10-13T06:15:21.000Z</time>
      </trkpt>
      <trkpt lat="49.32478" lon="0.86752">
        <ele>125.59999847412</ele>
        <time>2024-10-13T06:15:26.000Z</time>
      </trkpt>
      <trkpt lat="49.32485" lon="0.8676">
        <ele>125.59999847412</ele>
        <time>2024-10-13T06:15:27.000Z</time>
      </trkpt>
      <trkpt lat="49.32485" lon="0.8676">
        <ele>125.59999847412</ele>
        <time>2024-10-13T06:15:28.000Z</time>
      </trkpt>
      <trkpt lat="49.325" lon="0.86778">
        <ele>124.80000305176</ele>
        <time>2024-10-13T06:15:32.000Z</time>
      </trkpt>
      <trkpt lat="49.32517" lon="0.86796">
        <ele>123.40000152588</ele>
        <time>2024-10-13T06:15:37.000Z</time>
      </trkpt>
      <trkpt lat="49.3252" lon="0.86798">
        <ele>123.19999694824</ele>
        <time>2024-10-13T06:15:38.000Z</time>
      </trkpt>
      <trkpt lat="49.32525" lon="0.86803">
        <ele>123</ele>
        <time>2024-10-13T06:15:40.000Z</time>
      </trkpt>
      <trkpt lat="49.32527" lon="0.86807">
        <ele>122.80000305176</ele>
        <time>2024-10-13T06:15:41.000Z</time>
      </trkpt>
      <trkpt lat="49.32531" lon="0.86816">
        <ele>122.40000152588</ele>
        <time>2024-10-13T06:15:43.000Z</time>
      </trkpt>
      <trkpt lat="49.32536" lon="0.86823">
        <ele>122.80000305176</ele>
        <time>2024-10-13T06:15:45.000Z</time>
      </trkpt>
      <trkpt lat="49.32542" lon="0.86827">
        <ele>123</ele>
        <time>2024-10-13T06:15:47.000Z</time>
      </trkpt>
      <trkpt lat="49.32555" lon="0.86816">
        <ele>123.40000152588</ele>
        <time>2024-10-13T06:15:51.000Z</time>
      </trkpt>
      <trkpt lat="49.32558" lon="0.86804">
        <ele>123.59999847412</ele>
        <time>2024-10-13T06:15:53.000Z</time>
      </trkpt>
      <trkpt lat="49.32559" lon="0.86798">
        <ele>123.59999847412</ele>
        <time>2024-10-13T06:15:54.000Z</time>
      </trkpt>
      <trkpt lat="49.32561" lon="0.86791">
        <ele>123.40000152588</ele>
        <time>2024-10-13T06:15:55.000Z</time>
      </trkpt>
      <trkpt lat="49.32562" lon="0.86783">
        <ele>123.80000305176</ele>
        <time>2024-10-13T06:15:56.000Z</time>
      </trkpt>
      <trkpt lat="49.32563" lon="0.86776">
        <ele>124.40000152588</ele>
        <time>2024-10-13T06:15:57.000Z</time>
      </trkpt>
      <trkpt lat="49.32568" lon="0.86737">
        <ele>125.19999694824</ele>
        <time>2024-10-13T06:16:02.000Z</time>
      </trkpt>
      <trkpt lat="49.3257" lon="0.86721">
        <ele>125.80000305176</ele>
        <time>2024-10-13T06:16:04.000Z</time>
      </trkpt>
      <trkpt lat="49.32572" lon="0.86713">
        <ele>126.40000152588</ele>
        <time>2024-10-13T06:16:05.000Z</time>
      </trkpt>
      <trkpt lat="49.32574" lon="0.86698">
        <ele>127.19999694824</ele>
        <time>2024-10-13T06:16:07.000Z</time>
      </trkpt>
      <trkpt lat="49.32575" lon="0.8669">
        <ele>127.59999847412</ele>
        <time>2024-10-13T06:16:08.000Z</time>
      </trkpt>
      <trkpt lat="49.32577" lon="0.86677">
        <ele>128</ele>
        <time>2024-10-13T06:16:09.000Z</time>
      </trkpt>
      <trkpt lat="49.32582" lon="0.86657">
        <ele>128</ele>
        <time>2024-10-13T06:16:13.000Z</time>
      </trkpt>
      <trkpt lat="49.32583" lon="0.8665">
        <ele>128.19999694824</ele>
        <time>2024-10-13T06:16:14.000Z</time>
      </trkpt>
      <trkpt lat="49.32585" lon="0.86643">
        <ele>128.19999694824</ele>
        <time>2024-10-13T06:16:15.000Z</time>
      </trkpt>
      <trkpt lat="49.32589" lon="0.86624">
        <ele>128.39999389648</ele>
        <time>2024-10-13T06:16:18.000Z</time>
      </trkpt>
      <trkpt lat="49.32591" lon="0.86608">
        <ele>128.39999389648</ele>
        <time>2024-10-13T06:16:20.000Z</time>
      </trkpt>
      <trkpt lat="49.32592" lon="0.866">
        <ele>128.39999389648</ele>
        <time>2024-10-13T06:16:21.000Z</time>
      </trkpt>
      <trkpt lat="49.32592" lon="0.86591">
        <ele>128.39999389648</ele>
        <time>2024-10-13T06:16:22.000Z</time>
      </trkpt>
      <trkpt lat="49.32594" lon="0.86575">
        <ele>128.60000610352</ele>
        <time>2024-10-13T06:16:24.000Z</time>
      </trkpt>
      <trkpt lat="49.32595" lon="0.86567">
        <ele>128.60000610352</ele>
        <time>2024-10-13T06:16:25.000Z</time>
      </trkpt>
      <trkpt lat="49.32597" lon="0.86552">
        <ele>127.80000305176</ele>
        <time>2024-10-13T06:16:27.000Z</time>
      </trkpt>
      <trkpt lat="49.32604" lon="0.86527">
        <ele>127.19999694824</ele>
        <time>2024-10-13T06:16:31.000Z</time>
      </trkpt>
      <trkpt lat="49.32627" lon="0.86513">
        <ele>127.80000305176</ele>
        <time>2024-10-13T06:16:38.000Z</time>
      </trkpt>
      <trkpt lat="49.32654" lon="0.86497">
        <ele>127.80000305176</ele>
        <time>2024-10-13T06:16:47.000Z</time>
      </trkpt>
      <trkpt lat="49.32662" lon="0.8649">
        <ele>127.59999847412</ele>
        <time>2024-10-13T06:16:53.000Z</time>
      </trkpt>
      <trkpt lat="49.32672" lon="0.86469">
        <ele>124.80000305176</ele>
        <time>2024-10-13T06:17:13.000Z</time>
      </trkpt>
      <trkpt lat="49.32689" lon="0.86436">
        <ele>119.40000152588</ele>
        <time>2024-10-13T06:17:20.000Z</time>
      </trkpt>
      <trkpt lat="49.32704" lon="0.86411">
        <ele>114.19999694824</ele>
        <time>2024-10-13T06:17:26.000Z</time>
      </trkpt>
      <trkpt lat="49.3275" lon="0.8638">
        <ele>108.59999847412</ele>
        <time>2024-10-13T06:17:41.000Z</time>
      </trkpt>
      <trkpt lat="49.32769" lon="0.86376">
        <ele>109.19999694824</ele>
        <time>2024-10-13T06:17:49.000Z</time>
      </trkpt>
      <trkpt lat="49.32802" lon="0.86334">
        <ele>103</ele>
        <time>2024-10-13T06:18:01.000Z</time>
      </trkpt>
      <trkpt lat="49.32817" lon="0.86299">
        <ele>101</ele>
        <time>2024-10-13T06:18:21.000Z</time>
      </trkpt>
      <trkpt lat="49.32829" lon="0.86219">
        <ele>105.40000152588</ele>
        <time>2024-10-13T06:18:39.000Z</time>
      </trkpt>
      <trkpt lat="49.32832" lon="0.86216">
        <ele>105.59999847412</ele>
        <time>2024-10-13T06:18:41.000Z</time>
      </trkpt>
      <trkpt lat="49.32838" lon="0.86206">
        <ele>106.19999694824</ele>
        <time>2024-10-13T06:18:46.000Z</time>
      </trkpt>
      <trkpt lat="49.32839" lon="0.86195">
        <ele>107</ele>
        <time>2024-10-13T06:18:50.000Z</time>
      </trkpt>
      <trkpt lat="49.32806" lon="0.86193">
        <ele>107</ele>
        <time>2024-10-13T06:19:08.000Z</time>
      </trkpt>
      <trkpt lat="49.32802" lon="0.86192">
        <ele>107</ele>
        <time>2024-10-13T06:19:11.000Z</time>
      </trkpt>
      <trkpt lat="49.32778" lon="0.86189">
        <ele>106</ele>
        <time>2024-10-13T06:19:22.000Z</time>
      </trkpt>
      <trkpt lat="49.32764" lon="0.86183">
        <ele>106</ele>
        <time>2024-10-13T06:19:28.000Z</time>
      </trkpt>
      <trkpt lat="49.32755" lon="0.86177">
        <ele>106.40000152588</ele>
        <time>2024-10-13T06:19:35.000Z</time>
      </trkpt>
      <trkpt lat="49.32742" lon="0.86165">
        <ele>107.59999847412</ele>
        <time>2024-10-13T06:19:43.000Z</time>
      </trkpt>
      <trkpt lat="49.32739" lon="0.86162">
        <ele>108.19999694824</ele>
        <time>2024-10-13T06:19:45.000Z</time>
      </trkpt>
      <trkpt lat="49.32727" lon="0.86156">
        <ele>109</ele>
        <time>2024-10-13T06:19:52.000Z</time>
      </trkpt>
      <trkpt lat="49.32721" lon="0.8615">
        <ele>110</ele>
        <time>2024-10-13T06:19:57.000Z</time>
      </trkpt>
      <trkpt lat="49.32703" lon="0.86132">
        <ele>113</ele>
        <time>2024-10-13T06:20:08.000Z</time>
      </trkpt>
      <trkpt lat="49.32693" lon="0.86123">
        <ele>114.59999847412</ele>
        <time>2024-10-13T06:20:13.000Z</time>
      </trkpt>
      <trkpt lat="49.32678" lon="0.86107">
        <ele>117</ele>
        <time>2024-10-13T06:20:20.000Z</time>
      </trkpt>
      <trkpt lat="49.32625" lon="0.86078">
        <ele>115.19999694824</ele>
        <time>2024-10-13T06:20:36.000Z</time>
      </trkpt>
      <trkpt lat="49.32587" lon="0.86049">
        <ele>113.59999847412</ele>
        <time>2024-10-13T06:20:56.000Z</time>
      </trkpt>
      <trkpt lat="49.32587" lon="0.86049">
        <ele>113.59999847412</ele>
        <time>2024-10-13T06:21:02.000Z</time>
      </trkpt>
      <trkpt lat="49.32583" lon="0.86029">
        <ele>115.59999847412</ele>
        <time>2024-10-13T06:21:20.000Z</time>
      </trkpt>
      <trkpt lat="49.32582" lon="0.85965">
        <ele>123</ele>
        <time>2024-10-13T06:21:42.000Z</time>
      </trkpt>
      <trkpt lat="49.3259" lon="0.85923">
        <ele>127</ele>
        <time>2024-10-13T06:21:58.000Z</time>
      </trkpt>
      <trkpt lat="49.32593" lon="0.85912">
        <ele>128</ele>
        <time>2024-10-13T06:22:03.000Z</time>
      </trkpt>
      <trkpt lat="49.32596" lon="0.85893">
        <ele>129.19999694824</ele>
        <time>2024-10-13T06:22:09.000Z</time>
      </trkpt>
      <trkpt lat="49.32602" lon="0.8587">
        <ele>129.60000610352</ele>
        <time>2024-10-13T06:22:16.000Z</time>
      </trkpt>
      <trkpt lat="49.32602" lon="0.85859">
        <ele>129.80000305176</ele>
        <time>2024-10-13T06:22:19.000Z</time>
      </trkpt>
      <trkpt lat="49.32603" lon="0.85839">
        <ele>129.80000305176</ele>
        <time>2024-10-13T06:22:25.000Z</time>
      </trkpt>
      <trkpt lat="49.32614" lon="0.85808">
        <ele>129.80000305176</ele>
        <time>2024-10-13T06:22:36.000Z</time>
      </trkpt>
      <trkpt lat="49.32626" lon="0.85771">
        <ele>129</ele>
        <time>2024-10-13T06:22:48.000Z</time>
      </trkpt>
      <trkpt lat="49.3263" lon="0.85761">
        <ele>129</ele>
        <time>2024-10-13T06:22:49.000Z</time>
      </trkpt>
      <trkpt lat="49.32632" lon="0.85757">
        <ele>129</ele>
        <time>2024-10-13T06:22:51.000Z</time>
      </trkpt>
      <trkpt lat="49.32635" lon="0.85746">
        <ele>129</ele>
        <time>2024-10-13T06:22:53.000Z</time>
      </trkpt>
      <trkpt lat="49.32636" lon="0.85741">
        <ele>129</ele>
        <time>2024-10-13T06:22:54.000Z</time>
      </trkpt>
      <trkpt lat="49.32639" lon="0.8573">
        <ele>129.19999694824</ele>
        <time>2024-10-13T06:22:56.000Z</time>
      </trkpt>
      <trkpt lat="49.32647" lon="0.85709">
        <ele>129.39999389648</ele>
        <time>2024-10-13T06:23:01.000Z</time>
      </trkpt>
      <trkpt lat="49.3265" lon="0.85705">
        <ele>129.60000610352</ele>
        <time>2024-10-13T06:23:02.000Z</time>
      </trkpt>
      <trkpt lat="49.32651" lon="0.857">
        <ele>129.80000305176</ele>
        <time>2024-10-13T06:23:03.000Z</time>
      </trkpt>
      <trkpt lat="49.32652" lon="0.85695">
        <ele>130</ele>
        <time>2024-10-13T06:23:04.000Z</time>
      </trkpt>
      <trkpt lat="49.32657" lon="0.85681">
        <ele>130.60000610352</ele>
        <time>2024-10-13T06:23:07.000Z</time>
      </trkpt>
      <trkpt lat="49.3266" lon="0.85671">
        <ele>131.19999694824</ele>
        <time>2024-10-13T06:23:09.000Z</time>
      </trkpt>
      <trkpt lat="49.32661" lon="0.85667">
        <ele>131.39999389648</ele>
        <time>2024-10-13T06:23:10.000Z</time>
      </trkpt>
      <trkpt lat="49.32665" lon="0.85644">
        <ele>132</ele>
        <time>2024-10-13T06:23:15.000Z</time>
      </trkpt>
      <trkpt lat="49.32669" lon="0.85629">
        <ele>132.39999389648</ele>
        <time>2024-10-13T06:23:18.000Z</time>
      </trkpt>
      <trkpt lat="49.3267" lon="0.85623">
        <ele>132.39999389648</ele>
        <time>2024-10-13T06:23:19.000Z</time>
      </trkpt>
      <trkpt lat="49.32671" lon="0.85617">
        <ele>132.39999389648</ele>
        <time>2024-10-13T06:23:20.000Z</time>
      </trkpt>
      <trkpt lat="49.32675" lon="0.85576">
        <ele>132</ele>
        <time>2024-10-13T06:23:27.000Z</time>
      </trkpt>
      <trkpt lat="49.32678" lon="0.85563">
        <ele>132</ele>
        <time>2024-10-13T06:23:29.000Z</time>
      </trkpt>
      <trkpt lat="49.32681" lon="0.85546">
        <ele>131.60000610352</ele>
        <time>2024-10-13T06:23:32.000Z</time>
      </trkpt>
      <trkpt lat="49.32684" lon="0.85507">
        <ele>130.60000610352</ele>
        <time>2024-10-13T06:23:39.000Z</time>
      </trkpt>
      <trkpt lat="49.32684" lon="0.855">
        <ele>130.60000610352</ele>
        <time>2024-10-13T06:23:40.000Z</time>
      </trkpt>
      <trkpt lat="49.32685" lon="0.85485">
        <ele>129.80000305176</ele>
        <time>2024-10-13T06:23:41.000Z</time>
      </trkpt>
      <trkpt lat="49.32683" lon="0.85439">
        <ele>127.80000305176</ele>
        <time>2024-10-13T06:23:49.000Z</time>
      </trkpt>
      <trkpt lat="49.32684" lon="0.85433">
        <ele>127.40000152588</ele>
        <time>2024-10-13T06:23:50.000Z</time>
      </trkpt>
      <trkpt lat="49.32685" lon="0.8541">
        <ele>126</ele>
        <time>2024-10-13T06:23:54.000Z</time>
      </trkpt>
      <trkpt lat="49.32685" lon="0.85405">
        <ele>126</ele>
        <time>2024-10-13T06:23:55.000Z</time>
      </trkpt>
      <trkpt lat="49.32683" lon="0.85393">
        <ele>126</ele>
        <time>2024-10-13T06:23:57.000Z</time>
      </trkpt>
      <trkpt lat="49.32678" lon="0.85361">
        <ele>126.80000305176</ele>
        <time>2024-10-13T06:24:02.000Z</time>
      </trkpt>
      <trkpt lat="49.32667" lon="0.85277">
        <ele>130.60000610352</ele>
        <time>2024-10-13T06:24:18.000Z</time>
      </trkpt>
      <trkpt lat="49.32667" lon="0.85235">
        <ele>130.80000305176</ele>
        <time>2024-10-13T06:24:26.000Z</time>
      </trkpt>
      <trkpt lat="49.32673" lon="0.85148">
        <ele>130.60000610352</ele>
        <time>2024-10-13T06:24:47.000Z</time>
      </trkpt>
      <trkpt lat="49.32678" lon="0.85067">
        <ele>134.60000610352</ele>
        <time>2024-10-13T06:25:08.000Z</time>
      </trkpt>
      <trkpt lat="49.32634" lon="0.85049">
        <ele>129.39999389648</ele>
        <time>2024-10-13T06:25:23.000Z</time>
      </trkpt>
      <trkpt lat="49.32579" lon="0.8503">
        <ele>129.80000305176</ele>
        <time>2024-10-13T06:25:37.000Z</time>
      </trkpt>
      <trkpt lat="49.32554" lon="0.85023">
        <ele>130.39999389648</ele>
        <time>2024-10-13T06:25:44.000Z</time>
      </trkpt>
      <trkpt lat="49.32498" lon="0.85009">
        <ele>129</ele>
        <time>2024-10-13T06:25:59.000Z</time>
      </trkpt>
      <trkpt lat="49.3246" lon="0.84981">
        <ele>123.19999694824</ele>
        <time>2024-10-13T06:26:13.000Z</time>
      </trkpt>
      <trkpt lat="49.32478" lon="0.84909">
        <ele>122.19999694824</ele>
        <time>2024-10-13T06:26:34.000Z</time>
      </trkpt>
      <trkpt lat="49.32479" lon="0.84899">
        <ele>121.80000305176</ele>
        <time>2024-10-13T06:26:42.000Z</time>
      </trkpt>
      <trkpt lat="49.3247" lon="0.84896">
        <ele>121.19999694824</ele>
        <time>2024-10-13T06:26:47.000Z</time>
      </trkpt>
      <trkpt lat="49.32476" lon="0.84855">
        <ele>121.59999847412</ele>
        <time>2024-10-13T06:26:56.000Z</time>
      </trkpt>
      <trkpt lat="49.3248" lon="0.84834">
        <ele>122.59999847412</ele>
        <time>2024-10-13T06:27:00.000Z</time>
      </trkpt>
      <trkpt lat="49.32482" lon="0.84807">
        <ele>123</ele>
        <time>2024-10-13T06:27:04.000Z</time>
      </trkpt>
      <trkpt lat="49.32489" lon="0.84721">
        <ele>123.19999694824</ele>
        <time>2024-10-13T06:27:16.000Z</time>
      </trkpt>
      <trkpt lat="49.32486" lon="0.84701">
        <ele>122.40000152588</ele>
        <time>2024-10-13T06:27:19.000Z</time>
      </trkpt>
      <trkpt lat="49.32466" lon="0.84621">
        <ele>118.80000305176</ele>
        <time>2024-10-13T06:27:31.000Z</time>
      </trkpt>
      <trkpt lat="49.3246" lon="0.84607">
        <ele>117.59999847412</ele>
        <time>2024-10-13T06:27:33.000Z</time>
      </trkpt>
      <trkpt lat="49.32459" lon="0.84583">
        <ele>116.80000305176</ele>
        <time>2024-10-13T06:27:37.000Z</time>
      </trkpt>
      <trkpt lat="49.3246" lon="0.84569">
        <ele>116.40000152588</ele>
        <time>2024-10-13T06:27:41.000Z</time>
      </trkpt>
      <trkpt lat="49.32486" lon="0.8449">
        <ele>117.40000152588</ele>
        <time>2024-10-13T06:27:55.000Z</time>
      </trkpt>
      <trkpt lat="49.32523" lon="0.84459">
        <ele>119.19999694824</ele>
        <time>2024-10-13T06:28:07.000Z</time>
      </trkpt>
      <trkpt lat="49.32558" lon="0.8444">
        <ele>119.80000305176</ele>
        <time>2024-10-13T06:28:18.000Z</time>
      </trkpt>
      <trkpt lat="49.32573" lon="0.84438">
        <ele>121.19999694824</ele>
        <time>2024-10-13T06:28:22.000Z</time>
      </trkpt>
      <trkpt lat="49.32627" lon="0.84426">
        <ele>126.19999694824</ele>
        <time>2024-10-13T06:28:39.000Z</time>
      </trkpt>
      <trkpt lat="49.32677" lon="0.84394">
        <ele>127.40000152588</ele>
        <time>2024-10-13T06:28:55.000Z</time>
      </trkpt>
      <trkpt lat="49.32709" lon="0.84366">
        <ele>128.19999694824</ele>
        <time>2024-10-13T06:29:04.000Z</time>
      </trkpt>
      <trkpt lat="49.32755" lon="0.84319">
        <ele>133.19999694824</ele>
        <time>2024-10-13T06:29:19.000Z</time>
      </trkpt>
      <trkpt lat="49.328" lon="0.84276">
        <ele>132</ele>
        <time>2024-10-13T06:29:33.000Z</time>
      </trkpt>
      <trkpt lat="49.32851" lon="0.84236">
        <ele>130.80000305176</ele>
        <time>2024-10-13T06:29:48.000Z</time>
      </trkpt>
      <trkpt lat="49.32871" lon="0.84226">
        <ele>130.60000610352</ele>
        <time>2024-10-13T06:29:52.000Z</time>
      </trkpt>
      <trkpt lat="49.32914" lon="0.84213">
        <ele>130.39999389648</ele>
        <time>2024-10-13T06:30:00.000Z</time>
      </trkpt>
      <trkpt lat="49.32934" lon="0.84208">
        <ele>128.60000610352</ele>
        <time>2024-10-13T06:30:06.000Z</time>
      </trkpt>
      <trkpt lat="49.32935" lon="0.84257">
        <ele>128.19999694824</ele>
        <time>2024-10-13T06:30:16.000Z</time>
      </trkpt>
      <trkpt lat="49.32933" lon="0.84346">
        <ele>129.80000305176</ele>
        <time>2024-10-13T06:30:28.000Z</time>
      </trkpt>
      <trkpt lat="49.32932" lon="0.84353">
        <ele>130.19999694824</ele>
        <time>2024-10-13T06:30:29.000Z</time>
      </trkpt>
      <trkpt lat="49.32923" lon="0.84381">
        <ele>132.19999694824</ele>
        <time>2024-10-13T06:30:34.000Z</time>
      </trkpt>
      <trkpt lat="49.32914" lon="0.84465">
        <ele>133.39999389648</ele>
        <time>2024-10-13T06:30:46.000Z</time>
      </trkpt>
      <trkpt lat="49.32906" lon="0.84547">
        <ele>130.60000610352</ele>
        <time>2024-10-13T06:30:58.000Z</time>
      </trkpt>
      <trkpt lat="49.32895" lon="0.84628">
        <ele>127.40000152588</ele>
        <time>2024-10-13T06:31:10.000Z</time>
      </trkpt>
      <trkpt lat="49.32887" lon="0.84696">
        <ele>122.80000305176</ele>
        <time>2024-10-13T06:31:19.000Z</time>
      </trkpt>
      <trkpt lat="49.32874" lon="0.84777">
        <ele>125</ele>
        <time>2024-10-13T06:31:32.000Z</time>
      </trkpt>
      <trkpt lat="49.32857" lon="0.84861">
        <ele>128.19999694824</ele>
        <time>2024-10-13T06:31:46.000Z</time>
      </trkpt>
      <trkpt lat="49.32853" lon="0.84879">
        <ele>128.19999694824</ele>
        <time>2024-10-13T06:31:49.000Z</time>
      </trkpt>
      <trkpt lat="49.32837" lon="0.84959">
        <ele>127</ele>
        <time>2024-10-13T06:32:01.000Z</time>
      </trkpt>
      <trkpt lat="49.32823" lon="0.8503">
        <ele>125.40000152588</ele>
        <time>2024-10-13T06:32:10.000Z</time>
      </trkpt>
      <trkpt lat="49.32813" lon="0.85099">
        <ele>126.19999694824</ele>
        <time>2024-10-13T06:32:29.000Z</time>
      </trkpt>
      <trkpt lat="49.32802" lon="0.85182">
        <ele>129.39999389648</ele>
        <time>2024-10-13T06:32:45.000Z</time>
      </trkpt>
      <trkpt lat="49.32801" lon="0.85195">
        <ele>128</ele>
        <time>2024-10-13T06:32:47.000Z</time>
      </trkpt>
      <trkpt lat="49.32798" lon="0.85213">
        <ele>126.40000152588</ele>
        <time>2024-10-13T06:32:50.000Z</time>
      </trkpt>
      <trkpt lat="49.32794" lon="0.85244">
        <ele>124</ele>
        <time>2024-10-13T06:32:54.000Z</time>
      </trkpt>
      <trkpt lat="49.32787" lon="0.85292">
        <ele>119.80000305176</ele>
        <time>2024-10-13T06:33:00.000Z</time>
      </trkpt>
      <trkpt lat="49.32785" lon="0.85307">
        <ele>119.19999694824</ele>
        <time>2024-10-13T06:33:02.000Z</time>
      </trkpt>
      <trkpt lat="49.32782" lon="0.85332">
        <ele>118</ele>
        <time>2024-10-13T06:33:06.000Z</time>
      </trkpt>
      <trkpt lat="49.32781" lon="0.85365">
        <ele>117.80000305176</ele>
        <time>2024-10-13T06:33:11.000Z</time>
      </trkpt>
      <trkpt lat="49.32801" lon="0.8538">
        <ele>116.59999847412</ele>
        <time>2024-10-13T06:33:17.000Z</time>
      </trkpt>
      <trkpt lat="49.32857" lon="0.85401">
        <ele>113</ele>
        <time>2024-10-13T06:33:30.000Z</time>
      </trkpt>
      <trkpt lat="49.32867" lon="0.85404">
        <ele>112.40000152588</ele>
        <time>2024-10-13T06:33:32.000Z</time>
      </trkpt>
      <trkpt lat="49.32874" lon="0.85408">
        <ele>112</ele>
        <time>2024-10-13T06:33:34.000Z</time>
      </trkpt>
      <trkpt lat="49.32927" lon="0.85392">
        <ele>110.59999847412</ele>
        <time>2024-10-13T06:33:51.000Z</time>
      </trkpt>
      <trkpt lat="49.32971" lon="0.85354">
        <ele>112.80000305176</ele>
        <time>2024-10-13T06:34:04.000Z</time>
      </trkpt>
      <trkpt lat="49.32975" lon="0.85339">
        <ele>112.40000152588</ele>
        <time>2024-10-13T06:34:10.000Z</time>
      </trkpt>
      <trkpt lat="49.32977" lon="0.85337">
        <ele>112.40000152588</ele>
        <time>2024-10-13T06:34:14.000Z</time>
      </trkpt>
      <trkpt lat="49.32977" lon="0.85337">
        <ele>112.40000152588</ele>
        <time>2024-10-13T06:34:15.000Z</time>
      </trkpt>
      <trkpt lat="49.32977" lon="0.85337">
        <ele>112.40000152588</ele>
        <time>2024-10-13T06:34:16.000Z</time>
      </trkpt>
      <trkpt lat="49.32977" lon="0.85337">
        <ele>112.40000152588</ele>
        <time>2024-10-13T06:34:17.000Z</time>
      </trkpt>
      <trkpt lat="49.32977" lon="0.85336">
        <ele>112.40000152588</ele>
        <time>2024-10-13T06:34:19.000Z</time>
      </trkpt>
      <trkpt lat="49.32977" lon="0.85335">
        <ele>112.40000152588</ele>
        <time>2024-10-13T06:34:21.000Z</time>
      </trkpt>
      <trkpt lat="49.32978" lon="0.85334">
        <ele>112.40000152588</ele>
        <time>2024-10-13T06:34:30.000Z</time>
      </trkpt>
      <trkpt lat="49.32978" lon="0.85333">
        <ele>112.40000152588</ele>
        <time>2024-10-13T06:34:40.000Z</time>
      </trkpt>
      <trkpt lat="49.32979" lon="0.85324">
        <ele>112.19999694824</ele>
        <time>2024-10-13T06:34:44.000Z</time>
      </trkpt>
      <trkpt lat="49.32983" lon="0.85299">
        <ele>111.59999847412</ele>
        <time>2024-10-13T06:34:50.000Z</time>
      </trkpt>
      <trkpt lat="49.32991" lon="0.85263">
        <ele>112.59999847412</ele>
        <time>2024-10-13T06:35:02.000Z</time>
      </trkpt>
      <trkpt lat="49.32993" lon="0.85262">
        <ele>112.80000305176</ele>
        <time>2024-10-13T06:35:03.000Z</time>
      </trkpt>
      <trkpt lat="49.32996" lon="0.85262">
        <ele>113</ele>
        <time>2024-10-13T06:35:05.000Z</time>
      </trkpt>
      <trkpt lat="49.33013" lon="0.85262">
        <ele>114.19999694824</ele>
        <time>2024-10-13T06:35:10.000Z</time>
      </trkpt>
      <trkpt lat="49.33022" lon="0.85262">
        <ele>115</ele>
        <time>2024-10-13T06:35:12.000Z</time>
      </trkpt>
      <trkpt lat="49.33082" lon="0.85266">
        <ele>112.80000305176</ele>
        <time>2024-10-13T06:35:22.000Z</time>
      </trkpt>
      <trkpt lat="49.33096" lon="0.85269">
        <ele>111</ele>
        <time>2024-10-13T06:35:24.000Z</time>
      </trkpt>
      <trkpt lat="49.33141" lon="0.85288">
        <ele>105.80000305176</ele>
        <time>2024-10-13T06:35:33.000Z</time>
      </trkpt>
      <trkpt lat="49.33146" lon="0.85288">
        <ele>105.59999847412</ele>
        <time>2024-10-13T06:35:34.000Z</time>
      </trkpt>
      <trkpt lat="49.33202" lon="0.85277">
        <ele>108.40000152588</ele>
        <time>2024-10-13T06:35:46.000Z</time>
      </trkpt>
      <trkpt lat="49.33239" lon="0.85277">
        <ele>114.40000152588</ele>
        <time>2024-10-13T06:35:54.000Z</time>
      </trkpt>
      <trkpt lat="49.33289" lon="0.85272">
        <ele>119</ele>
        <time>2024-10-13T06:36:06.000Z</time>
      </trkpt>
      <trkpt lat="49.33302" lon="0.85267">
        <ele>119.59999847412</ele>
        <time>2024-10-13T06:36:10.000Z</time>
      </trkpt>
      <trkpt lat="49.33351" lon="0.85226">
        <ele>120.59999847412</ele>
        <time>2024-10-13T06:36:27.000Z</time>
      </trkpt>
      <trkpt lat="49.33364" lon="0.85214">
        <ele>120.19999694824</ele>
        <time>2024-10-13T06:36:32.000Z</time>
      </trkpt>
      <trkpt lat="49.33379" lon="0.85194">
        <ele>121.19999694824</ele>
        <time>2024-10-13T06:36:39.000Z</time>
      </trkpt>
      <trkpt lat="49.33382" lon="0.8519">
        <ele>121.40000152588</ele>
        <time>2024-10-13T06:36:40.000Z</time>
      </trkpt>
      <trkpt lat="49.33383" lon="0.85185">
        <ele>121.19999694824</ele>
        <time>2024-10-13T06:36:41.000Z</time>
      </trkpt>
      <trkpt lat="49.33385" lon="0.8518">
        <ele>121.19999694824</ele>
        <time>2024-10-13T06:36:42.000Z</time>
      </trkpt>
      <trkpt lat="49.33388" lon="0.85177">
        <ele>121.59999847412</ele>
        <time>2024-10-13T06:36:43.000Z</time>
      </trkpt>
      <trkpt lat="49.33432" lon="0.85126">
        <ele>125</ele>
        <time>2024-10-13T06:37:01.000Z</time>
      </trkpt>
      <trkpt lat="49.33454" lon="0.85098">
        <ele>123</ele>
        <time>2024-10-13T06:37:10.000Z</time>
      </trkpt>
      <trkpt lat="49.33457" lon="0.85095">
        <ele>122.59999847412</ele>
        <time>2024-10-13T06:37:11.000Z</time>
      </trkpt>
      <trkpt lat="49.33459" lon="0.85092">
        <ele>122.19999694824</ele>
        <time>2024-10-13T06:37:12.000Z</time>
      </trkpt>
      <trkpt lat="49.33462" lon="0.85089">
        <ele>122</ele>
        <time>2024-10-13T06:37:13.000Z</time>
      </trkpt>
      <trkpt lat="49.33465" lon="0.85086">
        <ele>121.80000305176</ele>
        <time>2024-10-13T06:37:14.000Z</time>
      </trkpt>
      <trkpt lat="49.33467" lon="0.85084">
        <ele>121.40000152588</ele>
        <time>2024-10-13T06:37:15.000Z</time>
      </trkpt>
      <trkpt lat="49.3347" lon="0.8508">
        <ele>121</ele>
        <time>2024-10-13T06:37:16.000Z</time>
      </trkpt>
      <trkpt lat="49.33472" lon="0.85077">
        <ele>120.59999847412</ele>
        <time>2024-10-13T06:37:17.000Z</time>
      </trkpt>
      <trkpt lat="49.33489" lon="0.85017">
        <ele>117</ele>
        <time>2024-10-13T06:37:29.000Z</time>
      </trkpt>
      <trkpt lat="49.33492" lon="0.85012">
        <ele>116.40000152588</ele>
        <time>2024-10-13T06:37:30.000Z</time>
      </trkpt>
      <trkpt lat="49.33504" lon="0.84991">
        <ele>115</ele>
        <time>2024-10-13T06:37:35.000Z</time>
      </trkpt>
      <trkpt lat="49.33507" lon="0.84987">
        <ele>115</ele>
        <time>2024-10-13T06:37:36.000Z</time>
      </trkpt>
      <trkpt lat="49.33513" lon="0.8498">
        <ele>115</ele>
        <time>2024-10-13T06:37:38.000Z</time>
      </trkpt>
      <trkpt lat="49.33523" lon="0.84961">
        <ele>115</ele>
        <time>2024-10-13T06:37:42.000Z</time>
      </trkpt>
      <trkpt lat="49.33527" lon="0.84949">
        <ele>115.19999694824</ele>
        <time>2024-10-13T06:37:44.000Z</time>
      </trkpt>
      <trkpt lat="49.3353" lon="0.84935">
        <ele>115.19999694824</ele>
        <time>2024-10-13T06:37:46.000Z</time>
      </trkpt>
      <trkpt lat="49.33542" lon="0.8491">
        <ele>114.80000305176</ele>
        <time>2024-10-13T06:37:51.000Z</time>
      </trkpt>
      <trkpt lat="49.33553" lon="0.84887">
        <ele>114.80000305176</ele>
        <time>2024-10-13T06:37:58.000Z</time>
      </trkpt>
      <trkpt lat="49.33556" lon="0.84886">
        <ele>115</ele>
        <time>2024-10-13T06:37:59.000Z</time>
      </trkpt>
      <trkpt lat="49.33563" lon="0.84876">
        <ele>115.19999694824</ele>
        <time>2024-10-13T06:38:02.000Z</time>
      </trkpt>
      <trkpt lat="49.33569" lon="0.84872">
        <ele>114.80000305176</ele>
        <time>2024-10-13T06:38:04.000Z</time>
      </trkpt>
      <trkpt lat="49.33577" lon="0.84869">
        <ele>114.19999694824</ele>
        <time>2024-10-13T06:38:06.000Z</time>
      </trkpt>
      <trkpt lat="49.33579" lon="0.84866">
        <ele>114.40000152588</ele>
        <time>2024-10-13T06:38:07.000Z</time>
      </trkpt>
      <trkpt lat="49.3359" lon="0.8485">
        <ele>115.59999847412</ele>
        <time>2024-10-13T06:38:11.000Z</time>
      </trkpt>
      <trkpt lat="49.33598" lon="0.84847">
        <ele>115.40000152588</ele>
        <time>2024-10-13T06:38:14.000Z</time>
      </trkpt>
      <trkpt lat="49.33609" lon="0.84851">
        <ele>115</ele>
        <time>2024-10-13T06:38:19.000Z</time>
      </trkpt>
      <trkpt lat="49.33627" lon="0.8493">
        <ele>115.19999694824</ele>
        <time>2024-10-13T06:38:33.000Z</time>
      </trkpt>
      <trkpt lat="49.33627" lon="0.84966">
        <ele>116.80000305176</ele>
        <time>2024-10-13T06:38:39.000Z</time>
      </trkpt>
      <trkpt lat="49.33627" lon="0.84972">
        <ele>117.40000152588</ele>
        <time>2024-10-13T06:38:40.000Z</time>
      </trkpt>
      <trkpt lat="49.33627" lon="0.84979">
        <ele>117.80000305176</ele>
        <time>2024-10-13T06:38:41.000Z</time>
      </trkpt>
      <trkpt lat="49.33625" lon="0.84997">
        <ele>119.59999847412</ele>
        <time>2024-10-13T06:38:44.000Z</time>
      </trkpt>
      <trkpt lat="49.33625" lon="0.85011">
        <ele>120.40000152588</ele>
        <time>2024-10-13T06:38:46.000Z</time>
      </trkpt>
      <trkpt lat="49.33619" lon="0.85094">
        <ele>130.60000610352</ele>
        <time>2024-10-13T06:38:58.000Z</time>
      </trkpt>
      <trkpt lat="49.33624" lon="0.85157">
        <ele>135.60000610352</ele>
        <time>2024-10-13T06:39:06.000Z</time>
      </trkpt>
      <trkpt lat="49.33624" lon="0.85169">
        <ele>135.60000610352</ele>
        <time>2024-10-13T06:39:08.000Z</time>
      </trkpt>
      <trkpt lat="49.33623" lon="0.85181">
        <ele>135.60000610352</ele>
        <time>2024-10-13T06:39:10.000Z</time>
      </trkpt>
      <trkpt lat="49.3362" lon="0.85199">
        <ele>135.80000305176</ele>
        <time>2024-10-13T06:39:13.000Z</time>
      </trkpt>
      <trkpt lat="49.3362" lon="0.85205">
        <ele>136</ele>
        <time>2024-10-13T06:39:14.000Z</time>
      </trkpt>
      <trkpt lat="49.33619" lon="0.85211">
        <ele>136</ele>
        <time>2024-10-13T06:39:15.000Z</time>
      </trkpt>
      <trkpt lat="49.33618" lon="0.85218">
        <ele>136</ele>
        <time>2024-10-13T06:39:16.000Z</time>
      </trkpt>
      <trkpt lat="49.33618" lon="0.85225">
        <ele>136</ele>
        <time>2024-10-13T06:39:17.000Z</time>
      </trkpt>
      <trkpt lat="49.33617" lon="0.85232">
        <ele>136</ele>
        <time>2024-10-13T06:39:18.000Z</time>
      </trkpt>
      <trkpt lat="49.33614" lon="0.85246">
        <ele>136</ele>
        <time>2024-10-13T06:39:20.000Z</time>
      </trkpt>
      <trkpt lat="49.33596" lon="0.85327">
        <ele>135.19999694824</ele>
        <time>2024-10-13T06:39:31.000Z</time>
      </trkpt>
      <trkpt lat="49.33595" lon="0.85349">
        <ele>134.39999389648</ele>
        <time>2024-10-13T06:39:34.000Z</time>
      </trkpt>
      <trkpt lat="49.33596" lon="0.85364">
        <ele>134</ele>
        <time>2024-10-13T06:39:36.000Z</time>
      </trkpt>
      <trkpt lat="49.33594" lon="0.85378">
        <ele>134.19999694824</ele>
        <time>2024-10-13T06:39:38.000Z</time>
      </trkpt>
      <trkpt lat="49.33584" lon="0.85465">
        <ele>135.39999389648</ele>
        <time>2024-10-13T06:39:50.000Z</time>
      </trkpt>
      <trkpt lat="49.33572" lon="0.85535">
        <ele>136.39999389648</ele>
        <time>2024-10-13T06:40:00.000Z</time>
      </trkpt>
      <trkpt lat="49.3357" lon="0.85559">
        <ele>136.39999389648</ele>
        <time>2024-10-13T06:40:03.000Z</time>
      </trkpt>
      <trkpt lat="49.33564" lon="0.85623">
        <ele>135.80000305176</ele>
        <time>2024-10-13T06:40:11.000Z</time>
      </trkpt>
      <trkpt lat="49.33557" lon="0.8568">
        <ele>134.60000610352</ele>
        <time>2024-10-13T06:40:21.000Z</time>
      </trkpt>
      <trkpt lat="49.3361" lon="0.85693">
        <ele>139.39999389648</ele>
        <time>2024-10-13T06:40:37.000Z</time>
      </trkpt>
      <trkpt lat="49.33626" lon="0.857">
        <ele>141</ele>
        <time>2024-10-13T06:40:41.000Z</time>
      </trkpt>
      <trkpt lat="49.33661" lon="0.85711">
        <ele>143.80000305176</ele>
        <time>2024-10-13T06:40:50.000Z</time>
      </trkpt>
      <trkpt lat="49.33712" lon="0.85729">
        <ele>144.19999694824</ele>
        <time>2024-10-13T06:41:04.000Z</time>
      </trkpt>
      <trkpt lat="49.33762" lon="0.85747">
        <ele>141.19999694824</ele>
        <time>2024-10-13T06:41:19.000Z</time>
      </trkpt>
      <trkpt lat="49.33807" lon="0.85767">
        <ele>135.60000610352</ele>
        <time>2024-10-13T06:41:37.000Z</time>
      </trkpt>
      <trkpt lat="49.33825" lon="0.85765">
        <ele>134.39999389648</ele>
        <time>2024-10-13T06:41:43.000Z</time>
      </trkpt>
      <trkpt lat="49.3383" lon="0.85829">
        <ele>134.80000305176</ele>
        <time>2024-10-13T06:41:57.000Z</time>
      </trkpt>
      <trkpt lat="49.33825" lon="0.85916">
        <ele>135.60000610352</ele>
        <time>2024-10-13T06:42:08.000Z</time>
      </trkpt>
      <trkpt lat="49.3381" lon="0.85974">
        <ele>136.60000610352</ele>
        <time>2024-10-13T06:42:15.000Z</time>
      </trkpt>
      <trkpt lat="49.33777" lon="0.86045">
        <ele>135.60000610352</ele>
        <time>2024-10-13T06:42:25.000Z</time>
      </trkpt>
      <trkpt lat="49.33753" lon="0.86071">
        <ele>134</ele>
        <time>2024-10-13T06:42:30.000Z</time>
      </trkpt>
      <trkpt lat="49.33739" lon="0.86088">
        <ele>133.19999694824</ele>
        <time>2024-10-13T06:42:33.000Z</time>
      </trkpt>
      <trkpt lat="49.33725" lon="0.86101">
        <ele>133.39999389648</ele>
        <time>2024-10-13T06:42:36.000Z</time>
      </trkpt>
      <trkpt lat="49.33721" lon="0.86139">
        <ele>131.80000305176</ele>
        <time>2024-10-13T06:42:43.000Z</time>
      </trkpt>
      <trkpt lat="49.33715" lon="0.86187">
        <ele>133</ele>
        <time>2024-10-13T06:42:50.000Z</time>
      </trkpt>
      <trkpt lat="49.33713" lon="0.86225">
        <ele>135</ele>
        <time>2024-10-13T06:42:54.000Z</time>
      </trkpt>
      <trkpt lat="49.33717" lon="0.86246">
        <ele>135.60000610352</ele>
        <time>2024-10-13T06:42:56.000Z</time>
      </trkpt>
      <trkpt lat="49.33723" lon="0.86264">
        <ele>136.39999389648</ele>
        <time>2024-10-13T06:42:58.000Z</time>
      </trkpt>
      <trkpt lat="49.3373" lon="0.8628">
        <ele>137.60000610352</ele>
        <time>2024-10-13T06:43:00.000Z</time>
      </trkpt>
      <trkpt lat="49.33754" lon="0.86339">
        <ele>142.19999694824</ele>
        <time>2024-10-13T06:43:07.000Z</time>
      </trkpt>
      <trkpt lat="49.33759" lon="0.86379">
        <ele>140.80000305176</ele>
        <time>2024-10-13T06:43:11.000Z</time>
      </trkpt>
      <trkpt lat="49.33779" lon="0.8646">
        <ele>137.80000305176</ele>
        <time>2024-10-13T06:43:19.000Z</time>
      </trkpt>
      <trkpt lat="49.33787" lon="0.86477">
        <ele>137.19999694824</ele>
        <time>2024-10-13T06:43:21.000Z</time>
      </trkpt>
      <trkpt lat="49.33823" lon="0.86544">
        <ele>134.60000610352</ele>
        <time>2024-10-13T06:43:29.000Z</time>
      </trkpt>
      <trkpt lat="49.33831" lon="0.86561">
        <ele>133.80000305176</ele>
        <time>2024-10-13T06:43:31.000Z</time>
      </trkpt>
      <trkpt lat="49.33839" lon="0.8658">
        <ele>132.39999389648</ele>
        <time>2024-10-13T06:43:33.000Z</time>
      </trkpt>
      <trkpt lat="49.3385" lon="0.86608">
        <ele>130.80000305176</ele>
        <time>2024-10-13T06:43:36.000Z</time>
      </trkpt>
      <trkpt lat="49.33858" lon="0.86625">
        <ele>130</ele>
        <time>2024-10-13T06:43:38.000Z</time>
      </trkpt>
      <trkpt lat="49.33862" lon="0.86633">
        <ele>130</ele>
        <time>2024-10-13T06:43:39.000Z</time>
      </trkpt>
      <trkpt lat="49.33876" lon="0.86658">
        <ele>129.60000610352</ele>
        <time>2024-10-13T06:43:42.000Z</time>
      </trkpt>
      <trkpt lat="49.33891" lon="0.86682">
        <ele>128.80000305176</ele>
        <time>2024-10-13T06:43:45.000Z</time>
      </trkpt>
      <trkpt lat="49.33925" lon="0.86749">
        <ele>128.19999694824</ele>
        <time>2024-10-13T06:43:52.000Z</time>
      </trkpt>
      <trkpt lat="49.33941" lon="0.86788">
        <ele>128</ele>
        <time>2024-10-13T06:43:57.000Z</time>
      </trkpt>
      <trkpt lat="49.33961" lon="0.86802">
        <ele>126.80000305176</ele>
        <time>2024-10-13T06:44:01.000Z</time>
      </trkpt>
      <trkpt lat="49.3398" lon="0.86811">
        <ele>125.19999694824</ele>
        <time>2024-10-13T06:44:05.000Z</time>
      </trkpt>
      <trkpt lat="49.34035" lon="0.86833">
        <ele>121</ele>
        <time>2024-10-13T06:44:15.000Z</time>
      </trkpt>
      <trkpt lat="49.34089" lon="0.86855">
        <ele>119.19999694824</ele>
        <time>2024-10-13T06:44:24.000Z</time>
      </trkpt>
      <trkpt lat="49.34138" lon="0.86872">
        <ele>115.59999847412</ele>
        <time>2024-10-13T06:44:34.000Z</time>
      </trkpt>
      <trkpt lat="49.34148" lon="0.86875">
        <ele>114.19999694824</ele>
        <time>2024-10-13T06:44:36.000Z</time>
      </trkpt>
      <trkpt lat="49.34153" lon="0.86877">
        <ele>113.59999847412</ele>
        <time>2024-10-13T06:44:37.000Z</time>
      </trkpt>
      <trkpt lat="49.34158" lon="0.86878">
        <ele>112.80000305176</ele>
        <time>2024-10-13T06:44:38.000Z</time>
      </trkpt>
      <trkpt lat="49.34164" lon="0.8688">
        <ele>112.19999694824</ele>
        <time>2024-10-13T06:44:39.000Z</time>
      </trkpt>
      <trkpt lat="49.34187" lon="0.86892">
        <ele>110.19999694824</ele>
        <time>2024-10-13T06:44:43.000Z</time>
      </trkpt>
      <trkpt lat="49.34193" lon="0.86896">
        <ele>109.59999847412</ele>
        <time>2024-10-13T06:44:44.000Z</time>
      </trkpt>
      <trkpt lat="49.34199" lon="0.86899">
        <ele>109</ele>
        <time>2024-10-13T06:44:45.000Z</time>
      </trkpt>
      <trkpt lat="49.34207" lon="0.86902">
        <ele>108.19999694824</ele>
        <time>2024-10-13T06:44:46.000Z</time>
      </trkpt>
      <trkpt lat="49.34227" lon="0.86913">
        <ele>106</ele>
        <time>2024-10-13T06:44:49.000Z</time>
      </trkpt>
      <trkpt lat="49.34239" lon="0.8692">
        <ele>104.80000305176</ele>
        <time>2024-10-13T06:44:51.000Z</time>
      </trkpt>
      <trkpt lat="49.34255" lon="0.86914">
        <ele>103.40000152588</ele>
        <time>2024-10-13T06:44:56.000Z</time>
      </trkpt>
      <trkpt lat="49.34262" lon="0.86903">
        <ele>102.80000305176</ele>
        <time>2024-10-13T06:44:58.000Z</time>
      </trkpt>
      <trkpt lat="49.34286" lon="0.86889">
        <ele>101.59999847412</ele>
        <time>2024-10-13T06:45:10.000Z</time>
      </trkpt>
      <trkpt lat="49.34293" lon="0.86893">
        <ele>101.80000305176</ele>
        <time>2024-10-13T06:45:14.000Z</time>
      </trkpt>
      <trkpt lat="49.34295" lon="0.86898">
        <ele>102</ele>
        <time>2024-10-13T06:45:16.000Z</time>
      </trkpt>
      <trkpt lat="49.34319" lon="0.86911">
        <ele>104.59999847412</ele>
        <time>2024-10-13T06:45:24.000Z</time>
      </trkpt>
      <trkpt lat="49.34357" lon="0.86856">
        <ele>112.40000152588</ele>
        <time>2024-10-13T06:46:05.000Z</time>
      </trkpt>
      <trkpt lat="49.34361" lon="0.86849">
        <ele>113.40000152588</ele>
        <time>2024-10-13T06:46:10.000Z</time>
      </trkpt>
      <trkpt lat="49.34364" lon="0.86833">
        <ele>115.19999694824</ele>
        <time>2024-10-13T06:46:20.000Z</time>
      </trkpt>
      <trkpt lat="49.34364" lon="0.86823">
        <ele>115.80000305176</ele>
        <time>2024-10-13T06:46:23.000Z</time>
      </trkpt>
      <trkpt lat="49.34368" lon="0.86777">
        <ele>117.40000152588</ele>
        <time>2024-10-13T06:46:40.000Z</time>
      </trkpt>
      <trkpt lat="49.34376" lon="0.86734">
        <ele>119.80000305176</ele>
        <time>2024-10-13T06:46:55.000Z</time>
      </trkpt>
      <trkpt lat="49.34381" lon="0.86728">
        <ele>120.59999847412</ele>
        <time>2024-10-13T06:46:59.000Z</time>
      </trkpt>
      <trkpt lat="49.34383" lon="0.86728">
        <ele>120.80000305176</ele>
        <time>2024-10-13T06:47:00.000Z</time>
      </trkpt>
      <trkpt lat="49.34384" lon="0.86729">
        <ele>121</ele>
        <time>2024-10-13T06:47:01.000Z</time>
      </trkpt>
      <trkpt lat="49.34386" lon="0.86729">
        <ele>121</ele>
        <time>2024-10-13T06:47:02.000Z</time>
      </trkpt>
      <trkpt lat="49.34386" lon="0.86729">
        <ele>121.19999694824</ele>
        <time>2024-10-13T06:47:03.000Z</time>
      </trkpt>
      <trkpt lat="49.34387" lon="0.86728">
        <ele>121.19999694824</ele>
        <time>2024-10-13T06:47:04.000Z</time>
      </trkpt>
      <trkpt lat="49.34398" lon="0.86733">
        <ele>122</ele>
        <time>2024-10-13T06:47:08.000Z</time>
      </trkpt>
      <trkpt lat="49.344" lon="0.86733">
        <ele>122</ele>
        <time>2024-10-13T06:47:09.000Z</time>
      </trkpt>
      <trkpt lat="49.34403" lon="0.86735">
        <ele>122.40000152588</ele>
        <time>2024-10-13T06:47:10.000Z</time>
      </trkpt>
      <trkpt lat="49.34406" lon="0.86736">
        <ele>122.59999847412</ele>
        <time>2024-10-13T06:47:11.000Z</time>
      </trkpt>
      <trkpt lat="49.34409" lon="0.86738">
        <ele>122.80000305176</ele>
        <time>2024-10-13T06:47:12.000Z</time>
      </trkpt>
      <trkpt lat="49.34416" lon="0.86741">
        <ele>123.19999694824</ele>
        <time>2024-10-13T06:47:15.000Z</time>
      </trkpt>
      <trkpt lat="49.34419" lon="0.86742">
        <ele>123.19999694824</ele>
        <time>2024-10-13T06:47:16.000Z</time>
      </trkpt>
      <trkpt lat="49.34421" lon="0.86744">
        <ele>123.40000152588</ele>
        <time>2024-10-13T06:47:17.000Z</time>
      </trkpt>
      <trkpt lat="49.34425" lon="0.86747">
        <ele>123.40000152588</ele>
        <time>2024-10-13T06:47:19.000Z</time>
      </trkpt>
      <trkpt lat="49.34428" lon="0.86749">
        <ele>123.59999847412</ele>
        <time>2024-10-13T06:47:20.000Z</time>
      </trkpt>
      <trkpt lat="49.34429" lon="0.8675">
        <ele>123.59999847412</ele>
        <time>2024-10-13T06:47:21.000Z</time>
      </trkpt>
      <trkpt lat="49.34432" lon="0.86752">
        <ele>123.59999847412</ele>
        <time>2024-10-13T06:47:22.000Z</time>
      </trkpt>
      <trkpt lat="49.34448" lon="0.86791">
        <ele>125.19999694824</ele>
        <time>2024-10-13T06:47:33.000Z</time>
      </trkpt>
      <trkpt lat="49.3445" lon="0.86795">
        <ele>125.40000152588</ele>
        <time>2024-10-13T06:47:34.000Z</time>
      </trkpt>
      <trkpt lat="49.34463" lon="0.86836">
        <ele>125.59999847412</ele>
        <time>2024-10-13T06:47:43.000Z</time>
      </trkpt>
      <trkpt lat="49.34464" lon="0.86842">
        <ele>125.80000305176</ele>
        <time>2024-10-13T06:47:44.000Z</time>
      </trkpt>
      <trkpt lat="49.34465" lon="0.86849">
        <ele>125.80000305176</ele>
        <time>2024-10-13T06:47:45.000Z</time>
      </trkpt>
      <trkpt lat="49.34468" lon="0.86864">
        <ele>126</ele>
        <time>2024-10-13T06:47:47.000Z</time>
      </trkpt>
      <trkpt lat="49.34471" lon="0.86887">
        <ele>125.40000152588</ele>
        <time>2024-10-13T06:47:50.000Z</time>
      </trkpt>
      <trkpt lat="49.34475" lon="0.86919">
        <ele>123.59999847412</ele>
        <time>2024-10-13T06:47:55.000Z</time>
      </trkpt>
      <trkpt lat="49.34477" lon="0.86927">
        <ele>123</ele>
        <time>2024-10-13T06:47:56.000Z</time>
      </trkpt>
      <trkpt lat="49.3448" lon="0.86943">
        <ele>122.40000152588</ele>
        <time>2024-10-13T06:47:58.000Z</time>
      </trkpt>
      <trkpt lat="49.34481" lon="0.86958">
        <ele>122</ele>
        <time>2024-10-13T06:48:00.000Z</time>
      </trkpt>
      <trkpt lat="49.3448" lon="0.86965">
        <ele>122</ele>
        <time>2024-10-13T06:48:01.000Z</time>
      </trkpt>
      <trkpt lat="49.34478" lon="0.86985">
        <ele>121.40000152588</ele>
        <time>2024-10-13T06:48:04.000Z</time>
      </trkpt>
      <trkpt lat="49.34471" lon="0.87019">
        <ele>121.19999694824</ele>
        <time>2024-10-13T06:48:09.000Z</time>
      </trkpt>
      <trkpt lat="49.3447" lon="0.87069">
        <ele>121.19999694824</ele>
        <time>2024-10-13T06:48:16.000Z</time>
      </trkpt>
      <trkpt lat="49.34469" lon="0.87119">
        <ele>121.19999694824</ele>
        <time>2024-10-13T06:48:22.000Z</time>
      </trkpt>
      <trkpt lat="49.34462" lon="0.87167">
        <ele>121.40000152588</ele>
        <time>2024-10-13T06:48:28.000Z</time>
      </trkpt>
      <trkpt lat="49.34461" lon="0.87192">
        <ele>121.40000152588</ele>
        <time>2024-10-13T06:48:31.000Z</time>
      </trkpt>
      <trkpt lat="49.34448" lon="0.87271">
        <ele>118.80000305176</ele>
        <time>2024-10-13T06:48:40.000Z</time>
      </trkpt>
      <trkpt lat="49.34446" lon="0.87278">
        <ele>118.59999847412</ele>
        <time>2024-10-13T06:48:41.000Z</time>
      </trkpt>
      <trkpt lat="49.34444" lon="0.87293">
        <ele>118</ele>
        <time>2024-10-13T06:48:43.000Z</time>
      </trkpt>
      <trkpt lat="49.34462" lon="0.87369">
        <ele>116</ele>
        <time>2024-10-13T06:48:56.000Z</time>
      </trkpt>
      <trkpt lat="49.34467" lon="0.87394">
        <ele>116.19999694824</ele>
        <time>2024-10-13T06:49:00.000Z</time>
      </trkpt>
      <trkpt lat="49.34469" lon="0.87405">
        <ele>116.19999694824</ele>
        <time>2024-10-13T06:49:02.000Z</time>
      </trkpt>
      <trkpt lat="49.34471" lon="0.87412">
        <ele>116.59999847412</ele>
        <time>2024-10-13T06:49:03.000Z</time>
      </trkpt>
      <trkpt lat="49.34481" lon="0.87456">
        <ele>117</ele>
        <time>2024-10-13T06:49:10.000Z</time>
      </trkpt>
      <trkpt lat="49.34499" lon="0.87521">
        <ele>119.40000152588</ele>
        <time>2024-10-13T06:49:21.000Z</time>
      </trkpt>
      <trkpt lat="49.34501" lon="0.87533">
        <ele>119.59999847412</ele>
        <time>2024-10-13T06:49:23.000Z</time>
      </trkpt>
      <trkpt lat="49.34528" lon="0.87611">
        <ele>119</ele>
        <time>2024-10-13T06:49:37.000Z</time>
      </trkpt>
      <trkpt lat="49.34557" lon="0.87679">
        <ele>118.19999694824</ele>
        <time>2024-10-13T06:49:49.000Z</time>
      </trkpt>
      <trkpt lat="49.34567" lon="0.87684">
        <ele>118.59999847412</ele>
        <time>2024-10-13T06:49:51.000Z</time>
      </trkpt>
      <trkpt lat="49.34628" lon="0.87696">
        <ele>121.40000152588</ele>
        <time>2024-10-13T06:50:01.000Z</time>
      </trkpt>
      <trkpt lat="49.34685" lon="0.87707">
        <ele>122.80000305176</ele>
        <time>2024-10-13T06:50:11.000Z</time>
      </trkpt>
      <trkpt lat="49.34691" lon="0.87705">
        <ele>123</ele>
        <time>2024-10-13T06:50:12.000Z</time>
      </trkpt>
      <trkpt lat="49.34704" lon="0.87709">
        <ele>123.59999847412</ele>
        <time>2024-10-13T06:50:15.000Z</time>
      </trkpt>
      <trkpt lat="49.34742" lon="0.87748">
        <ele>126.40000152588</ele>
        <time>2024-10-13T06:50:26.000Z</time>
      </trkpt>
      <trkpt lat="49.34766" lon="0.87758">
        <ele>125.40000152588</ele>
        <time>2024-10-13T06:50:32.000Z</time>
      </trkpt>
      <trkpt lat="49.34787" lon="0.87776">
        <ele>124.19999694824</ele>
        <time>2024-10-13T06:50:36.000Z</time>
      </trkpt>
      <trkpt lat="49.34796" lon="0.87788">
        <ele>123.59999847412</ele>
        <time>2024-10-13T06:50:38.000Z</time>
      </trkpt>
      <trkpt lat="49.34802" lon="0.87802">
        <ele>123</ele>
        <time>2024-10-13T06:50:40.000Z</time>
      </trkpt>
      <trkpt lat="49.34804" lon="0.87815">
        <ele>122.80000305176</ele>
        <time>2024-10-13T06:50:42.000Z</time>
      </trkpt>
      <trkpt lat="49.34806" lon="0.87858">
        <ele>121</ele>
        <time>2024-10-13T06:50:48.000Z</time>
      </trkpt>
      <trkpt lat="49.34824" lon="0.8791">
        <ele>118.59999847412</ele>
        <time>2024-10-13T06:50:57.000Z</time>
      </trkpt>
      <trkpt lat="49.34858" lon="0.87979">
        <ele>120</ele>
        <time>2024-10-13T06:51:11.000Z</time>
      </trkpt>
      <trkpt lat="49.34863" lon="0.88051">
        <ele>121</ele>
        <time>2024-10-13T06:51:22.000Z</time>
      </trkpt>
      <trkpt lat="49.34859" lon="0.88101">
        <ele>121</ele>
        <time>2024-10-13T06:51:29.000Z</time>
      </trkpt>
      <trkpt lat="49.34842" lon="0.8817">
        <ele>121.19999694824</ele>
        <time>2024-10-13T06:51:38.000Z</time>
      </trkpt>
      <trkpt lat="49.34831" lon="0.88189">
        <ele>121.19999694824</ele>
        <time>2024-10-13T06:51:41.000Z</time>
      </trkpt>
      <trkpt lat="49.34814" lon="0.8821">
        <ele>121</ele>
        <time>2024-10-13T06:51:45.000Z</time>
      </trkpt>
      <trkpt lat="49.34807" lon="0.88217">
        <ele>121</ele>
        <time>2024-10-13T06:51:47.000Z</time>
      </trkpt>
      <trkpt lat="49.3478" lon="0.88209">
        <ele>121</ele>
        <time>2024-10-13T06:51:56.000Z</time>
      </trkpt>
      <trkpt lat="49.34778" lon="0.88209">
        <ele>121</ele>
        <time>2024-10-13T06:51:57.000Z</time>
      </trkpt>
      <trkpt lat="49.34762" lon="0.88217">
        <ele>121.80000305176</ele>
        <time>2024-10-13T06:52:04.000Z</time>
      </trkpt>
      <trkpt lat="49.34757" lon="0.88219">
        <ele>122.19999694824</ele>
        <time>2024-10-13T06:52:06.000Z</time>
      </trkpt>
      <trkpt lat="49.3475" lon="0.88221">
        <ele>122.80000305176</ele>
        <time>2024-10-13T06:52:09.000Z</time>
      </trkpt>
      <trkpt lat="49.34732" lon="0.88236">
        <ele>124</ele>
        <time>2024-10-13T06:52:16.000Z</time>
      </trkpt>
      <trkpt lat="49.34704" lon="0.88281">
        <ele>124.59999847412</ele>
        <time>2024-10-13T06:52:26.000Z</time>
      </trkpt>
      <trkpt lat="49.34688" lon="0.88362">
        <ele>120.19999694824</ele>
        <time>2024-10-13T06:52:38.000Z</time>
      </trkpt>
      <trkpt lat="49.34679" lon="0.88405">
        <ele>119.40000152588</ele>
        <time>2024-10-13T06:52:44.000Z</time>
      </trkpt>
      <trkpt lat="49.34669" lon="0.88436">
        <ele>119.80000305176</ele>
        <time>2024-10-13T06:52:48.000Z</time>
      </trkpt>
      <trkpt lat="49.34665" lon="0.88465">
        <ele>120.40000152588</ele>
        <time>2024-10-13T06:52:52.000Z</time>
      </trkpt>
      <trkpt lat="49.34653" lon="0.88548">
        <ele>119.40000152588</ele>
        <time>2024-10-13T06:53:12.000Z</time>
      </trkpt>
      <trkpt lat="49.34639" lon="0.88598">
        <ele>120.40000152588</ele>
        <time>2024-10-13T06:53:21.000Z</time>
      </trkpt>
      <trkpt lat="49.34635" lon="0.88617">
        <ele>120.80000305176</ele>
        <time>2024-10-13T06:53:25.000Z</time>
      </trkpt>
      <trkpt lat="49.34624" lon="0.8865">
        <ele>120.80000305176</ele>
        <time>2024-10-13T06:53:32.000Z</time>
      </trkpt>
      <trkpt lat="49.34605" lon="0.88734">
        <ele>122</ele>
        <time>2024-10-13T06:53:45.000Z</time>
      </trkpt>
      <trkpt lat="49.34602" lon="0.8874">
        <ele>121.80000305176</ele>
        <time>2024-10-13T06:53:46.000Z</time>
      </trkpt>
      <trkpt lat="49.34596" lon="0.88751">
        <ele>121.59999847412</ele>
        <time>2024-10-13T06:53:48.000Z</time>
      </trkpt>
      <trkpt lat="49.34584" lon="0.88773">
        <ele>121.19999694824</ele>
        <time>2024-10-13T06:53:52.000Z</time>
      </trkpt>
      <trkpt lat="49.34553" lon="0.88846">
        <ele>120</ele>
        <time>2024-10-13T06:54:07.000Z</time>
      </trkpt>
      <trkpt lat="49.34542" lon="0.88878">
        <ele>119.40000152588</ele>
        <time>2024-10-13T06:54:22.000Z</time>
      </trkpt>
      <trkpt lat="49.34535" lon="0.88887">
        <ele>118.80000305176</ele>
        <time>2024-10-13T06:54:26.000Z</time>
      </trkpt>
      <trkpt lat="49.34513" lon="0.88927">
        <ele>118.40000152588</ele>
        <time>2024-10-13T06:54:43.000Z</time>
      </trkpt>
      <trkpt lat="49.34506" lon="0.88935">
        <ele>119</ele>
        <time>2024-10-13T06:54:47.000Z</time>
      </trkpt>
      <trkpt lat="49.34483" lon="0.88959">
        <ele>120.80000305176</ele>
        <time>2024-10-13T06:54:58.000Z</time>
      </trkpt>
      <trkpt lat="49.3446" lon="0.88987">
        <ele>122.80000305176</ele>
        <time>2024-10-13T06:55:09.000Z</time>
      </trkpt>
      <trkpt lat="49.34436" lon="0.89021">
        <ele>123</ele>
        <time>2024-10-13T06:55:20.000Z</time>
      </trkpt>
      <trkpt lat="49.34424" lon="0.89047">
        <ele>121.80000305176</ele>
        <time>2024-10-13T06:55:26.000Z</time>
      </trkpt>
      <trkpt lat="49.3441" lon="0.89128">
        <ele>122.40000152588</ele>
        <time>2024-10-13T06:55:43.000Z</time>
      </trkpt>
      <trkpt lat="49.34412" lon="0.89149">
        <ele>123</ele>
        <time>2024-10-13T06:55:49.000Z</time>
      </trkpt>
      <trkpt lat="49.34422" lon="0.89233">
        <ele>117</ele>
        <time>2024-10-13T06:56:08.000Z</time>
      </trkpt>
      <trkpt lat="49.34435" lon="0.89318">
        <ele>120.80000305176</ele>
        <time>2024-10-13T06:56:23.000Z</time>
      </trkpt>
      <trkpt lat="49.34463" lon="0.8939">
        <ele>125.19999694824</ele>
        <time>2024-10-13T06:56:39.000Z</time>
      </trkpt>
      <trkpt lat="49.34477" lon="0.89432">
        <ele>123.80000305176</ele>
        <time>2024-10-13T06:56:51.000Z</time>
      </trkpt>
      <trkpt lat="49.3448" lon="0.89438">
        <ele>123.19999694824</ele>
        <time>2024-10-13T06:56:55.000Z</time>
      </trkpt>
      <trkpt lat="49.34484" lon="0.89448">
        <ele>122.59999847412</ele>
        <time>2024-10-13T06:57:00.000Z</time>
      </trkpt>
      <trkpt lat="49.34495" lon="0.8946">
        <ele>121.59999847412</ele>
        <time>2024-10-13T06:57:10.000Z</time>
      </trkpt>
      <trkpt lat="49.34492" lon="0.89492">
        <ele>117.40000152588</ele>
        <time>2024-10-13T06:57:25.000Z</time>
      </trkpt>
      <trkpt lat="49.3449" lon="0.89492">
        <ele>117.40000152588</ele>
        <time>2024-10-13T06:57:26.000Z</time>
      </trkpt>
      <trkpt lat="49.34484" lon="0.89495">
        <ele>117</ele>
        <time>2024-10-13T06:57:30.000Z</time>
      </trkpt>
      <trkpt lat="49.34457" lon="0.89523">
        <ele>110.40000152588</ele>
        <time>2024-10-13T06:57:44.000Z</time>
      </trkpt>
      <trkpt lat="49.34442" lon="0.89545">
        <ele>104.40000152588</ele>
        <time>2024-10-13T06:57:56.000Z</time>
      </trkpt>
      <trkpt lat="49.34441" lon="0.89553">
        <ele>101.80000305176</ele>
        <time>2024-10-13T06:57:59.000Z</time>
      </trkpt>
      <trkpt lat="49.34423" lon="0.89579">
        <ele>91.400001525879</ele>
        <time>2024-10-13T06:58:07.000Z</time>
      </trkpt>
      <trkpt lat="49.34412" lon="0.89606">
        <ele>85.599998474121</ele>
        <time>2024-10-13T06:58:18.000Z</time>
      </trkpt>
      <trkpt lat="49.34369" lon="0.89661">
        <ele>77</ele>
        <time>2024-10-13T06:58:34.000Z</time>
      </trkpt>
      <trkpt lat="49.34336" lon="0.89692">
        <ele>76</ele>
        <time>2024-10-13T06:58:47.000Z</time>
      </trkpt>
      <trkpt lat="49.3432" lon="0.89701">
        <ele>76.599998474121</ele>
        <time>2024-10-13T06:58:53.000Z</time>
      </trkpt>
      <trkpt lat="49.34311" lon="0.89706">
        <ele>76</ele>
        <time>2024-10-13T06:58:56.000Z</time>
      </trkpt>
      <trkpt lat="49.343" lon="0.89708">
        <ele>76</ele>
        <time>2024-10-13T06:59:01.000Z</time>
      </trkpt>
      <trkpt lat="49.34292" lon="0.89708">
        <ele>76.400001525879</ele>
        <time>2024-10-13T06:59:03.000Z</time>
      </trkpt>
      <trkpt lat="49.34285" lon="0.89707">
        <ele>76.599998474121</ele>
        <time>2024-10-13T06:59:06.000Z</time>
      </trkpt>
      <trkpt lat="49.3427" lon="0.89707">
        <ele>76.800003051758</ele>
        <time>2024-10-13T06:59:11.000Z</time>
      </trkpt>
      <trkpt lat="49.34267" lon="0.89705">
        <ele>76.800003051758</ele>
        <time>2024-10-13T06:59:12.000Z</time>
      </trkpt>
      <trkpt lat="49.34242" lon="0.89698">
        <ele>76.800003051758</ele>
        <time>2024-10-13T06:59:21.000Z</time>
      </trkpt>
      <trkpt lat="49.34226" lon="0.89682">
        <ele>78.599998474121</ele>
        <time>2024-10-13T06:59:30.000Z</time>
      </trkpt>
      <trkpt lat="49.34211" lon="0.89664">
        <ele>80.400001525879</ele>
        <time>2024-10-13T06:59:38.000Z</time>
      </trkpt>
      <trkpt lat="49.3419" lon="0.89625">
        <ele>82.800003051758</ele>
        <time>2024-10-13T06:59:51.000Z</time>
      </trkpt>
      <trkpt lat="49.34143" lon="0.89581">
        <ele>81.599998474121</ele>
        <time>2024-10-13T07:00:03.000Z</time>
      </trkpt>
      <trkpt lat="49.34098" lon="0.89534">
        <ele>79.400001525879</ele>
        <time>2024-10-13T07:00:17.000Z</time>
      </trkpt>
      <trkpt lat="49.34073" lon="0.89502">
        <ele>79.400001525879</ele>
        <time>2024-10-13T07:00:26.000Z</time>
      </trkpt>
      <trkpt lat="49.3407" lon="0.89501">
        <ele>79.400001525879</ele>
        <time>2024-10-13T07:00:28.000Z</time>
      </trkpt>
      <trkpt lat="49.34065" lon="0.89497">
        <ele>79</ele>
        <time>2024-10-13T07:00:31.000Z</time>
      </trkpt>
      <trkpt lat="49.3405" lon="0.8948">
        <ele>78</ele>
        <time>2024-10-13T07:00:37.000Z</time>
      </trkpt>
      <trkpt lat="49.34" lon="0.89444">
        <ele>78.199996948242</ele>
        <time>2024-10-13T07:00:54.000Z</time>
      </trkpt>
      <trkpt lat="49.33973" lon="0.89435">
        <ele>76.400001525879</ele>
        <time>2024-10-13T07:01:00.000Z</time>
      </trkpt>
      <trkpt lat="49.33969" lon="0.89434">
        <ele>76.199996948242</ele>
        <time>2024-10-13T07:01:01.000Z</time>
      </trkpt>
      <trkpt lat="49.33965" lon="0.89432">
        <ele>76.199996948242</ele>
        <time>2024-10-13T07:01:02.000Z</time>
      </trkpt>
      <trkpt lat="49.33942" lon="0.89425">
        <ele>76</ele>
        <time>2024-10-13T07:01:07.000Z</time>
      </trkpt>
      <trkpt lat="49.33937" lon="0.89424">
        <ele>76.199996948242</ele>
        <time>2024-10-13T07:01:08.000Z</time>
      </trkpt>
      <trkpt lat="49.33933" lon="0.89423">
        <ele>76.599998474121</ele>
        <time>2024-10-13T07:01:09.000Z</time>
      </trkpt>
      <trkpt lat="49.33929" lon="0.89423">
        <ele>76.800003051758</ele>
        <time>2024-10-13T07:01:10.000Z</time>
      </trkpt>
      <trkpt lat="49.33903" lon="0.89418">
        <ele>78</ele>
        <time>2024-10-13T07:01:16.000Z</time>
      </trkpt>
      <trkpt lat="49.33899" lon="0.89416">
        <ele>78</ele>
        <time>2024-10-13T07:01:17.000Z</time>
      </trkpt>
      <trkpt lat="49.33884" lon="0.89414">
        <ele>78</ele>
        <time>2024-10-13T07:01:21.000Z</time>
      </trkpt>
      <trkpt lat="49.33873" lon="0.8941">
        <ele>78</ele>
        <time>2024-10-13T07:01:24.000Z</time>
      </trkpt>
      <trkpt lat="49.33868" lon="0.89404">
        <ele>78</ele>
        <time>2024-10-13T07:01:28.000Z</time>
      </trkpt>
      <trkpt lat="49.33864" lon="0.8941">
        <ele>77.800003051758</ele>
        <time>2024-10-13T07:01:39.000Z</time>
      </trkpt>
      <trkpt lat="49.33864" lon="0.89411">
        <ele>77.800003051758</ele>
        <time>2024-10-13T07:01:43.000Z</time>
      </trkpt>
      <trkpt lat="49.33864" lon="0.89411">
        <ele>77.800003051758</ele>
        <time>2024-10-13T07:01:53.000Z</time>
      </trkpt>
      <trkpt lat="49.33864" lon="0.89411">
        <ele>77.800003051758</ele>
        <time>2024-10-13T07:01:57.000Z</time>
      </trkpt>
      <trkpt lat="49.33864" lon="0.89411">
        <ele>77.800003051758</ele>
        <time>2024-10-13T07:02:01.000Z</time>
      </trkpt>
      <trkpt lat="49.33864" lon="0.89411">
        <ele>77.800003051758</ele>
        <time>2024-10-13T07:02:02.000Z</time>
      </trkpt>
      <trkpt lat="49.33864" lon="0.89411">
        <ele>77.800003051758</ele>
        <time>2024-10-13T07:02:03.000Z</time>
      </trkpt>
      <trkpt lat="49.33864" lon="0.89411">
        <ele>77.800003051758</ele>
        <time>2024-10-13T07:02:04.000Z</time>
      </trkpt>
      <trkpt lat="49.33864" lon="0.89411">
        <ele>77.800003051758</ele>
        <time>2024-10-13T07:02:26.000Z</time>
      </trkpt>
      <trkpt lat="49.33864" lon="0.89411">
        <ele>77.800003051758</ele>
        <time>2024-10-13T07:02:31.000Z</time>
      </trkpt>
      <trkpt lat="49.33864" lon="0.89411">
        <ele>77.800003051758</ele>
        <time>2024-10-13T07:02:37.000Z</time>
      </trkpt>
      <trkpt lat="49.33864" lon="0.89411">
        <ele>77.800003051758</ele>
        <time>2024-10-13T07:02:45.000Z</time>
      </trkpt>
      <trkpt lat="49.33864" lon="0.89411">
        <ele>77.800003051758</ele>
        <time>2024-10-13T07:03:01.000Z</time>
      </trkpt>
      <trkpt lat="49.33864" lon="0.89411">
        <ele>77.800003051758</ele>
        <time>2024-10-13T07:03:20.000Z</time>
      </trkpt>
      <trkpt lat="49.33864" lon="0.89411">
        <ele>77.800003051758</ele>
        <time>2024-10-13T07:03:30.000Z</time>
      </trkpt>
      <trkpt lat="49.33864" lon="0.89411">
        <ele>77.800003051758</ele>
        <time>2024-10-13T07:03:38.000Z</time>
      </trkpt>
      <trkpt lat="49.33864" lon="0.89411">
        <ele>77.800003051758</ele>
        <time>2024-10-13T07:04:12.000Z</time>
      </trkpt>
      <trkpt lat="49.33864" lon="0.89411">
        <ele>77.800003051758</ele>
        <time>2024-10-13T07:04:18.000Z</time>
      </trkpt>
      <trkpt lat="49.33864" lon="0.89411">
        <ele>77.800003051758</ele>
        <time>2024-10-13T07:04:38.000Z</time>
      </trkpt>
      <trkpt lat="49.33864" lon="0.89411">
        <ele>77.800003051758</ele>
        <time>2024-10-13T07:05:02.000Z</time>
      </trkpt>
      <trkpt lat="49.33864" lon="0.89411">
        <ele>77.800003051758</ele>
        <time>2024-10-13T07:05:10.000Z</time>
      </trkpt>
      <trkpt lat="49.33864" lon="0.89411">
        <ele>77.800003051758</ele>
        <time>2024-10-13T07:05:16.000Z</time>
      </trkpt>
      <trkpt lat="49.33869" lon="0.89414">
        <ele>78</ele>
        <time>2024-10-13T07:05:21.000Z</time>
      </trkpt>
      <trkpt lat="49.33874" lon="0.89416">
        <ele>78</ele>
        <time>2024-10-13T07:05:23.000Z</time>
      </trkpt>
      <trkpt lat="49.33886" lon="0.89426">
        <ele>78</ele>
        <time>2024-10-13T07:05:28.000Z</time>
      </trkpt>
      <trkpt lat="49.33889" lon="0.89428">
        <ele>78</ele>
        <time>2024-10-13T07:05:29.000Z</time>
      </trkpt>
      <trkpt lat="49.33892" lon="0.8943">
        <ele>78</ele>
        <time>2024-10-13T07:05:30.000Z</time>
      </trkpt>
      <trkpt lat="49.33894" lon="0.89431">
        <ele>78.199996948242</ele>
        <time>2024-10-13T07:05:31.000Z</time>
      </trkpt>
      <trkpt lat="49.33902" lon="0.89435">
        <ele>78.199996948242</ele>
        <time>2024-10-13T07:05:34.000Z</time>
      </trkpt>
      <trkpt lat="49.33905" lon="0.89438">
        <ele>78.400001525879</ele>
        <time>2024-10-13T07:05:35.000Z</time>
      </trkpt>
      <trkpt lat="49.33911" lon="0.89442">
        <ele>78.599998474121</ele>
        <time>2024-10-13T07:05:37.000Z</time>
      </trkpt>
      <trkpt lat="49.33953" lon="0.8948">
        <ele>78.800003051758</ele>
        <time>2024-10-13T07:05:53.000Z</time>
      </trkpt>
      <trkpt lat="49.33974" lon="0.89507">
        <ele>79.199996948242</ele>
        <time>2024-10-13T07:06:00.000Z</time>
      </trkpt>
      <trkpt lat="49.33979" lon="0.89515">
        <ele>79.599998474121</ele>
        <time>2024-10-13T07:06:02.000Z</time>
      </trkpt>
      <trkpt lat="49.3398" lon="0.8952">
        <ele>80</ele>
        <time>2024-10-13T07:06:03.000Z</time>
      </trkpt>
      <trkpt lat="49.33982" lon="0.89524">
        <ele>80.400001525879</ele>
        <time>2024-10-13T07:06:04.000Z</time>
      </trkpt>
      <trkpt lat="49.33984" lon="0.89528">
        <ele>80.800003051758</ele>
        <time>2024-10-13T07:06:05.000Z</time>
      </trkpt>
      <trkpt lat="49.33985" lon="0.89538">
        <ele>81.199996948242</ele>
        <time>2024-10-13T07:06:08.000Z</time>
      </trkpt>
      <trkpt lat="49.33986" lon="0.89541">
        <ele>81.400001525879</ele>
        <time>2024-10-13T07:06:09.000Z</time>
      </trkpt>
      <trkpt lat="49.33986" lon="0.89544">
        <ele>81.599998474121</ele>
        <time>2024-10-13T07:06:10.000Z</time>
      </trkpt>
      <trkpt lat="49.33987" lon="0.8955">
        <ele>82.199996948242</ele>
        <time>2024-10-13T07:06:11.000Z</time>
      </trkpt>
      <trkpt lat="49.33987" lon="0.8955">
        <ele>82.199996948242</ele>
        <time>2024-10-13T07:06:12.000Z</time>
      </trkpt>
      <trkpt lat="49.33988" lon="0.89552">
        <ele>82.400001525879</ele>
        <time>2024-10-13T07:06:13.000Z</time>
      </trkpt>
      <trkpt lat="49.33988" lon="0.89555">
        <ele>82.599998474121</ele>
        <time>2024-10-13T07:06:14.000Z</time>
      </trkpt>
      <trkpt lat="49.33989" lon="0.89557">
        <ele>82.800003051758</ele>
        <time>2024-10-13T07:06:15.000Z</time>
      </trkpt>
      <trkpt lat="49.33991" lon="0.89571">
        <ele>83.800003051758</ele>
        <time>2024-10-13T07:06:21.000Z</time>
      </trkpt>
      <trkpt lat="49.33992" lon="0.89576">
        <ele>84.199996948242</ele>
        <time>2024-10-13T07:06:23.000Z</time>
      </trkpt>
      <trkpt lat="49.33994" lon="0.89582">
        <ele>84.800003051758</ele>
        <time>2024-10-13T07:06:26.000Z</time>
      </trkpt>
      <trkpt lat="49.33997" lon="0.89598">
        <ele>86.400001525879</ele>
        <time>2024-10-13T07:06:32.000Z</time>
      </trkpt>
      <trkpt lat="49.34005" lon="0.89652">
        <ele>90.400001525879</ele>
        <time>2024-10-13T07:06:56.000Z</time>
      </trkpt>
      <trkpt lat="49.34011" lon="0.89671">
        <ele>92</ele>
        <time>2024-10-13T07:07:11.000Z</time>
      </trkpt>
      <trkpt lat="49.34013" lon="0.89673">
        <ele>92.199996948242</ele>
        <time>2024-10-13T07:07:17.000Z</time>
      </trkpt>
      <trkpt lat="49.3402" lon="0.89682">
        <ele>93.599998474121</ele>
        <time>2024-10-13T07:07:25.000Z</time>
      </trkpt>
      <trkpt lat="49.34038" lon="0.89703">
        <ele>94</ele>
        <time>2024-10-13T07:07:33.000Z</time>
      </trkpt>
      <trkpt lat="49.34054" lon="0.89741">
        <ele>94.400001525879</ele>
        <time>2024-10-13T07:07:49.000Z</time>
      </trkpt>
      <trkpt lat="49.3406" lon="0.89752">
        <ele>93.599998474121</ele>
        <time>2024-10-13T07:07:53.000Z</time>
      </trkpt>
      <trkpt lat="49.34063" lon="0.89758">
        <ele>93.199996948242</ele>
        <time>2024-10-13T07:07:55.000Z</time>
      </trkpt>
      <trkpt lat="49.34064" lon="0.8976">
        <ele>93</ele>
        <time>2024-10-13T07:07:56.000Z</time>
      </trkpt>
      <trkpt lat="49.34065" lon="0.89763">
        <ele>93</ele>
        <time>2024-10-13T07:07:57.000Z</time>
      </trkpt>
      <trkpt lat="49.34067" lon="0.89765">
        <ele>92.800003051758</ele>
        <time>2024-10-13T07:07:58.000Z</time>
      </trkpt>
      <trkpt lat="49.34068" lon="0.89766">
        <ele>92.800003051758</ele>
        <time>2024-10-13T07:07:59.000Z</time>
      </trkpt>
      <trkpt lat="49.34073" lon="0.89774">
        <ele>92.599998474121</ele>
        <time>2024-10-13T07:08:02.000Z</time>
      </trkpt>
      <trkpt lat="49.34077" lon="0.89785">
        <ele>92.199996948242</ele>
        <time>2024-10-13T07:08:06.000Z</time>
      </trkpt>
      <trkpt lat="49.34082" lon="0.89797">
        <ele>91.800003051758</ele>
        <time>2024-10-13T07:08:10.000Z</time>
      </trkpt>
      <trkpt lat="49.34086" lon="0.89806">
        <ele>91.400001525879</ele>
        <time>2024-10-13T07:08:13.000Z</time>
      </trkpt>
      <trkpt lat="49.34089" lon="0.89811">
        <ele>91.199996948242</ele>
        <time>2024-10-13T07:08:15.000Z</time>
      </trkpt>
      <trkpt lat="49.34092" lon="0.89817">
        <ele>91</ele>
        <time>2024-10-13T07:08:17.000Z</time>
      </trkpt>
      <trkpt lat="49.34094" lon="0.8982">
        <ele>91.199996948242</ele>
        <time>2024-10-13T07:08:18.000Z</time>
      </trkpt>
      <trkpt lat="49.34097" lon="0.89824">
        <ele>91.199996948242</ele>
        <time>2024-10-13T07:08:19.000Z</time>
      </trkpt>
      <trkpt lat="49.34109" lon="0.89844">
        <ele>92</ele>
        <time>2024-10-13T07:08:24.000Z</time>
      </trkpt>
      <trkpt lat="49.34113" lon="0.89852">
        <ele>93</ele>
        <time>2024-10-13T07:08:26.000Z</time>
      </trkpt>
      <trkpt lat="49.3412" lon="0.89867">
        <ele>94.599998474121</ele>
        <time>2024-10-13T07:08:30.000Z</time>
      </trkpt>
      <trkpt lat="49.34128" lon="0.89887">
        <ele>98.800003051758</ele>
        <time>2024-10-13T07:08:36.000Z</time>
      </trkpt>
      <trkpt lat="49.34129" lon="0.89894">
        <ele>100.40000152588</ele>
        <time>2024-10-13T07:08:38.000Z</time>
      </trkpt>
      <trkpt lat="49.34131" lon="0.89901">
        <ele>101.40000152588</ele>
        <time>2024-10-13T07:08:40.000Z</time>
      </trkpt>
      <trkpt lat="49.34134" lon="0.89908">
        <ele>103</ele>
        <time>2024-10-13T07:08:42.000Z</time>
      </trkpt>
      <trkpt lat="49.34137" lon="0.89912">
        <ele>103.80000305176</ele>
        <time>2024-10-13T07:08:43.000Z</time>
      </trkpt>
      <trkpt lat="49.3414" lon="0.89924">
        <ele>105.80000305176</ele>
        <time>2024-10-13T07:08:46.000Z</time>
      </trkpt>
      <trkpt lat="49.34141" lon="0.89929">
        <ele>106.59999847412</ele>
        <time>2024-10-13T07:08:47.000Z</time>
      </trkpt>
      <trkpt lat="49.34144" lon="0.89939">
        <ele>109.19999694824</ele>
        <time>2024-10-13T07:08:50.000Z</time>
      </trkpt>
      <trkpt lat="49.34145" lon="0.89941">
        <ele>109.80000305176</ele>
        <time>2024-10-13T07:08:51.000Z</time>
      </trkpt>
      <trkpt lat="49.34148" lon="0.89953">
        <ele>112.40000152588</ele>
        <time>2024-10-13T07:08:55.000Z</time>
      </trkpt>
      <trkpt lat="49.34145" lon="0.89965">
        <ele>114.80000305176</ele>
        <time>2024-10-13T07:09:00.000Z</time>
      </trkpt>
      <trkpt lat="49.34149" lon="0.89978">
        <ele>118</ele>
        <time>2024-10-13T07:09:06.000Z</time>
      </trkpt>
      <trkpt lat="49.34152" lon="0.89984">
        <ele>119.40000152588</ele>
        <time>2024-10-13T07:09:09.000Z</time>
      </trkpt>
      <trkpt lat="49.3416" lon="0.89997">
        <ele>122.80000305176</ele>
        <time>2024-10-13T07:09:18.000Z</time>
      </trkpt>
      <trkpt lat="49.34162" lon="0.89999">
        <ele>123.19999694824</ele>
        <time>2024-10-13T07:09:20.000Z</time>
      </trkpt>
      <trkpt lat="49.34169" lon="0.90007">
        <ele>124.80000305176</ele>
        <time>2024-10-13T07:09:27.000Z</time>
      </trkpt>
      <trkpt lat="49.34186" lon="0.90021">
        <ele>126.59999847412</ele>
        <time>2024-10-13T07:09:35.000Z</time>
      </trkpt>
      <trkpt lat="49.3419" lon="0.90024">
        <ele>126.80000305176</ele>
        <time>2024-10-13T07:09:37.000Z</time>
      </trkpt>
      <trkpt lat="49.34225" lon="0.90086">
        <ele>133.19999694824</ele>
        <time>2024-10-13T07:10:18.000Z</time>
      </trkpt>
      <trkpt lat="49.34229" lon="0.90092">
        <ele>133.80000305176</ele>
        <time>2024-10-13T07:10:21.000Z</time>
      </trkpt>
      <trkpt lat="49.34233" lon="0.90097">
        <ele>134</ele>
        <time>2024-10-13T07:10:25.000Z</time>
      </trkpt>
      <trkpt lat="49.3424" lon="0.901">
        <ele>134</ele>
        <time>2024-10-13T07:10:29.000Z</time>
      </trkpt>
      <trkpt lat="49.34246" lon="0.90103">
        <ele>134</ele>
        <time>2024-10-13T07:10:33.000Z</time>
      </trkpt>
      <trkpt lat="49.34248" lon="0.90104">
        <ele>134</ele>
        <time>2024-10-13T07:10:34.000Z</time>
      </trkpt>
      <trkpt lat="49.34261" lon="0.90112">
        <ele>134</ele>
        <time>2024-10-13T07:10:42.000Z</time>
      </trkpt>
      <trkpt lat="49.34281" lon="0.90119">
        <ele>133.60000610352</ele>
        <time>2024-10-13T07:10:49.000Z</time>
      </trkpt>
      <trkpt lat="49.34284" lon="0.9012">
        <ele>133.60000610352</ele>
        <time>2024-10-13T07:10:50.000Z</time>
      </trkpt>
      <trkpt lat="49.34289" lon="0.90122">
        <ele>133.39999389648</ele>
        <time>2024-10-13T07:10:51.000Z</time>
      </trkpt>
      <trkpt lat="49.34291" lon="0.90125">
        <ele>133.39999389648</ele>
        <time>2024-10-13T07:10:52.000Z</time>
      </trkpt>
      <trkpt lat="49.34296" lon="0.90135">
        <ele>133.19999694824</ele>
        <time>2024-10-13T07:10:54.000Z</time>
      </trkpt>
      <trkpt lat="49.34299" lon="0.90144">
        <ele>133</ele>
        <time>2024-10-13T07:10:57.000Z</time>
      </trkpt>
      <trkpt lat="49.34293" lon="0.90149">
        <ele>133</ele>
        <time>2024-10-13T07:11:00.000Z</time>
      </trkpt>
      <trkpt lat="49.34273" lon="0.90157">
        <ele>133</ele>
        <time>2024-10-13T07:11:06.000Z</time>
      </trkpt>
      <trkpt lat="49.34261" lon="0.90164">
        <ele>133.39999389648</ele>
        <time>2024-10-13T07:11:09.000Z</time>
      </trkpt>
      <trkpt lat="49.34249" lon="0.90173">
        <ele>133.19999694824</ele>
        <time>2024-10-13T07:11:12.000Z</time>
      </trkpt>
      <trkpt lat="49.34242" lon="0.90179">
        <ele>133.39999389648</ele>
        <time>2024-10-13T07:11:14.000Z</time>
      </trkpt>
      <trkpt lat="49.34233" lon="0.90185">
        <ele>134.39999389648</ele>
        <time>2024-10-13T07:11:16.000Z</time>
      </trkpt>
      <trkpt lat="49.34186" lon="0.90225">
        <ele>139.60000610352</ele>
        <time>2024-10-13T07:11:29.000Z</time>
      </trkpt>
      <trkpt lat="49.34171" lon="0.9024">
        <ele>140.19999694824</ele>
        <time>2024-10-13T07:11:33.000Z</time>
      </trkpt>
      <trkpt lat="49.34167" lon="0.90244">
        <ele>140.19999694824</ele>
        <time>2024-10-13T07:11:34.000Z</time>
      </trkpt>
      <trkpt lat="49.34164" lon="0.90249">
        <ele>140</ele>
        <time>2024-10-13T07:11:35.000Z</time>
      </trkpt>
      <trkpt lat="49.34161" lon="0.90254">
        <ele>140</ele>
        <time>2024-10-13T07:11:36.000Z</time>
      </trkpt>
      <trkpt lat="49.34157" lon="0.90257">
        <ele>139.80000305176</ele>
        <time>2024-10-13T07:11:37.000Z</time>
      </trkpt>
      <trkpt lat="49.3415" lon="0.90264">
        <ele>140</ele>
        <time>2024-10-13T07:11:38.000Z</time>
      </trkpt>
      <trkpt lat="49.3415" lon="0.90264">
        <ele>140</ele>
        <time>2024-10-13T07:11:39.000Z</time>
      </trkpt>
      <trkpt lat="49.34142" lon="0.9027">
        <ele>140.39999389648</ele>
        <time>2024-10-13T07:11:41.000Z</time>
      </trkpt>
      <trkpt lat="49.34137" lon="0.90274">
        <ele>140.39999389648</ele>
        <time>2024-10-13T07:11:42.000Z</time>
      </trkpt>
      <trkpt lat="49.34134" lon="0.90278">
        <ele>140.60000610352</ele>
        <time>2024-10-13T07:11:43.000Z</time>
      </trkpt>
      <trkpt lat="49.3413" lon="0.90283">
        <ele>140.80000305176</ele>
        <time>2024-10-13T07:11:44.000Z</time>
      </trkpt>
      <trkpt lat="49.34125" lon="0.90289">
        <ele>140.39999389648</ele>
        <time>2024-10-13T07:11:45.000Z</time>
      </trkpt>
      <trkpt lat="49.3412" lon="0.90296">
        <ele>139.80000305176</ele>
        <time>2024-10-13T07:11:46.000Z</time>
      </trkpt>
      <trkpt lat="49.34115" lon="0.90302">
        <ele>139.19999694824</ele>
        <time>2024-10-13T07:11:47.000Z</time>
      </trkpt>
      <trkpt lat="49.3411" lon="0.90308">
        <ele>138.60000610352</ele>
        <time>2024-10-13T07:11:48.000Z</time>
      </trkpt>
      <trkpt lat="49.34098" lon="0.90325">
        <ele>136.80000305176</ele>
        <time>2024-10-13T07:11:51.000Z</time>
      </trkpt>
      <trkpt lat="49.34093" lon="0.90329">
        <ele>136.19999694824</ele>
        <time>2024-10-13T07:11:52.000Z</time>
      </trkpt>
      <trkpt lat="49.34076" lon="0.90343">
        <ele>134.19999694824</ele>
        <time>2024-10-13T07:11:56.000Z</time>
      </trkpt>
      <trkpt lat="49.3407" lon="0.90347">
        <ele>134.39999389648</ele>
        <time>2024-10-13T07:11:57.000Z</time>
      </trkpt>
      <trkpt lat="49.34061" lon="0.90359">
        <ele>134.19999694824</ele>
        <time>2024-10-13T07:11:59.000Z</time>
      </trkpt>
      <trkpt lat="49.34038" lon="0.90432">
        <ele>131.60000610352</ele>
        <time>2024-10-13T07:12:08.000Z</time>
      </trkpt>
      <trkpt lat="49.34031" lon="0.90447">
        <ele>133.60000610352</ele>
        <time>2024-10-13T07:12:10.000Z</time>
      </trkpt>
      <trkpt lat="49.34024" lon="0.9046">
        <ele>136</ele>
        <time>2024-10-13T07:12:12.000Z</time>
      </trkpt>
      <trkpt lat="49.34004" lon="0.90483">
        <ele>137.39999389648</ele>
        <time>2024-10-13T07:12:17.000Z</time>
      </trkpt>
      <trkpt lat="49.33999" lon="0.90499">
        <ele>138.39999389648</ele>
        <time>2024-10-13T07:12:19.000Z</time>
      </trkpt>
      <trkpt lat="49.33989" lon="0.90582">
        <ele>139.39999389648</ele>
        <time>2024-10-13T07:12:29.000Z</time>
      </trkpt>
      <trkpt lat="49.33981" lon="0.90669">
        <ele>132.80000305176</ele>
        <time>2024-10-13T07:12:39.000Z</time>
      </trkpt>
      <trkpt lat="49.33975" lon="0.90752">
        <ele>131</ele>
        <time>2024-10-13T07:12:48.000Z</time>
      </trkpt>
      <trkpt lat="49.33971" lon="0.90807">
        <ele>127</ele>
        <time>2024-10-13T07:12:53.000Z</time>
      </trkpt>
      <trkpt lat="49.33975" lon="0.90892">
        <ele>118.80000305176</ele>
        <time>2024-10-13T07:13:01.000Z</time>
      </trkpt>
      <trkpt lat="49.33977" lon="0.90903">
        <ele>118.19999694824</ele>
        <time>2024-10-13T07:13:02.000Z</time>
      </trkpt>
      <trkpt lat="49.33985" lon="0.90931">
        <ele>117.80000305176</ele>
        <time>2024-10-13T07:13:05.000Z</time>
      </trkpt>
      <trkpt lat="49.33988" lon="0.90953">
        <ele>118.40000152588</ele>
        <time>2024-10-13T07:13:07.000Z</time>
      </trkpt>
      <trkpt lat="49.33989" lon="0.90983">
        <ele>118.59999847412</ele>
        <time>2024-10-13T07:13:10.000Z</time>
      </trkpt>
      <trkpt lat="49.33982" lon="0.91069">
        <ele>117</ele>
        <time>2024-10-13T07:13:19.000Z</time>
      </trkpt>
      <trkpt lat="49.33974" lon="0.91118">
        <ele>114.80000305176</ele>
        <time>2024-10-13T07:13:26.000Z</time>
      </trkpt>
      <trkpt lat="49.33974" lon="0.91131">
        <ele>114.59999847412</ele>
        <time>2024-10-13T07:13:28.000Z</time>
      </trkpt>
      <trkpt lat="49.3397" lon="0.91217">
        <ele>118.40000152588</ele>
        <time>2024-10-13T07:13:42.000Z</time>
      </trkpt>
      <trkpt lat="49.33956" lon="0.91301">
        <ele>119.59999847412</ele>
        <time>2024-10-13T07:13:54.000Z</time>
      </trkpt>
      <trkpt lat="49.33941" lon="0.91385">
        <ele>120.40000152588</ele>
        <time>2024-10-13T07:14:08.000Z</time>
      </trkpt>
      <trkpt lat="49.33928" lon="0.9143">
        <ele>124.19999694824</ele>
        <time>2024-10-13T07:14:16.000Z</time>
      </trkpt>
      <trkpt lat="49.33905" lon="0.9149">
        <ele>127.40000152588</ele>
        <time>2024-10-13T07:14:27.000Z</time>
      </trkpt>
      <trkpt lat="49.33896" lon="0.91512">
        <ele>127.19999694824</ele>
        <time>2024-10-13T07:14:31.000Z</time>
      </trkpt>
      <trkpt lat="49.33869" lon="0.91556">
        <ele>126</ele>
        <time>2024-10-13T07:14:41.000Z</time>
      </trkpt>
      <trkpt lat="49.33855" lon="0.91565">
        <ele>127</ele>
        <time>2024-10-13T07:14:45.000Z</time>
      </trkpt>
      <trkpt lat="49.33848" lon="0.91574">
        <ele>127</ele>
        <time>2024-10-13T07:14:47.000Z</time>
      </trkpt>
      <trkpt lat="49.33841" lon="0.91584">
        <ele>127</ele>
        <time>2024-10-13T07:14:49.000Z</time>
      </trkpt>
      <trkpt lat="49.33827" lon="0.91603">
        <ele>126.59999847412</ele>
        <time>2024-10-13T07:14:53.000Z</time>
      </trkpt>
      <trkpt lat="49.33819" lon="0.9161">
        <ele>126.40000152588</ele>
        <time>2024-10-13T07:14:55.000Z</time>
      </trkpt>
      <trkpt lat="49.33787" lon="0.9163">
        <ele>125.80000305176</ele>
        <time>2024-10-13T07:15:04.000Z</time>
      </trkpt>
      <trkpt lat="49.33757" lon="0.91656">
        <ele>125.80000305176</ele>
        <time>2024-10-13T07:15:11.000Z</time>
      </trkpt>
      <trkpt lat="49.33742" lon="0.91673">
        <ele>124.59999847412</ele>
        <time>2024-10-13T07:15:14.000Z</time>
      </trkpt>
      <trkpt lat="49.33737" lon="0.91679">
        <ele>124</ele>
        <time>2024-10-13T07:15:15.000Z</time>
      </trkpt>
      <trkpt lat="49.3372" lon="0.9169">
        <ele>121.80000305176</ele>
        <time>2024-10-13T07:15:18.000Z</time>
      </trkpt>
      <trkpt lat="49.33698" lon="0.91704">
        <ele>118</ele>
        <time>2024-10-13T07:15:22.000Z</time>
      </trkpt>
      <trkpt lat="49.33687" lon="0.91704">
        <ele>116.40000152588</ele>
        <time>2024-10-13T07:15:24.000Z</time>
      </trkpt>
      <trkpt lat="49.33676" lon="0.917">
        <ele>113.80000305176</ele>
        <time>2024-10-13T07:15:26.000Z</time>
      </trkpt>
      <trkpt lat="49.33664" lon="0.91695">
        <ele>110.80000305176</ele>
        <time>2024-10-13T07:15:28.000Z</time>
      </trkpt>
      <trkpt lat="49.33652" lon="0.91694">
        <ele>108.59999847412</ele>
        <time>2024-10-13T07:15:30.000Z</time>
      </trkpt>
      <trkpt lat="49.33643" lon="0.91695">
        <ele>107.59999847412</ele>
        <time>2024-10-13T07:15:32.000Z</time>
      </trkpt>
      <trkpt lat="49.33614" lon="0.91712">
        <ele>100.40000152588</ele>
        <time>2024-10-13T07:15:39.000Z</time>
      </trkpt>
      <trkpt lat="49.33586" lon="0.91716">
        <ele>91</ele>
        <time>2024-10-13T07:15:49.000Z</time>
      </trkpt>
      <trkpt lat="49.33582" lon="0.91717">
        <ele>89.400001525879</ele>
        <time>2024-10-13T07:15:51.000Z</time>
      </trkpt>
      <trkpt lat="49.33579" lon="0.91718">
        <ele>88.599998474121</ele>
        <time>2024-10-13T07:15:52.000Z</time>
      </trkpt>
      <trkpt lat="49.33574" lon="0.91721">
        <ele>86.800003051758</ele>
        <time>2024-10-13T07:15:54.000Z</time>
      </trkpt>
      <trkpt lat="49.33569" lon="0.91729">
        <ele>84.599998474121</ele>
        <time>2024-10-13T07:15:56.000Z</time>
      </trkpt>
      <trkpt lat="49.33548" lon="0.91808">
        <ele>77.800003051758</ele>
        <time>2024-10-13T07:16:06.000Z</time>
      </trkpt>
      <trkpt lat="49.33541" lon="0.91824">
        <ele>76.199996948242</ele>
        <time>2024-10-13T07:16:08.000Z</time>
      </trkpt>
      <trkpt lat="49.33531" lon="0.91838">
        <ele>73.599998474121</ele>
        <time>2024-10-13T07:16:12.000Z</time>
      </trkpt>
      <trkpt lat="49.33528" lon="0.91838">
        <ele>72.400001525879</ele>
        <time>2024-10-13T07:16:14.000Z</time>
      </trkpt>
      <trkpt lat="49.33524" lon="0.91832">
        <ele>70.800003051758</ele>
        <time>2024-10-13T07:16:16.000Z</time>
      </trkpt>
      <trkpt lat="49.33519" lon="0.91812">
        <ele>69.400001525879</ele>
        <time>2024-10-13T07:16:21.000Z</time>
      </trkpt>
      <trkpt lat="49.33514" lon="0.91751">
        <ele>67.800003051758</ele>
        <time>2024-10-13T07:16:35.000Z</time>
      </trkpt>
      <trkpt lat="49.33497" lon="0.9183">
        <ele>63</ele>
        <time>2024-10-13T07:16:50.000Z</time>
      </trkpt>
      <trkpt lat="49.33468" lon="0.91846">
        <ele>60</ele>
        <time>2024-10-13T07:17:00.000Z</time>
      </trkpt>
      <trkpt lat="49.33461" lon="0.91848">
        <ele>60.200000762939</ele>
        <time>2024-10-13T07:17:10.000Z</time>
      </trkpt>
      <trkpt lat="49.33461" lon="0.91848">
        <ele>60.200000762939</ele>
        <time>2024-10-13T07:17:22.000Z</time>
      </trkpt>
      <trkpt lat="49.33455" lon="0.91863">
        <ele>60.599998474121</ele>
        <time>2024-10-13T07:17:34.000Z</time>
      </trkpt>
      <trkpt lat="49.33443" lon="0.91898">
        <ele>61</ele>
        <time>2024-10-13T07:17:42.000Z</time>
      </trkpt>
      <trkpt lat="49.33442" lon="0.91953">
        <ele>62</ele>
        <time>2024-10-13T07:17:56.000Z</time>
      </trkpt>
      <trkpt lat="49.33462" lon="0.91985">
        <ele>63.799999237061</ele>
        <time>2024-10-13T07:18:07.000Z</time>
      </trkpt>
      <trkpt lat="49.33461" lon="0.91995">
        <ele>64.599998474121</ele>
        <time>2024-10-13T07:18:11.000Z</time>
      </trkpt>
      <trkpt lat="49.33447" lon="0.92071">
        <ele>66.400001525879</ele>
        <time>2024-10-13T07:18:22.000Z</time>
      </trkpt>
      <trkpt lat="49.33447" lon="0.92085">
        <ele>65.800003051758</ele>
        <time>2024-10-13T07:18:24.000Z</time>
      </trkpt>
      <trkpt lat="49.33448" lon="0.92092">
        <ele>65.599998474121</ele>
        <time>2024-10-13T07:18:25.000Z</time>
      </trkpt>
      <trkpt lat="49.33448" lon="0.92099">
        <ele>65.599998474121</ele>
        <time>2024-10-13T07:18:26.000Z</time>
      </trkpt>
      <trkpt lat="49.33448" lon="0.92106">
        <ele>65.599998474121</ele>
        <time>2024-10-13T07:18:27.000Z</time>
      </trkpt>
      <trkpt lat="49.33448" lon="0.92112">
        <ele>65.599998474121</ele>
        <time>2024-10-13T07:18:28.000Z</time>
      </trkpt>
      <trkpt lat="49.33447" lon="0.92126">
        <ele>65.599998474121</ele>
        <time>2024-10-13T07:18:30.000Z</time>
      </trkpt>
      <trkpt lat="49.3345" lon="0.92139">
        <ele>66</ele>
        <time>2024-10-13T07:18:32.000Z</time>
      </trkpt>
      <trkpt lat="49.33452" lon="0.92144">
        <ele>66.199996948242</ele>
        <time>2024-10-13T07:18:33.000Z</time>
      </trkpt>
      <trkpt lat="49.33453" lon="0.9215">
        <ele>66.400001525879</ele>
        <time>2024-10-13T07:18:34.000Z</time>
      </trkpt>
      <trkpt lat="49.33452" lon="0.92158">
        <ele>67.199996948242</ele>
        <time>2024-10-13T07:18:36.000Z</time>
      </trkpt>
      <trkpt lat="49.33433" lon="0.92216">
        <ele>69</ele>
        <time>2024-10-13T07:18:53.000Z</time>
      </trkpt>
      <trkpt lat="49.33432" lon="0.92218">
        <ele>69.199996948242</ele>
        <time>2024-10-13T07:18:54.000Z</time>
      </trkpt>
      <trkpt lat="49.33435" lon="0.92228">
        <ele>70.800003051758</ele>
        <time>2024-10-13T07:19:00.000Z</time>
      </trkpt>
      <trkpt lat="49.33435" lon="0.9223">
        <ele>70.800003051758</ele>
        <time>2024-10-13T07:19:02.000Z</time>
      </trkpt>
      <trkpt lat="49.33435" lon="0.9223">
        <ele>70.800003051758</ele>
        <time>2024-10-13T07:19:03.000Z</time>
      </trkpt>
      <trkpt lat="49.33435" lon="0.92231">
        <ele>70.800003051758</ele>
        <time>2024-10-13T07:19:14.000Z</time>
      </trkpt>
      <trkpt lat="49.33435" lon="0.92231">
        <ele>70.800003051758</ele>
        <time>2024-10-13T07:19:16.000Z</time>
      </trkpt>
      <trkpt lat="49.33435" lon="0.92231">
        <ele>70.800003051758</ele>
        <time>2024-10-13T07:19:19.000Z</time>
      </trkpt>
      <trkpt lat="49.33435" lon="0.92231">
        <ele>70.800003051758</ele>
        <time>2024-10-13T07:19:22.000Z</time>
      </trkpt>
      <trkpt lat="49.33435" lon="0.92232">
        <ele>71</ele>
        <time>2024-10-13T07:19:24.000Z</time>
      </trkpt>
      <trkpt lat="49.33435" lon="0.92232">
        <ele>71</ele>
        <time>2024-10-13T07:19:27.000Z</time>
      </trkpt>
      <trkpt lat="49.33435" lon="0.92233">
        <ele>71</ele>
        <time>2024-10-13T07:19:30.000Z</time>
      </trkpt>
      <trkpt lat="49.33435" lon="0.92233">
        <ele>71</ele>
        <time>2024-10-13T07:19:32.000Z</time>
      </trkpt>
      <trkpt lat="49.33435" lon="0.92233">
        <ele>71</ele>
        <time>2024-10-13T07:19:34.000Z</time>
      </trkpt>
      <trkpt lat="49.33435" lon="0.92233">
        <ele>71</ele>
        <time>2024-10-13T07:19:35.000Z</time>
      </trkpt>
      <trkpt lat="49.33435" lon="0.92233">
        <ele>71</ele>
        <time>2024-10-13T07:19:37.000Z</time>
      </trkpt>
      <trkpt lat="49.33435" lon="0.92234">
        <ele>71</ele>
        <time>2024-10-13T07:19:39.000Z</time>
      </trkpt>
      <trkpt lat="49.33435" lon="0.92234">
        <ele>71</ele>
        <time>2024-10-13T07:19:41.000Z</time>
      </trkpt>
      <trkpt lat="49.33435" lon="0.92234">
        <ele>71</ele>
        <time>2024-10-13T07:19:42.000Z</time>
      </trkpt>
      <trkpt lat="49.33436" lon="0.92238">
        <ele>71.599998474121</ele>
        <time>2024-10-13T07:20:02.000Z</time>
      </trkpt>
      <trkpt lat="49.33439" lon="0.92243">
        <ele>72.800003051758</ele>
        <time>2024-10-13T07:20:28.000Z</time>
      </trkpt>
      <trkpt lat="49.3344" lon="0.92245">
        <ele>73.199996948242</ele>
        <time>2024-10-13T07:20:37.000Z</time>
      </trkpt>
      <trkpt lat="49.33443" lon="0.92247">
        <ele>74.400001525879</ele>
        <time>2024-10-13T07:20:54.000Z</time>
      </trkpt>
      <trkpt lat="49.33446" lon="0.92247">
        <ele>75</ele>
        <time>2024-10-13T07:21:16.000Z</time>
      </trkpt>
      <trkpt lat="49.3347" lon="0.92263">
        <ele>82.599998474121</ele>
        <time>2024-10-13T07:21:30.000Z</time>
      </trkpt>
      <trkpt lat="49.33511" lon="0.92303">
        <ele>94.400001525879</ele>
        <time>2024-10-13T07:21:49.000Z</time>
      </trkpt>
      <trkpt lat="49.33516" lon="0.92306">
        <ele>95.800003051758</ele>
        <time>2024-10-13T07:21:52.000Z</time>
      </trkpt>
      <trkpt lat="49.33527" lon="0.92314">
        <ele>98.800003051758</ele>
        <time>2024-10-13T07:22:00.000Z</time>
      </trkpt>
      <trkpt lat="49.3353" lon="0.92316">
        <ele>99.599998474121</ele>
        <time>2024-10-13T07:22:02.000Z</time>
      </trkpt>
      <trkpt lat="49.33543" lon="0.92316">
        <ele>102.80000305176</ele>
        <time>2024-10-13T07:22:12.000Z</time>
      </trkpt>
      <trkpt lat="49.33544" lon="0.92315">
        <ele>103.19999694824</ele>
        <time>2024-10-13T07:22:13.000Z</time>
      </trkpt>
      <trkpt lat="49.33551" lon="0.92314">
        <ele>104.80000305176</ele>
        <time>2024-10-13T07:22:20.000Z</time>
      </trkpt>
      <trkpt lat="49.33559" lon="0.92314">
        <ele>106.19999694824</ele>
        <time>2024-10-13T07:22:25.000Z</time>
      </trkpt>
      <trkpt lat="49.33563" lon="0.92314">
        <ele>107</ele>
        <time>2024-10-13T07:22:28.000Z</time>
      </trkpt>
      <trkpt lat="49.33565" lon="0.92315">
        <ele>107.40000152588</ele>
        <time>2024-10-13T07:22:30.000Z</time>
      </trkpt>
      <trkpt lat="49.33573" lon="0.92309">
        <ele>109</ele>
        <time>2024-10-13T07:22:39.000Z</time>
      </trkpt>
      <trkpt lat="49.33577" lon="0.92306">
        <ele>110</ele>
        <time>2024-10-13T07:22:42.000Z</time>
      </trkpt>
      <trkpt lat="49.33578" lon="0.92305">
        <ele>110.19999694824</ele>
        <time>2024-10-13T07:22:43.000Z</time>
      </trkpt>
      <trkpt lat="49.33579" lon="0.92303">
        <ele>110.59999847412</ele>
        <time>2024-10-13T07:22:44.000Z</time>
      </trkpt>
      <trkpt lat="49.33581" lon="0.92301">
        <ele>111.19999694824</ele>
        <time>2024-10-13T07:22:45.000Z</time>
      </trkpt>
      <trkpt lat="49.33584" lon="0.92298">
        <ele>112</ele>
        <time>2024-10-13T07:22:46.000Z</time>
      </trkpt>
      <trkpt lat="49.33584" lon="0.92298">
        <ele>112</ele>
        <time>2024-10-13T07:22:47.000Z</time>
      </trkpt>
      <trkpt lat="49.33585" lon="0.92296">
        <ele>112.40000152588</ele>
        <time>2024-10-13T07:22:48.000Z</time>
      </trkpt>
      <trkpt lat="49.33587" lon="0.92294">
        <ele>112.59999847412</ele>
        <time>2024-10-13T07:22:49.000Z</time>
      </trkpt>
      <trkpt lat="49.33588" lon="0.92293">
        <ele>113</ele>
        <time>2024-10-13T07:22:50.000Z</time>
      </trkpt>
      <trkpt lat="49.33591" lon="0.92291">
        <ele>113.59999847412</ele>
        <time>2024-10-13T07:22:52.000Z</time>
      </trkpt>
      <trkpt lat="49.33616" lon="0.92291">
        <ele>118.40000152588</ele>
        <time>2024-10-13T07:23:04.000Z</time>
      </trkpt>
      <trkpt lat="49.33637" lon="0.92308">
        <ele>121.80000305176</ele>
        <time>2024-10-13T07:23:14.000Z</time>
      </trkpt>
      <trkpt lat="49.33639" lon="0.9231">
        <ele>122</ele>
        <time>2024-10-13T07:23:15.000Z</time>
      </trkpt>
      <trkpt lat="49.3364" lon="0.92312">
        <ele>122.19999694824</ele>
        <time>2024-10-13T07:23:16.000Z</time>
      </trkpt>
      <trkpt lat="49.33643" lon="0.92315">
        <ele>122.40000152588</ele>
        <time>2024-10-13T07:23:17.000Z</time>
      </trkpt>
      <trkpt lat="49.33648" lon="0.92324">
        <ele>123</ele>
        <time>2024-10-13T07:23:20.000Z</time>
      </trkpt>
      <trkpt lat="49.33662" lon="0.92346">
        <ele>124</ele>
        <time>2024-10-13T07:23:28.000Z</time>
      </trkpt>
      <trkpt lat="49.33664" lon="0.92348">
        <ele>124</ele>
        <time>2024-10-13T07:23:29.000Z</time>
      </trkpt>
      <trkpt lat="49.33667" lon="0.92353">
        <ele>124.19999694824</ele>
        <time>2024-10-13T07:23:31.000Z</time>
      </trkpt>
      <trkpt lat="49.33674" lon="0.92359">
        <ele>124.80000305176</ele>
        <time>2024-10-13T07:23:34.000Z</time>
      </trkpt>
      <trkpt lat="49.33677" lon="0.92362">
        <ele>125</ele>
        <time>2024-10-13T07:23:35.000Z</time>
      </trkpt>
      <trkpt lat="49.33696" lon="0.92375">
        <ele>126.40000152588</ele>
        <time>2024-10-13T07:23:42.000Z</time>
      </trkpt>
      <trkpt lat="49.33699" lon="0.92377">
        <ele>126.59999847412</ele>
        <time>2024-10-13T07:23:43.000Z</time>
      </trkpt>
      <trkpt lat="49.33702" lon="0.92379">
        <ele>126.80000305176</ele>
        <time>2024-10-13T07:23:44.000Z</time>
      </trkpt>
      <trkpt lat="49.3372" lon="0.92403">
        <ele>128</ele>
        <time>2024-10-13T07:23:54.000Z</time>
      </trkpt>
      <trkpt lat="49.33752" lon="0.9242">
        <ele>128.19999694824</ele>
        <time>2024-10-13T07:24:06.000Z</time>
      </trkpt>
      <trkpt lat="49.33777" lon="0.9243">
        <ele>126.19999694824</ele>
        <time>2024-10-13T07:24:14.000Z</time>
      </trkpt>
      <trkpt lat="49.33784" lon="0.92432">
        <ele>125</ele>
        <time>2024-10-13T07:24:16.000Z</time>
      </trkpt>
      <trkpt lat="49.33786" lon="0.92434">
        <ele>124.59999847412</ele>
        <time>2024-10-13T07:24:17.000Z</time>
      </trkpt>
      <trkpt lat="49.33788" lon="0.92441">
        <ele>124.80000305176</ele>
        <time>2024-10-13T07:24:19.000Z</time>
      </trkpt>
      <trkpt lat="49.33788" lon="0.92524">
        <ele>125.40000152588</ele>
        <time>2024-10-13T07:24:37.000Z</time>
      </trkpt>
      <trkpt lat="49.33781" lon="0.92559">
        <ele>125.40000152588</ele>
        <time>2024-10-13T07:24:43.000Z</time>
      </trkpt>
      <trkpt lat="49.33776" lon="0.92596">
        <ele>124.80000305176</ele>
        <time>2024-10-13T07:24:48.000Z</time>
      </trkpt>
      <trkpt lat="49.33766" lon="0.92635">
        <ele>121.19999694824</ele>
        <time>2024-10-13T07:24:53.000Z</time>
      </trkpt>
      <trkpt lat="49.33761" lon="0.9266">
        <ele>118.19999694824</ele>
        <time>2024-10-13T07:24:56.000Z</time>
      </trkpt>
      <trkpt lat="49.33757" lon="0.92694">
        <ele>114.80000305176</ele>
        <time>2024-10-13T07:25:00.000Z</time>
      </trkpt>
      <trkpt lat="49.33769" lon="0.92713">
        <ele>114</ele>
        <time>2024-10-13T07:25:05.000Z</time>
      </trkpt>
      <trkpt lat="49.33774" lon="0.92715">
        <ele>114.19999694824</ele>
        <time>2024-10-13T07:25:08.000Z</time>
      </trkpt>
      <trkpt lat="49.33783" lon="0.9272">
        <ele>114.59999847412</ele>
        <time>2024-10-13T07:25:13.000Z</time>
      </trkpt>
      <trkpt lat="49.33808" lon="0.92733">
        <ele>115.59999847412</ele>
        <time>2024-10-13T07:25:29.000Z</time>
      </trkpt>
      <trkpt lat="49.33816" lon="0.92735">
        <ele>116</ele>
        <time>2024-10-13T07:25:35.000Z</time>
      </trkpt>
      <trkpt lat="49.33817" lon="0.92735">
        <ele>116.19999694824</ele>
        <time>2024-10-13T07:25:36.000Z</time>
      </trkpt>
      <trkpt lat="49.33818" lon="0.92736">
        <ele>116.19999694824</ele>
        <time>2024-10-13T07:25:37.000Z</time>
      </trkpt>
      <trkpt lat="49.33818" lon="0.92736">
        <ele>116.19999694824</ele>
        <time>2024-10-13T07:25:38.000Z</time>
      </trkpt>
      <trkpt lat="49.33825" lon="0.92738">
        <ele>116.80000305176</ele>
        <time>2024-10-13T07:25:46.000Z</time>
      </trkpt>
      <trkpt lat="49.3383" lon="0.9274">
        <ele>117.19999694824</ele>
        <time>2024-10-13T07:25:49.000Z</time>
      </trkpt>
      <trkpt lat="49.33837" lon="0.92744">
        <ele>117.80000305176</ele>
        <time>2024-10-13T07:25:52.000Z</time>
      </trkpt>
      <trkpt lat="49.33839" lon="0.92744">
        <ele>118.19999694824</ele>
        <time>2024-10-13T07:25:53.000Z</time>
      </trkpt>
      <trkpt lat="49.33851" lon="0.92748">
        <ele>119.59999847412</ele>
        <time>2024-10-13T07:25:59.000Z</time>
      </trkpt>
      <trkpt lat="49.33861" lon="0.92752">
        <ele>121</ele>
        <time>2024-10-13T07:26:05.000Z</time>
      </trkpt>
      <trkpt lat="49.33902" lon="0.92765">
        <ele>125.19999694824</ele>
        <time>2024-10-13T07:26:23.000Z</time>
      </trkpt>
      <trkpt lat="49.33908" lon="0.92769">
        <ele>125.59999847412</ele>
        <time>2024-10-13T07:26:25.000Z</time>
      </trkpt>
      <trkpt lat="49.33958" lon="0.92789">
        <ele>127</ele>
        <time>2024-10-13T07:26:40.000Z</time>
      </trkpt>
      <trkpt lat="49.33994" lon="0.92802">
        <ele>126</ele>
        <time>2024-10-13T07:26:49.000Z</time>
      </trkpt>
      <trkpt lat="49.33997" lon="0.92803">
        <ele>126</ele>
        <time>2024-10-13T07:26:50.000Z</time>
      </trkpt>
      <trkpt lat="49.34007" lon="0.92808">
        <ele>125.59999847412</ele>
        <time>2024-10-13T07:26:53.000Z</time>
      </trkpt>
      <trkpt lat="49.3402" lon="0.92813">
        <ele>125</ele>
        <time>2024-10-13T07:26:56.000Z</time>
      </trkpt>
      <trkpt lat="49.34045" lon="0.9282">
        <ele>124.40000152588</ele>
        <time>2024-10-13T07:27:01.000Z</time>
      </trkpt>
      <trkpt lat="49.3406" lon="0.92826">
        <ele>124</ele>
        <time>2024-10-13T07:27:04.000Z</time>
      </trkpt>
      <trkpt lat="49.34073" lon="0.92851">
        <ele>124.19999694824</ele>
        <time>2024-10-13T07:27:10.000Z</time>
      </trkpt>
      <trkpt lat="49.34073" lon="0.92855">
        <ele>124.19999694824</ele>
        <time>2024-10-13T07:27:11.000Z</time>
      </trkpt>
      <trkpt lat="49.34073" lon="0.92861">
        <ele>124.19999694824</ele>
        <time>2024-10-13T07:27:12.000Z</time>
      </trkpt>
      <trkpt lat="49.34078" lon="0.9288">
        <ele>124.40000152588</ele>
        <time>2024-10-13T07:27:16.000Z</time>
      </trkpt>
      <trkpt lat="49.34088" lon="0.92892">
        <ele>124</ele>
        <time>2024-10-13T07:27:19.000Z</time>
      </trkpt>
      <trkpt lat="49.34091" lon="0.92896">
        <ele>124</ele>
        <time>2024-10-13T07:27:20.000Z</time>
      </trkpt>
      <trkpt lat="49.34106" lon="0.92919">
        <ele>123.80000305176</ele>
        <time>2024-10-13T07:27:27.000Z</time>
      </trkpt>
      <trkpt lat="49.34117" lon="0.92939">
        <ele>123.59999847412</ele>
        <time>2024-10-13T07:27:31.000Z</time>
      </trkpt>
      <trkpt lat="49.34122" lon="0.92982">
        <ele>124.40000152588</ele>
        <time>2024-10-13T07:27:38.000Z</time>
      </trkpt>
      <trkpt lat="49.34118" lon="0.9301">
        <ele>124.80000305176</ele>
        <time>2024-10-13T07:27:43.000Z</time>
      </trkpt>
      <trkpt lat="49.34117" lon="0.93022">
        <ele>125</ele>
        <time>2024-10-13T07:27:45.000Z</time>
      </trkpt>
      <trkpt lat="49.34106" lon="0.9311">
        <ele>127.59999847412</ele>
        <time>2024-10-13T07:27:59.000Z</time>
      </trkpt>
      <trkpt lat="49.34104" lon="0.93122">
        <ele>128</ele>
        <time>2024-10-13T07:28:01.000Z</time>
      </trkpt>
      <trkpt lat="49.34091" lon="0.93196">
        <ele>131.80000305176</ele>
        <time>2024-10-13T07:28:12.000Z</time>
      </trkpt>
      <trkpt lat="49.34086" lon="0.93236">
        <ele>132.39999389648</ele>
        <time>2024-10-13T07:28:18.000Z</time>
      </trkpt>
      <trkpt lat="49.34083" lon="0.93257">
        <ele>132.60000610352</ele>
        <time>2024-10-13T07:28:21.000Z</time>
      </trkpt>
      <trkpt lat="49.3408" lon="0.93277">
        <ele>132.80000305176</ele>
        <time>2024-10-13T07:28:24.000Z</time>
      </trkpt>
      <trkpt lat="49.34077" lon="0.93304">
        <ele>133.60000610352</ele>
        <time>2024-10-13T07:28:28.000Z</time>
      </trkpt>
      <trkpt lat="49.34065" lon="0.93388">
        <ele>135</ele>
        <time>2024-10-13T07:28:41.000Z</time>
      </trkpt>
      <trkpt lat="49.34062" lon="0.93406">
        <ele>134.39999389648</ele>
        <time>2024-10-13T07:28:44.000Z</time>
      </trkpt>
      <trkpt lat="49.34061" lon="0.93426">
        <ele>133.80000305176</ele>
        <time>2024-10-13T07:28:47.000Z</time>
      </trkpt>
      <trkpt lat="49.34055" lon="0.93466">
        <ele>134.19999694824</ele>
        <time>2024-10-13T07:28:53.000Z</time>
      </trkpt>
      <trkpt lat="49.34042" lon="0.93548">
        <ele>133.80000305176</ele>
        <time>2024-10-13T07:29:05.000Z</time>
      </trkpt>
      <trkpt lat="49.34033" lon="0.93605">
        <ele>134.39999389648</ele>
        <time>2024-10-13T07:29:13.000Z</time>
      </trkpt>
      <trkpt lat="49.34026" lon="0.93652">
        <ele>135.80000305176</ele>
        <time>2024-10-13T07:29:20.000Z</time>
      </trkpt>
      <trkpt lat="49.34025" lon="0.93666">
        <ele>135.80000305176</ele>
        <time>2024-10-13T07:29:22.000Z</time>
      </trkpt>
      <trkpt lat="49.34024" lon="0.93672">
        <ele>136</ele>
        <time>2024-10-13T07:29:23.000Z</time>
      </trkpt>
      <trkpt lat="49.34023" lon="0.93679">
        <ele>136</ele>
        <time>2024-10-13T07:29:24.000Z</time>
      </trkpt>
      <trkpt lat="49.34006" lon="0.9376">
        <ele>135</ele>
        <time>2024-10-13T07:29:35.000Z</time>
      </trkpt>
      <trkpt lat="49.33993" lon="0.93845">
        <ele>132.19999694824</ele>
        <time>2024-10-13T07:29:47.000Z</time>
      </trkpt>
      <trkpt lat="49.33981" lon="0.93925">
        <ele>130.80000305176</ele>
        <time>2024-10-13T07:29:57.000Z</time>
      </trkpt>
      <trkpt lat="49.33971" lon="0.94006">
        <ele>131.60000610352</ele>
        <time>2024-10-13T07:30:08.000Z</time>
      </trkpt>
      <trkpt lat="49.33969" lon="0.9402">
        <ele>132</ele>
        <time>2024-10-13T07:30:10.000Z</time>
      </trkpt>
      <trkpt lat="49.33957" lon="0.94082">
        <ele>133.19999694824</ele>
        <time>2024-10-13T07:30:18.000Z</time>
      </trkpt>
      <trkpt lat="49.33947" lon="0.94143">
        <ele>131.60000610352</ele>
        <time>2024-10-13T07:30:26.000Z</time>
      </trkpt>
      <trkpt lat="49.33933" lon="0.94228">
        <ele>129.19999694824</ele>
        <time>2024-10-13T07:30:38.000Z</time>
      </trkpt>
      <trkpt lat="49.3392" lon="0.94305">
        <ele>129</ele>
        <time>2024-10-13T07:30:48.000Z</time>
      </trkpt>
      <trkpt lat="49.33911" lon="0.94352">
        <ele>128</ele>
        <time>2024-10-13T07:30:54.000Z</time>
      </trkpt>
      <trkpt lat="49.33899" lon="0.94435">
        <ele>128.80000305176</ele>
        <time>2024-10-13T07:31:04.000Z</time>
      </trkpt>
      <trkpt lat="49.33888" lon="0.94488">
        <ele>131</ele>
        <time>2024-10-13T07:31:10.000Z</time>
      </trkpt>
      <trkpt lat="49.33879" lon="0.94565">
        <ele>128.60000610352</ele>
        <time>2024-10-13T07:31:18.000Z</time>
      </trkpt>
      <trkpt lat="49.33877" lon="0.94574">
        <ele>128.60000610352</ele>
        <time>2024-10-13T07:31:19.000Z</time>
      </trkpt>
      <trkpt lat="49.33875" lon="0.94583">
        <ele>128.39999389648</ele>
        <time>2024-10-13T07:31:20.000Z</time>
      </trkpt>
      <trkpt lat="49.33875" lon="0.9462">
        <ele>125.80000305176</ele>
        <time>2024-10-13T07:31:26.000Z</time>
      </trkpt>
      <trkpt lat="49.33887" lon="0.94632">
        <ele>124.19999694824</ele>
        <time>2024-10-13T07:31:30.000Z</time>
      </trkpt>
      <trkpt lat="49.33889" lon="0.94635">
        <ele>123.80000305176</ele>
        <time>2024-10-13T07:31:31.000Z</time>
      </trkpt>
      <trkpt lat="49.33888" lon="0.94644">
        <ele>123.19999694824</ele>
        <time>2024-10-13T07:31:33.000Z</time>
      </trkpt>
      <trkpt lat="49.33891" lon="0.94672">
        <ele>121.40000152588</ele>
        <time>2024-10-13T07:31:37.000Z</time>
      </trkpt>
      <trkpt lat="49.3389" lon="0.94686">
        <ele>121</ele>
        <time>2024-10-13T07:31:39.000Z</time>
      </trkpt>
      <trkpt lat="49.33886" lon="0.94733">
        <ele>120</ele>
        <time>2024-10-13T07:31:45.000Z</time>
      </trkpt>
      <trkpt lat="49.33896" lon="0.94757">
        <ele>118.80000305176</ele>
        <time>2024-10-13T07:31:50.000Z</time>
      </trkpt>
      <trkpt lat="49.33909" lon="0.94769">
        <ele>117.59999847412</ele>
        <time>2024-10-13T07:31:54.000Z</time>
      </trkpt>
      <trkpt lat="49.33907" lon="0.94791">
        <ele>116.40000152588</ele>
        <time>2024-10-13T07:31:59.000Z</time>
      </trkpt>
      <trkpt lat="49.33894" lon="0.94875">
        <ele>108.40000152588</ele>
        <time>2024-10-13T07:32:15.000Z</time>
      </trkpt>
      <trkpt lat="49.33887" lon="0.94937">
        <ele>107.19999694824</ele>
        <time>2024-10-13T07:32:27.000Z</time>
      </trkpt>
      <trkpt lat="49.3388" lon="0.95007">
        <ele>103.19999694824</ele>
        <time>2024-10-13T07:32:43.000Z</time>
      </trkpt>
      <trkpt lat="49.33879" lon="0.95009">
        <ele>103</ele>
        <time>2024-10-13T07:32:44.000Z</time>
      </trkpt>
      <trkpt lat="49.33869" lon="0.95018">
        <ele>102.80000305176</ele>
        <time>2024-10-13T07:32:49.000Z</time>
      </trkpt>
      <trkpt lat="49.33857" lon="0.95028">
        <ele>103.19999694824</ele>
        <time>2024-10-13T07:32:52.000Z</time>
      </trkpt>
      <trkpt lat="49.33844" lon="0.95043">
        <ele>104</ele>
        <time>2024-10-13T07:32:55.000Z</time>
      </trkpt>
      <trkpt lat="49.33833" lon="0.95059">
        <ele>105.19999694824</ele>
        <time>2024-10-13T07:32:58.000Z</time>
      </trkpt>
      <trkpt lat="49.33818" lon="0.95088">
        <ele>107.40000152588</ele>
        <time>2024-10-13T07:33:02.000Z</time>
      </trkpt>
      <trkpt lat="49.33814" lon="0.95103">
        <ele>108</ele>
        <time>2024-10-13T07:33:04.000Z</time>
      </trkpt>
      <trkpt lat="49.33807" lon="0.95152">
        <ele>109.19999694824</ele>
        <time>2024-10-13T07:33:10.000Z</time>
      </trkpt>
      <trkpt lat="49.33807" lon="0.95161">
        <ele>109.40000152588</ele>
        <time>2024-10-13T07:33:11.000Z</time>
      </trkpt>
      <trkpt lat="49.33812" lon="0.95224">
        <ele>107.80000305176</ele>
        <time>2024-10-13T07:33:18.000Z</time>
      </trkpt>
      <trkpt lat="49.33812" lon="0.95234">
        <ele>107.19999694824</ele>
        <time>2024-10-13T07:33:19.000Z</time>
      </trkpt>
      <trkpt lat="49.33813" lon="0.95243">
        <ele>106.59999847412</ele>
        <time>2024-10-13T07:33:20.000Z</time>
      </trkpt>
      <trkpt lat="49.33821" lon="0.95331">
        <ele>103.80000305176</ele>
        <time>2024-10-13T07:33:30.000Z</time>
      </trkpt>
      <trkpt lat="49.33822" lon="0.95366">
        <ele>103.19999694824</ele>
        <time>2024-10-13T07:33:34.000Z</time>
      </trkpt>
      <trkpt lat="49.33822" lon="0.95458">
        <ele>97.800003051758</ele>
        <time>2024-10-13T07:33:44.000Z</time>
      </trkpt>
      <trkpt lat="49.33838" lon="0.95546">
        <ele>97.800003051758</ele>
        <time>2024-10-13T07:33:53.000Z</time>
      </trkpt>
      <trkpt lat="49.33853" lon="0.95628">
        <ele>97.400001525879</ele>
        <time>2024-10-13T07:34:03.000Z</time>
      </trkpt>
      <trkpt lat="49.33847" lon="0.95663">
        <ele>94.800003051758</ele>
        <time>2024-10-13T07:34:07.000Z</time>
      </trkpt>
      <trkpt lat="49.33847" lon="0.95756">
        <ele>88.400001525879</ele>
        <time>2024-10-13T07:34:15.000Z</time>
      </trkpt>
      <trkpt lat="49.3385" lon="0.95839">
        <ele>85.599998474121</ele>
        <time>2024-10-13T07:34:23.000Z</time>
      </trkpt>
      <trkpt lat="49.33852" lon="0.9588">
        <ele>84.400001525879</ele>
        <time>2024-10-13T07:34:27.000Z</time>
      </trkpt>
      <trkpt lat="49.33853" lon="0.95889">
        <ele>84.599998474121</ele>
        <time>2024-10-13T07:34:28.000Z</time>
      </trkpt>
      <trkpt lat="49.33859" lon="0.95978">
        <ele>82.800003051758</ele>
        <time>2024-10-13T07:34:39.000Z</time>
      </trkpt>
      <trkpt lat="49.33859" lon="0.95994">
        <ele>82</ele>
        <time>2024-10-13T07:34:41.000Z</time>
      </trkpt>
      <trkpt lat="49.33855" lon="0.9601">
        <ele>80.800003051758</ele>
        <time>2024-10-13T07:34:43.000Z</time>
      </trkpt>
      <trkpt lat="49.33846" lon="0.96093">
        <ele>82.400001525879</ele>
        <time>2024-10-13T07:34:58.000Z</time>
      </trkpt>
      <trkpt lat="49.33847" lon="0.96101">
        <ele>82.800003051758</ele>
        <time>2024-10-13T07:35:01.000Z</time>
      </trkpt>
      <trkpt lat="49.33848" lon="0.96104">
        <ele>83</ele>
        <time>2024-10-13T07:35:02.000Z</time>
      </trkpt>
      <trkpt lat="49.33849" lon="0.96105">
        <ele>83</ele>
        <time>2024-10-13T07:35:03.000Z</time>
      </trkpt>
      <trkpt lat="49.33846" lon="0.96102">
        <ele>82.800003051758</ele>
        <time>2024-10-13T07:35:11.000Z</time>
      </trkpt>
      <trkpt lat="49.33838" lon="0.96091">
        <ele>82</ele>
        <time>2024-10-13T07:35:14.000Z</time>
      </trkpt>
      <trkpt lat="49.33815" lon="0.96065">
        <ele>79.199996948242</ele>
        <time>2024-10-13T07:35:19.000Z</time>
      </trkpt>
      <trkpt lat="49.33768" lon="0.96012">
        <ele>73.599998474121</ele>
        <time>2024-10-13T07:35:28.000Z</time>
      </trkpt>
      <trkpt lat="49.33724" lon="0.95963">
        <ele>68.599998474121</ele>
        <time>2024-10-13T07:35:37.000Z</time>
      </trkpt>
      <trkpt lat="49.33694" lon="0.95927">
        <ele>66.599998474121</ele>
        <time>2024-10-13T07:35:42.000Z</time>
      </trkpt>
      <trkpt lat="49.33649" lon="0.95877">
        <ele>58</ele>
        <time>2024-10-13T07:35:48.000Z</time>
      </trkpt>
      <trkpt lat="49.33605" lon="0.95821">
        <ele>53</ele>
        <time>2024-10-13T07:35:54.000Z</time>
      </trkpt>
      <trkpt lat="49.33583" lon="0.95791">
        <ele>50.400001525879</ele>
        <time>2024-10-13T07:35:57.000Z</time>
      </trkpt>
      <trkpt lat="49.33564" lon="0.95766">
        <ele>47.200000762939</ele>
        <time>2024-10-13T07:36:00.000Z</time>
      </trkpt>
      <trkpt lat="49.33554" lon="0.95757">
        <ele>45.799999237061</ele>
        <time>2024-10-13T07:36:02.000Z</time>
      </trkpt>
      <trkpt lat="49.33544" lon="0.95754">
        <ele>45.200000762939</ele>
        <time>2024-10-13T07:36:04.000Z</time>
      </trkpt>
      <trkpt lat="49.33537" lon="0.95772">
        <ele>46.200000762939</ele>
        <time>2024-10-13T07:36:07.000Z</time>
      </trkpt>
      <trkpt lat="49.3352" lon="0.95817">
        <ele>46.799999237061</ele>
        <time>2024-10-13T07:36:14.000Z</time>
      </trkpt>
      <trkpt lat="49.33499" lon="0.9585">
        <ele>45.599998474121</ele>
        <time>2024-10-13T07:36:19.000Z</time>
      </trkpt>
      <trkpt lat="49.33455" lon="0.95881">
        <ele>43</ele>
        <time>2024-10-13T07:36:29.000Z</time>
      </trkpt>
      <trkpt lat="49.33445" lon="0.95883">
        <ele>41.799999237061</ele>
        <time>2024-10-13T07:36:31.000Z</time>
      </trkpt>
      <trkpt lat="49.33411" lon="0.95879">
        <ele>40</ele>
        <time>2024-10-13T07:36:37.000Z</time>
      </trkpt>
      <trkpt lat="49.33399" lon="0.95884">
        <ele>40.400001525879</ele>
        <time>2024-10-13T07:36:39.000Z</time>
      </trkpt>
      <trkpt lat="49.33387" lon="0.95887">
        <ele>41.200000762939</ele>
        <time>2024-10-13T07:36:41.000Z</time>
      </trkpt>
      <trkpt lat="49.33376" lon="0.9588">
        <ele>41.599998474121</ele>
        <time>2024-10-13T07:36:43.000Z</time>
      </trkpt>
      <trkpt lat="49.33372" lon="0.95866">
        <ele>41.400001525879</ele>
        <time>2024-10-13T07:36:45.000Z</time>
      </trkpt>
      <trkpt lat="49.3338" lon="0.95782">
        <ele>41.599998474121</ele>
        <time>2024-10-13T07:37:01.000Z</time>
      </trkpt>
      <trkpt lat="49.33389" lon="0.95725">
        <ele>44.400001525879</ele>
        <time>2024-10-13T07:37:15.000Z</time>
      </trkpt>
      <trkpt lat="49.33388" lon="0.95703">
        <ele>45.200000762939</ele>
        <time>2024-10-13T07:37:20.000Z</time>
      </trkpt>
      <trkpt lat="49.33389" lon="0.95681">
        <ele>46</ele>
        <time>2024-10-13T07:37:25.000Z</time>
      </trkpt>
      <trkpt lat="49.33381" lon="0.95651">
        <ele>48</ele>
        <time>2024-10-13T07:37:33.000Z</time>
      </trkpt>
      <trkpt lat="49.33371" lon="0.95634">
        <ele>50.400001525879</ele>
        <time>2024-10-13T07:37:38.000Z</time>
      </trkpt>
      <trkpt lat="49.33356" lon="0.95611">
        <ele>53.400001525879</ele>
        <time>2024-10-13T07:37:46.000Z</time>
      </trkpt>
      <trkpt lat="49.33352" lon="0.95608">
        <ele>54.200000762939</ele>
        <time>2024-10-13T07:37:48.000Z</time>
      </trkpt>
      <trkpt lat="49.33341" lon="0.95605">
        <ele>55.799999237061</ele>
        <time>2024-10-13T07:37:53.000Z</time>
      </trkpt>
      <trkpt lat="49.33329" lon="0.95604">
        <ele>57</ele>
        <time>2024-10-13T07:37:57.000Z</time>
      </trkpt>
      <trkpt lat="49.33326" lon="0.95604">
        <ele>57</ele>
        <time>2024-10-13T07:37:58.000Z</time>
      </trkpt>
      <trkpt lat="49.33323" lon="0.95604">
        <ele>57</ele>
        <time>2024-10-13T07:37:59.000Z</time>
      </trkpt>
      <trkpt lat="49.33319" lon="0.95605">
        <ele>57</ele>
        <time>2024-10-13T07:38:00.000Z</time>
      </trkpt>
      <trkpt lat="49.33316" lon="0.95605">
        <ele>57</ele>
        <time>2024-10-13T07:38:01.000Z</time>
      </trkpt>
      <trkpt lat="49.33312" lon="0.95606">
        <ele>57</ele>
        <time>2024-10-13T07:38:02.000Z</time>
      </trkpt>
      <trkpt lat="49.33309" lon="0.95606">
        <ele>57</ele>
        <time>2024-10-13T07:38:03.000Z</time>
      </trkpt>
      <trkpt lat="49.33305" lon="0.95606">
        <ele>57.400001525879</ele>
        <time>2024-10-13T07:38:04.000Z</time>
      </trkpt>
      <trkpt lat="49.33301" lon="0.95606">
        <ele>57.599998474121</ele>
        <time>2024-10-13T07:38:05.000Z</time>
      </trkpt>
      <trkpt lat="49.33289" lon="0.95612">
        <ele>57</ele>
        <time>2024-10-13T07:38:09.000Z</time>
      </trkpt>
      <trkpt lat="49.3328" lon="0.95618">
        <ele>56.400001525879</ele>
        <time>2024-10-13T07:38:12.000Z</time>
      </trkpt>
      <trkpt lat="49.33242" lon="0.95656">
        <ele>55.799999237061</ele>
        <time>2024-10-13T07:38:28.000Z</time>
      </trkpt>
      <trkpt lat="49.3324" lon="0.95658">
        <ele>55.599998474121</ele>
        <time>2024-10-13T07:38:29.000Z</time>
      </trkpt>
      <trkpt lat="49.33234" lon="0.95664">
        <ele>55.599998474121</ele>
        <time>2024-10-13T07:38:30.000Z</time>
      </trkpt>
      <trkpt lat="49.33234" lon="0.95664">
        <ele>55.599998474121</ele>
        <time>2024-10-13T07:38:31.000Z</time>
      </trkpt>
      <trkpt lat="49.33231" lon="0.95666">
        <ele>55.599998474121</ele>
        <time>2024-10-13T07:38:32.000Z</time>
      </trkpt>
      <trkpt lat="49.33229" lon="0.95667">
        <ele>55.599998474121</ele>
        <time>2024-10-13T07:38:33.000Z</time>
      </trkpt>
      <trkpt lat="49.33227" lon="0.95669">
        <ele>55.599998474121</ele>
        <time>2024-10-13T07:38:34.000Z</time>
      </trkpt>
      <trkpt lat="49.33225" lon="0.95672">
        <ele>55.799999237061</ele>
        <time>2024-10-13T07:38:35.000Z</time>
      </trkpt>
      <trkpt lat="49.33224" lon="0.95675">
        <ele>55.799999237061</ele>
        <time>2024-10-13T07:38:36.000Z</time>
      </trkpt>
      <trkpt lat="49.3322" lon="0.9568">
        <ele>55.799999237061</ele>
        <time>2024-10-13T07:38:38.000Z</time>
      </trkpt>
      <trkpt lat="49.33216" lon="0.95683">
        <ele>55.799999237061</ele>
        <time>2024-10-13T07:38:40.000Z</time>
      </trkpt>
      <trkpt lat="49.33213" lon="0.95686">
        <ele>56</ele>
        <time>2024-10-13T07:38:42.000Z</time>
      </trkpt>
      <trkpt lat="49.33212" lon="0.95688">
        <ele>56</ele>
        <time>2024-10-13T07:38:43.000Z</time>
      </trkpt>
      <trkpt lat="49.3321" lon="0.9569">
        <ele>55.799999237061</ele>
        <time>2024-10-13T07:38:44.000Z</time>
      </trkpt>
      <trkpt lat="49.3321" lon="0.95693">
        <ele>55.599998474121</ele>
        <time>2024-10-13T07:38:45.000Z</time>
      </trkpt>
      <trkpt lat="49.33208" lon="0.957">
        <ele>55.200000762939</ele>
        <time>2024-10-13T07:38:47.000Z</time>
      </trkpt>
      <trkpt lat="49.33206" lon="0.95705">
        <ele>55</ele>
        <time>2024-10-13T07:38:48.000Z</time>
      </trkpt>
      <trkpt lat="49.33202" lon="0.95712">
        <ele>54.799999237061</ele>
        <time>2024-10-13T07:38:49.000Z</time>
      </trkpt>
      <trkpt lat="49.33199" lon="0.95717">
        <ele>54.599998474121</ele>
        <time>2024-10-13T07:38:50.000Z</time>
      </trkpt>
      <trkpt lat="49.33198" lon="0.95721">
        <ele>54.400001525879</ele>
        <time>2024-10-13T07:38:51.000Z</time>
      </trkpt>
      <trkpt lat="49.33197" lon="0.95725">
        <ele>54.200000762939</ele>
        <time>2024-10-13T07:38:52.000Z</time>
      </trkpt>
      <trkpt lat="49.33195" lon="0.95728">
        <ele>54</ele>
        <time>2024-10-13T07:38:53.000Z</time>
      </trkpt>
      <trkpt lat="49.33192" lon="0.95733">
        <ele>53.799999237061</ele>
        <time>2024-10-13T07:38:54.000Z</time>
      </trkpt>
      <trkpt lat="49.33185" lon="0.95754">
        <ele>53</ele>
        <time>2024-10-13T07:38:59.000Z</time>
      </trkpt>
      <trkpt lat="49.33183" lon="0.95767">
        <ele>52.599998474121</ele>
        <time>2024-10-13T07:39:02.000Z</time>
      </trkpt>
      <trkpt lat="49.3318" lon="0.95781">
        <ele>52.400001525879</ele>
        <time>2024-10-13T07:39:05.000Z</time>
      </trkpt>
      <trkpt lat="49.33172" lon="0.95802">
        <ele>52.599998474121</ele>
        <time>2024-10-13T07:39:08.000Z</time>
      </trkpt>
      <trkpt lat="49.33162" lon="0.95823">
        <ele>53</ele>
        <time>2024-10-13T07:39:11.000Z</time>
      </trkpt>
      <trkpt lat="49.3316" lon="0.95832">
        <ele>53.400001525879</ele>
        <time>2024-10-13T07:39:13.000Z</time>
      </trkpt>
      <trkpt lat="49.33151" lon="0.95863">
        <ele>53.599998474121</ele>
        <time>2024-10-13T07:39:19.000Z</time>
      </trkpt>
      <trkpt lat="49.33135" lon="0.95907">
        <ele>55.599998474121</ele>
        <time>2024-10-13T07:39:27.000Z</time>
      </trkpt>
      <trkpt lat="49.33132" lon="0.95922">
        <ele>55.799999237061</ele>
        <time>2024-10-13T07:39:30.000Z</time>
      </trkpt>
      <trkpt lat="49.33126" lon="0.95939">
        <ele>56.799999237061</ele>
        <time>2024-10-13T07:39:34.000Z</time>
      </trkpt>
      <trkpt lat="49.33121" lon="0.95952">
        <ele>57.599998474121</ele>
        <time>2024-10-13T07:39:38.000Z</time>
      </trkpt>
      <trkpt lat="49.3312" lon="0.95958">
        <ele>57.599998474121</ele>
        <time>2024-10-13T07:39:40.000Z</time>
      </trkpt>
      <trkpt lat="49.33113" lon="0.95984">
        <ele>57.799999237061</ele>
        <time>2024-10-13T07:39:49.000Z</time>
      </trkpt>
      <trkpt lat="49.33112" lon="0.96002">
        <ele>59</ele>
        <time>2024-10-13T07:39:56.000Z</time>
      </trkpt>
      <trkpt lat="49.33109" lon="0.96015">
        <ele>60.599998474121</ele>
        <time>2024-10-13T07:40:01.000Z</time>
      </trkpt>
      <trkpt lat="49.33108" lon="0.96023">
        <ele>62.200000762939</ele>
        <time>2024-10-13T07:40:05.000Z</time>
      </trkpt>
      <trkpt lat="49.33106" lon="0.96036">
        <ele>64.400001525879</ele>
        <time>2024-10-13T07:40:11.000Z</time>
      </trkpt>
      <trkpt lat="49.33104" lon="0.96055">
        <ele>69</ele>
        <time>2024-10-13T07:40:18.000Z</time>
      </trkpt>
      <trkpt lat="49.33103" lon="0.96068">
        <ele>71.400001525879</ele>
        <time>2024-10-13T07:40:24.000Z</time>
      </trkpt>
      <trkpt lat="49.33105" lon="0.96081">
        <ele>72.800003051758</ele>
        <time>2024-10-13T07:40:31.000Z</time>
      </trkpt>
      <trkpt lat="49.33109" lon="0.96091">
        <ele>72.400001525879</ele>
        <time>2024-10-13T07:40:40.000Z</time>
      </trkpt>
      <trkpt lat="49.33108" lon="0.96095">
        <ele>73.199996948242</ele>
        <time>2024-10-13T07:40:46.000Z</time>
      </trkpt>
      <trkpt lat="49.33109" lon="0.96115">
        <ele>74.599998474121</ele>
        <time>2024-10-13T07:40:54.000Z</time>
      </trkpt>
      <trkpt lat="49.3311" lon="0.96122">
        <ele>74.599998474121</ele>
        <time>2024-10-13T07:40:57.000Z</time>
      </trkpt>
      <trkpt lat="49.33122" lon="0.96162">
        <ele>71.199996948242</ele>
        <time>2024-10-13T07:41:05.000Z</time>
      </trkpt>
      <trkpt lat="49.3313" lon="0.96214">
        <ele>69.199996948242</ele>
        <time>2024-10-13T07:41:12.000Z</time>
      </trkpt>
      <trkpt lat="49.3311" lon="0.96271">
        <ele>66.400001525879</ele>
        <time>2024-10-13T07:41:22.000Z</time>
      </trkpt>
      <trkpt lat="49.33096" lon="0.96296">
        <ele>65.800003051758</ele>
        <time>2024-10-13T07:41:29.000Z</time>
      </trkpt>
      <trkpt lat="49.33095" lon="0.96297">
        <ele>65.800003051758</ele>
        <time>2024-10-13T07:41:31.000Z</time>
      </trkpt>
      <trkpt lat="49.3309" lon="0.96293">
        <ele>66.199996948242</ele>
        <time>2024-10-13T07:41:35.000Z</time>
      </trkpt>
      <trkpt lat="49.33089" lon="0.96292">
        <ele>66.199996948242</ele>
        <time>2024-10-13T07:41:36.000Z</time>
      </trkpt>
      <trkpt lat="49.33088" lon="0.9629">
        <ele>66.400001525879</ele>
        <time>2024-10-13T07:41:37.000Z</time>
      </trkpt>
      <trkpt lat="49.33088" lon="0.96289">
        <ele>66.400001525879</ele>
        <time>2024-10-13T07:41:38.000Z</time>
      </trkpt>
      <trkpt lat="49.33088" lon="0.96289">
        <ele>66.599998474121</ele>
        <time>2024-10-13T07:41:39.000Z</time>
      </trkpt>
      <trkpt lat="49.33087" lon="0.96286">
        <ele>66.800003051758</ele>
        <time>2024-10-13T07:41:41.000Z</time>
      </trkpt>
      <trkpt lat="49.33085" lon="0.96283">
        <ele>67.199996948242</ele>
        <time>2024-10-13T07:41:43.000Z</time>
      </trkpt>
      <trkpt lat="49.3308" lon="0.96269">
        <ele>69.199996948242</ele>
        <time>2024-10-13T07:41:51.000Z</time>
      </trkpt>
      <trkpt lat="49.33079" lon="0.96266">
        <ele>69.599998474121</ele>
        <time>2024-10-13T07:41:53.000Z</time>
      </trkpt>
      <trkpt lat="49.33079" lon="0.96265">
        <ele>69.800003051758</ele>
        <time>2024-10-13T07:41:54.000Z</time>
      </trkpt>
      <trkpt lat="49.33078" lon="0.9626">
        <ele>70.199996948242</ele>
        <time>2024-10-13T07:41:57.000Z</time>
      </trkpt>
      <trkpt lat="49.33077" lon="0.96254">
        <ele>71.199996948242</ele>
        <time>2024-10-13T07:42:00.000Z</time>
      </trkpt>
      <trkpt lat="49.3307" lon="0.96237">
        <ele>73.800003051758</ele>
        <time>2024-10-13T07:42:10.000Z</time>
      </trkpt>
      <trkpt lat="49.33068" lon="0.96232">
        <ele>74.599998474121</ele>
        <time>2024-10-13T07:42:13.000Z</time>
      </trkpt>
      <trkpt lat="49.33066" lon="0.96226">
        <ele>75.400001525879</ele>
        <time>2024-10-13T07:42:18.000Z</time>
      </trkpt>
      <trkpt lat="49.33066" lon="0.96223">
        <ele>75.800003051758</ele>
        <time>2024-10-13T07:42:22.000Z</time>
      </trkpt>
      <trkpt lat="49.33066" lon="0.9622">
        <ele>76</ele>
        <time>2024-10-13T07:42:28.000Z</time>
      </trkpt>
      <trkpt lat="49.33066" lon="0.9622">
        <ele>76</ele>
        <time>2024-10-13T07:42:33.000Z</time>
      </trkpt>
      <trkpt lat="49.33066" lon="0.96219">
        <ele>76.199996948242</ele>
        <time>2024-10-13T07:42:38.000Z</time>
      </trkpt>
      <trkpt lat="49.33065" lon="0.96216">
        <ele>76.400001525879</ele>
        <time>2024-10-13T07:42:48.000Z</time>
      </trkpt>
      <trkpt lat="49.33065" lon="0.96215">
        <ele>76.599998474121</ele>
        <time>2024-10-13T07:42:53.000Z</time>
      </trkpt>
      <trkpt lat="49.33065" lon="0.96215">
        <ele>76.599998474121</ele>
        <time>2024-10-13T07:42:55.000Z</time>
      </trkpt>
      <trkpt lat="49.33065" lon="0.96214">
        <ele>76.599998474121</ele>
        <time>2024-10-13T07:42:58.000Z</time>
      </trkpt>
      <trkpt lat="49.33065" lon="0.96214">
        <ele>76.599998474121</ele>
        <time>2024-10-13T07:42:59.000Z</time>
      </trkpt>
      <trkpt lat="49.33065" lon="0.96213">
        <ele>76.800003051758</ele>
        <time>2024-10-13T07:43:00.000Z</time>
      </trkpt>
      <trkpt lat="49.33065" lon="0.96213">
        <ele>76.800003051758</ele>
        <time>2024-10-13T07:43:01.000Z</time>
      </trkpt>
      <trkpt lat="49.33065" lon="0.96213">
        <ele>76.800003051758</ele>
        <time>2024-10-13T07:43:02.000Z</time>
      </trkpt>
      <trkpt lat="49.33065" lon="0.96213">
        <ele>76.800003051758</ele>
        <time>2024-10-13T07:43:03.000Z</time>
      </trkpt>
      <trkpt lat="49.33065" lon="0.96213">
        <ele>76.800003051758</ele>
        <time>2024-10-13T07:43:04.000Z</time>
      </trkpt>
      <trkpt lat="49.33065" lon="0.96213">
        <ele>76.800003051758</ele>
        <time>2024-10-13T07:43:05.000Z</time>
      </trkpt>
      <trkpt lat="49.33065" lon="0.96213">
        <ele>76.800003051758</ele>
        <time>2024-10-13T07:43:06.000Z</time>
      </trkpt>
      <trkpt lat="49.33065" lon="0.96213">
        <ele>76.800003051758</ele>
        <time>2024-10-13T07:43:07.000Z</time>
      </trkpt>
      <trkpt lat="49.33065" lon="0.96213">
        <ele>76.800003051758</ele>
        <time>2024-10-13T07:43:08.000Z</time>
      </trkpt>
      <trkpt lat="49.33065" lon="0.96213">
        <ele>76.800003051758</ele>
        <time>2024-10-13T07:43:09.000Z</time>
      </trkpt>
      <trkpt lat="49.33065" lon="0.96212">
        <ele>77</ele>
        <time>2024-10-13T07:43:10.000Z</time>
      </trkpt>
      <trkpt lat="49.33065" lon="0.96211">
        <ele>77</ele>
        <time>2024-10-13T07:43:12.000Z</time>
      </trkpt>
      <trkpt lat="49.33064" lon="0.96209">
        <ele>77.400001525879</ele>
        <time>2024-10-13T07:43:15.000Z</time>
      </trkpt>
      <trkpt lat="49.33064" lon="0.96208">
        <ele>77.400001525879</ele>
        <time>2024-10-13T07:43:17.000Z</time>
      </trkpt>
      <trkpt lat="49.33064" lon="0.96207">
        <ele>77.599998474121</ele>
        <time>2024-10-13T07:43:19.000Z</time>
      </trkpt>
      <trkpt lat="49.33062" lon="0.96197">
        <ele>78.800003051758</ele>
        <time>2024-10-13T07:43:21.000Z</time>
      </trkpt>
      <trkpt lat="49.3306" lon="0.96189">
        <ele>80</ele>
        <time>2024-10-13T07:43:23.000Z</time>
      </trkpt>
      <trkpt lat="49.33056" lon="0.96174">
        <ele>82</ele>
        <time>2024-10-13T07:43:28.000Z</time>
      </trkpt>
      <trkpt lat="49.3305" lon="0.96157">
        <ele>84.599998474121</ele>
        <time>2024-10-13T07:43:34.000Z</time>
      </trkpt>
      <trkpt lat="49.33048" lon="0.96148">
        <ele>85.599998474121</ele>
        <time>2024-10-13T07:43:37.000Z</time>
      </trkpt>
      <trkpt lat="49.33047" lon="0.96143">
        <ele>86.400001525879</ele>
        <time>2024-10-13T07:43:39.000Z</time>
      </trkpt>
      <trkpt lat="49.33033" lon="0.96114">
        <ele>90.599998474121</ele>
        <time>2024-10-13T07:43:51.000Z</time>
      </trkpt>
      <trkpt lat="49.33023" lon="0.96083">
        <ele>93.599998474121</ele>
        <time>2024-10-13T07:44:04.000Z</time>
      </trkpt>
      <trkpt lat="49.3302" lon="0.96076">
        <ele>94.199996948242</ele>
        <time>2024-10-13T07:44:07.000Z</time>
      </trkpt>
      <trkpt lat="49.3302" lon="0.96074">
        <ele>94.400001525879</ele>
        <time>2024-10-13T07:44:08.000Z</time>
      </trkpt>
      <trkpt lat="49.33019" lon="0.96071">
        <ele>94.599998474121</ele>
        <time>2024-10-13T07:44:09.000Z</time>
      </trkpt>
      <trkpt lat="49.33017" lon="0.96069">
        <ele>95</ele>
        <time>2024-10-13T07:44:10.000Z</time>
      </trkpt>
      <trkpt lat="49.3301" lon="0.96041">
        <ele>97</ele>
        <time>2024-10-13T07:44:20.000Z</time>
      </trkpt>
      <trkpt lat="49.33006" lon="0.96026">
        <ele>98</ele>
        <time>2024-10-13T07:44:25.000Z</time>
      </trkpt>
      <trkpt lat="49.33002" lon="0.96012">
        <ele>98.800003051758</ele>
        <time>2024-10-13T07:44:29.000Z</time>
      </trkpt>
      <trkpt lat="49.32997" lon="0.95991">
        <ele>99.599998474121</ele>
        <time>2024-10-13T07:44:35.000Z</time>
      </trkpt>
      <trkpt lat="49.3298" lon="0.95953">
        <ele>101</ele>
        <time>2024-10-13T07:44:47.000Z</time>
      </trkpt>
      <trkpt lat="49.32974" lon="0.95935">
        <ele>101.59999847412</ele>
        <time>2024-10-13T07:44:52.000Z</time>
      </trkpt>
      <trkpt lat="49.32972" lon="0.95928">
        <ele>101.80000305176</ele>
        <time>2024-10-13T07:44:54.000Z</time>
      </trkpt>
      <trkpt lat="49.32971" lon="0.95924">
        <ele>102</ele>
        <time>2024-10-13T07:44:55.000Z</time>
      </trkpt>
      <trkpt lat="49.32967" lon="0.95909">
        <ele>102.80000305176</ele>
        <time>2024-10-13T07:44:59.000Z</time>
      </trkpt>
      <trkpt lat="49.32966" lon="0.95906">
        <ele>103</ele>
        <time>2024-10-13T07:45:00.000Z</time>
      </trkpt>
      <trkpt lat="49.32963" lon="0.95899">
        <ele>103.40000152588</ele>
        <time>2024-10-13T07:45:01.000Z</time>
      </trkpt>
      <trkpt lat="49.32963" lon="0.95899">
        <ele>103.40000152588</ele>
        <time>2024-10-13T07:45:02.000Z</time>
      </trkpt>
      <trkpt lat="49.32959" lon="0.95888">
        <ele>104.19999694824</ele>
        <time>2024-10-13T07:45:05.000Z</time>
      </trkpt>
      <trkpt lat="49.3295" lon="0.95858">
        <ele>105.80000305176</ele>
        <time>2024-10-13T07:45:13.000Z</time>
      </trkpt>
      <trkpt lat="49.32949" lon="0.95854">
        <ele>106</ele>
        <time>2024-10-13T07:45:14.000Z</time>
      </trkpt>
      <trkpt lat="49.32948" lon="0.9585">
        <ele>106.19999694824</ele>
        <time>2024-10-13T07:45:15.000Z</time>
      </trkpt>
      <trkpt lat="49.32947" lon="0.95846">
        <ele>106.40000152588</ele>
        <time>2024-10-13T07:45:16.000Z</time>
      </trkpt>
      <trkpt lat="49.32945" lon="0.95836">
        <ele>106.59999847412</ele>
        <time>2024-10-13T07:45:19.000Z</time>
      </trkpt>
      <trkpt lat="49.32943" lon="0.95828">
        <ele>106.80000305176</ele>
        <time>2024-10-13T07:45:21.000Z</time>
      </trkpt>
      <trkpt lat="49.32939" lon="0.9582">
        <ele>107</ele>
        <time>2024-10-13T07:45:24.000Z</time>
      </trkpt>
      <trkpt lat="49.32935" lon="0.95814">
        <ele>107.40000152588</ele>
        <time>2024-10-13T07:45:26.000Z</time>
      </trkpt>
      <trkpt lat="49.3293" lon="0.95804">
        <ele>107.80000305176</ele>
        <time>2024-10-13T07:45:29.000Z</time>
      </trkpt>
      <trkpt lat="49.32928" lon="0.958">
        <ele>107.80000305176</ele>
        <time>2024-10-13T07:45:30.000Z</time>
      </trkpt>
      <trkpt lat="49.32927" lon="0.95798">
        <ele>108</ele>
        <time>2024-10-13T07:45:31.000Z</time>
      </trkpt>
      <trkpt lat="49.32923" lon="0.95787">
        <ele>108.19999694824</ele>
        <time>2024-10-13T07:45:34.000Z</time>
      </trkpt>
      <trkpt lat="49.3292" lon="0.95776">
        <ele>109</ele>
        <time>2024-10-13T07:45:37.000Z</time>
      </trkpt>
      <trkpt lat="49.32917" lon="0.95768">
        <ele>109.40000152588</ele>
        <time>2024-10-13T07:45:38.000Z</time>
      </trkpt>
      <trkpt lat="49.32916" lon="0.95759">
        <ele>109.59999847412</ele>
        <time>2024-10-13T07:45:41.000Z</time>
      </trkpt>
      <trkpt lat="49.32886" lon="0.95694">
        <ele>114.19999694824</ele>
        <time>2024-10-13T07:45:58.000Z</time>
      </trkpt>
      <trkpt lat="49.32873" lon="0.95684">
        <ele>116.40000152588</ele>
        <time>2024-10-13T07:46:03.000Z</time>
      </trkpt>
      <trkpt lat="49.32848" lon="0.95673">
        <ele>120.19999694824</ele>
        <time>2024-10-13T07:46:12.000Z</time>
      </trkpt>
      <trkpt lat="49.32795" lon="0.95648">
        <ele>123.19999694824</ele>
        <time>2024-10-13T07:46:35.000Z</time>
      </trkpt>
      <trkpt lat="49.32787" lon="0.95644">
        <ele>123.19999694824</ele>
        <time>2024-10-13T07:46:38.000Z</time>
      </trkpt>
      <trkpt lat="49.32774" lon="0.9564">
        <ele>123.59999847412</ele>
        <time>2024-10-13T07:46:43.000Z</time>
      </trkpt>
      <trkpt lat="49.32769" lon="0.95636">
        <ele>123.80000305176</ele>
        <time>2024-10-13T07:46:45.000Z</time>
      </trkpt>
      <trkpt lat="49.32756" lon="0.9563">
        <ele>124.40000152588</ele>
        <time>2024-10-13T07:46:50.000Z</time>
      </trkpt>
      <trkpt lat="49.32703" lon="0.95609">
        <ele>128.60000610352</ele>
        <time>2024-10-13T07:47:06.000Z</time>
      </trkpt>
      <trkpt lat="49.32676" lon="0.95598">
        <ele>129.39999389648</ele>
        <time>2024-10-13T07:47:13.000Z</time>
      </trkpt>
      <trkpt lat="49.32661" lon="0.95593">
        <ele>130</ele>
        <time>2024-10-13T07:47:17.000Z</time>
      </trkpt>
      <trkpt lat="49.32657" lon="0.95592">
        <ele>130</ele>
        <time>2024-10-13T07:47:18.000Z</time>
      </trkpt>
      <trkpt lat="49.32649" lon="0.95589">
        <ele>130</ele>
        <time>2024-10-13T07:47:20.000Z</time>
      </trkpt>
      <trkpt lat="49.32612" lon="0.95578">
        <ele>129.80000305176</ele>
        <time>2024-10-13T07:47:28.000Z</time>
      </trkpt>
      <trkpt lat="49.32579" lon="0.95566">
        <ele>131</ele>
        <time>2024-10-13T07:47:35.000Z</time>
      </trkpt>
      <trkpt lat="49.32555" lon="0.95559">
        <ele>131.80000305176</ele>
        <time>2024-10-13T07:47:40.000Z</time>
      </trkpt>
      <trkpt lat="49.32542" lon="0.95554">
        <ele>132.39999389648</ele>
        <time>2024-10-13T07:47:44.000Z</time>
      </trkpt>
      <trkpt lat="49.32541" lon="0.95549">
        <ele>132.39999389648</ele>
        <time>2024-10-13T07:47:46.000Z</time>
      </trkpt>
      <trkpt lat="49.32547" lon="0.95532">
        <ele>132.19999694824</ele>
        <time>2024-10-13T07:47:50.000Z</time>
      </trkpt>
      <trkpt lat="49.3257" lon="0.95456">
        <ele>133</ele>
        <time>2024-10-13T07:48:03.000Z</time>
      </trkpt>
      <trkpt lat="49.32578" lon="0.95439">
        <ele>132.39999389648</ele>
        <time>2024-10-13T07:48:06.000Z</time>
      </trkpt>
      <trkpt lat="49.32585" lon="0.95421">
        <ele>132</ele>
        <time>2024-10-13T07:48:09.000Z</time>
      </trkpt>
      <trkpt lat="49.32607" lon="0.95341">
        <ele>129.60000610352</ele>
        <time>2024-10-13T07:48:20.000Z</time>
      </trkpt>
      <trkpt lat="49.32632" lon="0.95274">
        <ele>128</ele>
        <time>2024-10-13T07:48:29.000Z</time>
      </trkpt>
      <trkpt lat="49.3267" lon="0.95215">
        <ele>128.39999389648</ele>
        <time>2024-10-13T07:48:38.000Z</time>
      </trkpt>
      <trkpt lat="49.32683" lon="0.95193">
        <ele>127</ele>
        <time>2024-10-13T07:48:41.000Z</time>
      </trkpt>
      <trkpt lat="49.32688" lon="0.95187">
        <ele>126.59999847412</ele>
        <time>2024-10-13T07:48:42.000Z</time>
      </trkpt>
      <trkpt lat="49.32696" lon="0.95172">
        <ele>125.19999694824</ele>
        <time>2024-10-13T07:48:44.000Z</time>
      </trkpt>
      <trkpt lat="49.32699" lon="0.95164">
        <ele>124.59999847412</ele>
        <time>2024-10-13T07:48:45.000Z</time>
      </trkpt>
      <trkpt lat="49.32703" lon="0.95156">
        <ele>123.80000305176</ele>
        <time>2024-10-13T07:48:46.000Z</time>
      </trkpt>
      <trkpt lat="49.32707" lon="0.9515">
        <ele>123.19999694824</ele>
        <time>2024-10-13T07:48:47.000Z</time>
      </trkpt>
      <trkpt lat="49.32715" lon="0.95128">
        <ele>122.19999694824</ele>
        <time>2024-10-13T07:48:51.000Z</time>
      </trkpt>
      <trkpt lat="49.32711" lon="0.95113">
        <ele>121.40000152588</ele>
        <time>2024-10-13T07:48:53.000Z</time>
      </trkpt>
      <trkpt lat="49.32699" lon="0.95079">
        <ele>119.80000305176</ele>
        <time>2024-10-13T07:48:57.000Z</time>
      </trkpt>
      <trkpt lat="49.32676" lon="0.9501">
        <ele>119</ele>
        <time>2024-10-13T07:49:05.000Z</time>
      </trkpt>
      <trkpt lat="49.32677" lon="0.94989">
        <ele>119</ele>
        <time>2024-10-13T07:49:07.000Z</time>
      </trkpt>
      <trkpt lat="49.32682" lon="0.94969">
        <ele>119.19999694824</ele>
        <time>2024-10-13T07:49:09.000Z</time>
      </trkpt>
      <trkpt lat="49.32686" lon="0.94959">
        <ele>119.59999847412</ele>
        <time>2024-10-13T07:49:10.000Z</time>
      </trkpt>
      <trkpt lat="49.32691" lon="0.94949">
        <ele>120</ele>
        <time>2024-10-13T07:49:11.000Z</time>
      </trkpt>
      <trkpt lat="49.32699" lon="0.94931">
        <ele>120.40000152588</ele>
        <time>2024-10-13T07:49:13.000Z</time>
      </trkpt>
      <trkpt lat="49.32712" lon="0.94898">
        <ele>121</ele>
        <time>2024-10-13T07:49:17.000Z</time>
      </trkpt>
      <trkpt lat="49.32732" lon="0.94829">
        <ele>121.59999847412</ele>
        <time>2024-10-13T07:49:27.000Z</time>
      </trkpt>
      <trkpt lat="49.32721" lon="0.94792">
        <ele>121</ele>
        <time>2024-10-13T07:49:33.000Z</time>
      </trkpt>
      <trkpt lat="49.32713" lon="0.9478">
        <ele>120.40000152588</ele>
        <time>2024-10-13T07:49:35.000Z</time>
      </trkpt>
      <trkpt lat="49.32702" lon="0.94766">
        <ele>119.59999847412</ele>
        <time>2024-10-13T07:49:37.000Z</time>
      </trkpt>
      <trkpt lat="49.32692" lon="0.94755">
        <ele>119</ele>
        <time>2024-10-13T07:49:39.000Z</time>
      </trkpt>
      <trkpt lat="49.32679" lon="0.94741">
        <ele>117</ele>
        <time>2024-10-13T07:49:42.000Z</time>
      </trkpt>
      <trkpt lat="49.32672" lon="0.94729">
        <ele>115.80000305176</ele>
        <time>2024-10-13T07:49:44.000Z</time>
      </trkpt>
      <trkpt lat="49.32666" lon="0.94701">
        <ele>115</ele>
        <time>2024-10-13T07:49:51.000Z</time>
      </trkpt>
      <trkpt lat="49.32659" lon="0.94686">
        <ele>114.19999694824</ele>
        <time>2024-10-13T07:49:58.000Z</time>
      </trkpt>
      <trkpt lat="49.32657" lon="0.94683">
        <ele>113.80000305176</ele>
        <time>2024-10-13T07:49:59.000Z</time>
      </trkpt>
      <trkpt lat="49.32634" lon="0.9461">
        <ele>110</ele>
        <time>2024-10-13T07:50:13.000Z</time>
      </trkpt>
      <trkpt lat="49.3263" lon="0.94584">
        <ele>109.59999847412</ele>
        <time>2024-10-13T07:50:17.000Z</time>
      </trkpt>
      <trkpt lat="49.32632" lon="0.945">
        <ele>112.59999847412</ele>
        <time>2024-10-13T07:50:34.000Z</time>
      </trkpt>
      <trkpt lat="49.3262" lon="0.9442">
        <ele>109.40000152588</ele>
        <time>2024-10-13T07:50:50.000Z</time>
      </trkpt>
      <trkpt lat="49.32603" lon="0.94353">
        <ele>108.40000152588</ele>
        <time>2024-10-13T07:51:03.000Z</time>
      </trkpt>
      <trkpt lat="49.32606" lon="0.94346">
        <ele>109</ele>
        <time>2024-10-13T07:51:06.000Z</time>
      </trkpt>
      <trkpt lat="49.32607" lon="0.94344">
        <ele>109.19999694824</ele>
        <time>2024-10-13T07:51:07.000Z</time>
      </trkpt>
      <trkpt lat="49.32606" lon="0.94341">
        <ele>109.40000152588</ele>
        <time>2024-10-13T07:51:08.000Z</time>
      </trkpt>
      <trkpt lat="49.32605" lon="0.94339">
        <ele>109.40000152588</ele>
        <time>2024-10-13T07:51:09.000Z</time>
      </trkpt>
      <trkpt lat="49.32585" lon="0.94302">
        <ele>110</ele>
        <time>2024-10-13T07:51:21.000Z</time>
      </trkpt>
      <trkpt lat="49.32576" lon="0.94275">
        <ele>110.40000152588</ele>
        <time>2024-10-13T07:51:29.000Z</time>
      </trkpt>
      <trkpt lat="49.32571" lon="0.94254">
        <ele>110.40000152588</ele>
        <time>2024-10-13T07:51:34.000Z</time>
      </trkpt>
      <trkpt lat="49.32535" lon="0.94194">
        <ele>109.40000152588</ele>
        <time>2024-10-13T07:51:53.000Z</time>
      </trkpt>
      <trkpt lat="49.32513" lon="0.94163">
        <ele>109.19999694824</ele>
        <time>2024-10-13T07:52:02.000Z</time>
      </trkpt>
      <trkpt lat="49.32489" lon="0.94147">
        <ele>108.80000305176</ele>
        <time>2024-10-13T07:52:13.000Z</time>
      </trkpt>
      <trkpt lat="49.3245" lon="0.94104">
        <ele>109.19999694824</ele>
        <time>2024-10-13T07:52:27.000Z</time>
      </trkpt>
      <trkpt lat="49.32413" lon="0.94083">
        <ele>108.40000152588</ele>
        <time>2024-10-13T07:52:35.000Z</time>
      </trkpt>
      <trkpt lat="49.32408" lon="0.94081">
        <ele>108.40000152588</ele>
        <time>2024-10-13T07:52:36.000Z</time>
      </trkpt>
      <trkpt lat="49.32405" lon="0.94076">
        <ele>108.40000152588</ele>
        <time>2024-10-13T07:52:37.000Z</time>
      </trkpt>
      <trkpt lat="49.32355" lon="0.94036">
        <ele>109</ele>
        <time>2024-10-13T07:52:51.000Z</time>
      </trkpt>
      <trkpt lat="49.32332" lon="0.93984">
        <ele>107.19999694824</ele>
        <time>2024-10-13T07:53:02.000Z</time>
      </trkpt>
      <trkpt lat="49.3233" lon="0.93979">
        <ele>107.19999694824</ele>
        <time>2024-10-13T07:53:03.000Z</time>
      </trkpt>
      <trkpt lat="49.3233" lon="0.93974">
        <ele>107</ele>
        <time>2024-10-13T07:53:04.000Z</time>
      </trkpt>
      <trkpt lat="49.3233" lon="0.93964">
        <ele>107</ele>
        <time>2024-10-13T07:53:06.000Z</time>
      </trkpt>
      <trkpt lat="49.3233" lon="0.93955">
        <ele>107.19999694824</ele>
        <time>2024-10-13T07:53:08.000Z</time>
      </trkpt>
      <trkpt lat="49.32333" lon="0.93946">
        <ele>107.59999847412</ele>
        <time>2024-10-13T07:53:10.000Z</time>
      </trkpt>
      <trkpt lat="49.32334" lon="0.93941">
        <ele>108</ele>
        <time>2024-10-13T07:53:11.000Z</time>
      </trkpt>
      <trkpt lat="49.32336" lon="0.93926">
        <ele>108</ele>
        <time>2024-10-13T07:53:14.000Z</time>
      </trkpt>
      <trkpt lat="49.32335" lon="0.93888">
        <ele>108</ele>
        <time>2024-10-13T07:53:22.000Z</time>
      </trkpt>
      <trkpt lat="49.32332" lon="0.93847">
        <ele>108</ele>
        <time>2024-10-13T07:53:29.000Z</time>
      </trkpt>
      <trkpt lat="49.32332" lon="0.93831">
        <ele>107.80000305176</ele>
        <time>2024-10-13T07:53:31.000Z</time>
      </trkpt>
      <trkpt lat="49.32367" lon="0.93796">
        <ele>109.19999694824</ele>
        <time>2024-10-13T07:53:47.000Z</time>
      </trkpt>
      <trkpt lat="49.32382" lon="0.93793">
        <ele>109.80000305176</ele>
        <time>2024-10-13T07:53:54.000Z</time>
      </trkpt>
      <trkpt lat="49.32402" lon="0.93783">
        <ele>111.19999694824</ele>
        <time>2024-10-13T07:54:03.000Z</time>
      </trkpt>
      <trkpt lat="49.32458" lon="0.93764">
        <ele>112</ele>
        <time>2024-10-13T07:54:22.000Z</time>
      </trkpt>
      <trkpt lat="49.32491" lon="0.93752">
        <ele>113.19999694824</ele>
        <time>2024-10-13T07:54:31.000Z</time>
      </trkpt>
      <trkpt lat="49.32505" lon="0.93746">
        <ele>114</ele>
        <time>2024-10-13T07:54:35.000Z</time>
      </trkpt>
      <trkpt lat="49.32508" lon="0.93744">
        <ele>114.19999694824</ele>
        <time>2024-10-13T07:54:36.000Z</time>
      </trkpt>
      <trkpt lat="49.32512" lon="0.93743">
        <ele>114.19999694824</ele>
        <time>2024-10-13T07:54:37.000Z</time>
      </trkpt>
      <trkpt lat="49.32516" lon="0.93742">
        <ele>114.40000152588</ele>
        <time>2024-10-13T07:54:38.000Z</time>
      </trkpt>
      <trkpt lat="49.32523" lon="0.93739">
        <ele>114.80000305176</ele>
        <time>2024-10-13T07:54:40.000Z</time>
      </trkpt>
      <trkpt lat="49.3253" lon="0.93736">
        <ele>115.19999694824</ele>
        <time>2024-10-13T07:54:42.000Z</time>
      </trkpt>
      <trkpt lat="49.32533" lon="0.93735">
        <ele>115.40000152588</ele>
        <time>2024-10-13T07:54:43.000Z</time>
      </trkpt>
      <trkpt lat="49.32537" lon="0.93734">
        <ele>115.59999847412</ele>
        <time>2024-10-13T07:54:44.000Z</time>
      </trkpt>
      <trkpt lat="49.32543" lon="0.93732">
        <ele>116</ele>
        <time>2024-10-13T07:54:46.000Z</time>
      </trkpt>
      <trkpt lat="49.32597" lon="0.93713">
        <ele>117.59999847412</ele>
        <time>2024-10-13T07:55:01.000Z</time>
      </trkpt>
      <trkpt lat="49.32626" lon="0.93705">
        <ele>118</ele>
        <time>2024-10-13T07:55:08.000Z</time>
      </trkpt>
      <trkpt lat="49.32633" lon="0.93704">
        <ele>118.19999694824</ele>
        <time>2024-10-13T07:55:10.000Z</time>
      </trkpt>
      <trkpt lat="49.32637" lon="0.93703">
        <ele>118.19999694824</ele>
        <time>2024-10-13T07:55:11.000Z</time>
      </trkpt>
      <trkpt lat="49.32641" lon="0.93701">
        <ele>118.40000152588</ele>
        <time>2024-10-13T07:55:12.000Z</time>
      </trkpt>
      <trkpt lat="49.32653" lon="0.93699">
        <ele>118.59999847412</ele>
        <time>2024-10-13T07:55:15.000Z</time>
      </trkpt>
      <trkpt lat="49.3266" lon="0.93697">
        <ele>118.40000152588</ele>
        <time>2024-10-13T07:55:17.000Z</time>
      </trkpt>
      <trkpt lat="49.32671" lon="0.93694">
        <ele>118.40000152588</ele>
        <time>2024-10-13T07:55:20.000Z</time>
      </trkpt>
      <trkpt lat="49.32687" lon="0.93692">
        <ele>118.59999847412</ele>
        <time>2024-10-13T07:55:24.000Z</time>
      </trkpt>
      <trkpt lat="49.32725" lon="0.93683">
        <ele>122</ele>
        <time>2024-10-13T07:55:33.000Z</time>
      </trkpt>
      <trkpt lat="49.32742" lon="0.93678">
        <ele>124.59999847412</ele>
        <time>2024-10-13T07:55:37.000Z</time>
      </trkpt>
      <trkpt lat="49.32775" lon="0.93674">
        <ele>127</ele>
        <time>2024-10-13T07:55:45.000Z</time>
      </trkpt>
      <trkpt lat="49.32803" lon="0.93667">
        <ele>127.59999847412</ele>
        <time>2024-10-13T07:55:53.000Z</time>
      </trkpt>
      <trkpt lat="49.32858" lon="0.93659">
        <ele>123.19999694824</ele>
        <time>2024-10-13T07:56:08.000Z</time>
      </trkpt>
      <trkpt lat="49.32873" lon="0.93645">
        <ele>122.19999694824</ele>
        <time>2024-10-13T07:56:12.000Z</time>
      </trkpt>
      <trkpt lat="49.32911" lon="0.93596">
        <ele>123</ele>
        <time>2024-10-13T07:56:23.000Z</time>
      </trkpt>
      <trkpt lat="49.32924" lon="0.9358">
        <ele>121</ele>
        <time>2024-10-13T07:56:26.000Z</time>
      </trkpt>
      <trkpt lat="49.32935" lon="0.93565">
        <ele>119.80000305176</ele>
        <time>2024-10-13T07:56:29.000Z</time>
      </trkpt>
      <trkpt lat="49.32972" lon="0.93501">
        <ele>117.59999847412</ele>
        <time>2024-10-13T07:56:41.000Z</time>
      </trkpt>
      <trkpt lat="49.32988" lon="0.9348">
        <ele>117.59999847412</ele>
        <time>2024-10-13T07:56:45.000Z</time>
      </trkpt>
      <trkpt lat="49.33022" lon="0.93413">
        <ele>116.59999847412</ele>
        <time>2024-10-13T07:56:57.000Z</time>
      </trkpt>
      <trkpt lat="49.33046" lon="0.9334">
        <ele>121.40000152588</ele>
        <time>2024-10-13T07:57:15.000Z</time>
      </trkpt>
      <trkpt lat="49.33062" lon="0.93289">
        <ele>127.19999694824</ele>
        <time>2024-10-13T07:57:33.000Z</time>
      </trkpt>
      <trkpt lat="49.33062" lon="0.93282">
        <ele>127.80000305176</ele>
        <time>2024-10-13T07:57:35.000Z</time>
      </trkpt>
      <trkpt lat="49.33065" lon="0.93275">
        <ele>128</ele>
        <time>2024-10-13T07:57:39.000Z</time>
      </trkpt>
      <trkpt lat="49.33067" lon="0.93265">
        <ele>128.60000610352</ele>
        <time>2024-10-13T07:57:43.000Z</time>
      </trkpt>
      <trkpt lat="49.33072" lon="0.93257">
        <ele>128.60000610352</ele>
        <time>2024-10-13T07:57:47.000Z</time>
      </trkpt>
      <trkpt lat="49.3309" lon="0.93259">
        <ele>126</ele>
        <time>2024-10-13T07:57:53.000Z</time>
      </trkpt>
      <trkpt lat="49.33108" lon="0.93267">
        <ele>122.59999847412</ele>
        <time>2024-10-13T07:57:58.000Z</time>
      </trkpt>
      <trkpt lat="49.33124" lon="0.93269">
        <ele>119.80000305176</ele>
        <time>2024-10-13T07:58:03.000Z</time>
      </trkpt>
      <trkpt lat="49.33182" lon="0.93286">
        <ele>110.40000152588</ele>
        <time>2024-10-13T07:58:18.000Z</time>
      </trkpt>
      <trkpt lat="49.33193" lon="0.93287">
        <ele>109</ele>
        <time>2024-10-13T07:58:20.000Z</time>
      </trkpt>
      <trkpt lat="49.33207" lon="0.9328">
        <ele>109</ele>
        <time>2024-10-13T07:58:24.000Z</time>
      </trkpt>
      <trkpt lat="49.33227" lon="0.93223">
        <ele>115.80000305176</ele>
        <time>2024-10-13T07:58:38.000Z</time>
      </trkpt>
      <trkpt lat="49.33228" lon="0.93219">
        <ele>116.40000152588</ele>
        <time>2024-10-13T07:58:39.000Z</time>
      </trkpt>
      <trkpt lat="49.33233" lon="0.93202">
        <ele>116.59999847412</ele>
        <time>2024-10-13T07:58:43.000Z</time>
      </trkpt>
      <trkpt lat="49.33234" lon="0.93198">
        <ele>116.80000305176</ele>
        <time>2024-10-13T07:58:44.000Z</time>
      </trkpt>
      <trkpt lat="49.33247" lon="0.93176">
        <ele>118</ele>
        <time>2024-10-13T07:58:50.000Z</time>
      </trkpt>
      <trkpt lat="49.3325" lon="0.93173">
        <ele>117.59999847412</ele>
        <time>2024-10-13T07:58:51.000Z</time>
      </trkpt>
      <trkpt lat="49.33253" lon="0.9317">
        <ele>117.19999694824</ele>
        <time>2024-10-13T07:58:52.000Z</time>
      </trkpt>
      <trkpt lat="49.33268" lon="0.93159">
        <ele>115.80000305176</ele>
        <time>2024-10-13T07:58:56.000Z</time>
      </trkpt>
      <trkpt lat="49.33275" lon="0.93151">
        <ele>115.59999847412</ele>
        <time>2024-10-13T07:58:58.000Z</time>
      </trkpt>
      <trkpt lat="49.33286" lon="0.93136">
        <ele>113.59999847412</ele>
        <time>2024-10-13T07:59:01.000Z</time>
      </trkpt>
      <trkpt lat="49.3329" lon="0.93132">
        <ele>113.59999847412</ele>
        <time>2024-10-13T07:59:02.000Z</time>
      </trkpt>
      <trkpt lat="49.33297" lon="0.93124">
        <ele>113.40000152588</ele>
        <time>2024-10-13T07:59:03.000Z</time>
      </trkpt>
      <trkpt lat="49.33297" lon="0.93124">
        <ele>113.40000152588</ele>
        <time>2024-10-13T07:59:04.000Z</time>
      </trkpt>
      <trkpt lat="49.33302" lon="0.93115">
        <ele>113.19999694824</ele>
        <time>2024-10-13T07:59:06.000Z</time>
      </trkpt>
      <trkpt lat="49.33306" lon="0.93098">
        <ele>113.80000305176</ele>
        <time>2024-10-13T07:59:09.000Z</time>
      </trkpt>
      <trkpt lat="49.33308" lon="0.93086">
        <ele>114</ele>
        <time>2024-10-13T07:59:11.000Z</time>
      </trkpt>
      <trkpt lat="49.3331" lon="0.93072">
        <ele>114.40000152588</ele>
        <time>2024-10-13T07:59:13.000Z</time>
      </trkpt>
      <trkpt lat="49.33315" lon="0.93039">
        <ele>114</ele>
        <time>2024-10-13T07:59:18.000Z</time>
      </trkpt>
      <trkpt lat="49.33317" lon="0.93024">
        <ele>112.59999847412</ele>
        <time>2024-10-13T07:59:20.000Z</time>
      </trkpt>
      <trkpt lat="49.33323" lon="0.92999">
        <ele>109.59999847412</ele>
        <time>2024-10-13T07:59:24.000Z</time>
      </trkpt>
      <trkpt lat="49.33325" lon="0.92991">
        <ele>108.80000305176</ele>
        <time>2024-10-13T07:59:25.000Z</time>
      </trkpt>
      <trkpt lat="49.33327" lon="0.92983">
        <ele>108.19999694824</ele>
        <time>2024-10-13T07:59:26.000Z</time>
      </trkpt>
      <trkpt lat="49.3333" lon="0.92967">
        <ele>105.40000152588</ele>
        <time>2024-10-13T07:59:28.000Z</time>
      </trkpt>
      <trkpt lat="49.33331" lon="0.9296">
        <ele>104.19999694824</ele>
        <time>2024-10-13T07:59:29.000Z</time>
      </trkpt>
      <trkpt lat="49.33332" lon="0.92953">
        <ele>103.19999694824</ele>
        <time>2024-10-13T07:59:30.000Z</time>
      </trkpt>
      <trkpt lat="49.33332" lon="0.92948">
        <ele>102.40000152588</ele>
        <time>2024-10-13T07:59:31.000Z</time>
      </trkpt>
      <trkpt lat="49.33333" lon="0.92942">
        <ele>101.80000305176</ele>
        <time>2024-10-13T07:59:32.000Z</time>
      </trkpt>
      <trkpt lat="49.33334" lon="0.92925">
        <ele>99</ele>
        <time>2024-10-13T07:59:35.000Z</time>
      </trkpt>
      <trkpt lat="49.33334" lon="0.9292">
        <ele>97.800003051758</ele>
        <time>2024-10-13T07:59:36.000Z</time>
      </trkpt>
      <trkpt lat="49.33337" lon="0.92907">
        <ele>94.800003051758</ele>
        <time>2024-10-13T07:59:39.000Z</time>
      </trkpt>
      <trkpt lat="49.33341" lon="0.92892">
        <ele>92</ele>
        <time>2024-10-13T07:59:45.000Z</time>
      </trkpt>
      <trkpt lat="49.33342" lon="0.92884">
        <ele>90.800003051758</ele>
        <time>2024-10-13T07:59:49.000Z</time>
      </trkpt>
      <trkpt lat="49.33353" lon="0.92814">
        <ele>86.199996948242</ele>
        <time>2024-10-13T08:00:00.000Z</time>
      </trkpt>
      <trkpt lat="49.33365" lon="0.92732">
        <ele>79.199996948242</ele>
        <time>2024-10-13T08:00:12.000Z</time>
      </trkpt>
      <trkpt lat="49.33378" lon="0.92643">
        <ele>67.800003051758</ele>
        <time>2024-10-13T08:00:25.000Z</time>
      </trkpt>
      <trkpt lat="49.33381" lon="0.92616">
        <ele>64.400001525879</ele>
        <time>2024-10-13T08:00:29.000Z</time>
      </trkpt>
      <trkpt lat="49.33384" lon="0.92602">
        <ele>62.799999237061</ele>
        <time>2024-10-13T08:00:33.000Z</time>
      </trkpt>
      <trkpt lat="49.33386" lon="0.92598">
        <ele>62.200000762939</ele>
        <time>2024-10-13T08:00:35.000Z</time>
      </trkpt>
      <trkpt lat="49.33388" lon="0.92592">
        <ele>61.400001525879</ele>
        <time>2024-10-13T08:00:37.000Z</time>
      </trkpt>
      <trkpt lat="49.3339" lon="0.92585">
        <ele>61</ele>
        <time>2024-10-13T08:00:39.000Z</time>
      </trkpt>
      <trkpt lat="49.33354" lon="0.92554">
        <ele>61</ele>
        <time>2024-10-13T08:00:51.000Z</time>
      </trkpt>
      <trkpt lat="49.33339" lon="0.92535">
        <ele>61</ele>
        <time>2024-10-13T08:00:55.000Z</time>
      </trkpt>
      <trkpt lat="49.33331" lon="0.92517">
        <ele>61</ele>
        <time>2024-10-13T08:00:58.000Z</time>
      </trkpt>
      <trkpt lat="49.33329" lon="0.9251">
        <ele>61</ele>
        <time>2024-10-13T08:00:59.000Z</time>
      </trkpt>
      <trkpt lat="49.33327" lon="0.92496">
        <ele>61</ele>
        <time>2024-10-13T08:01:01.000Z</time>
      </trkpt>
      <trkpt lat="49.33326" lon="0.92489">
        <ele>61</ele>
        <time>2024-10-13T08:01:02.000Z</time>
      </trkpt>
      <trkpt lat="49.33325" lon="0.92482">
        <ele>61</ele>
        <time>2024-10-13T08:01:03.000Z</time>
      </trkpt>
      <trkpt lat="49.33323" lon="0.92467">
        <ele>60.799999237061</ele>
        <time>2024-10-13T08:01:05.000Z</time>
      </trkpt>
      <trkpt lat="49.33322" lon="0.9246">
        <ele>60.799999237061</ele>
        <time>2024-10-13T08:01:06.000Z</time>
      </trkpt>
      <trkpt lat="49.33321" lon="0.92452">
        <ele>60.599998474121</ele>
        <time>2024-10-13T08:01:07.000Z</time>
      </trkpt>
      <trkpt lat="49.3332" lon="0.92445">
        <ele>60.400001525879</ele>
        <time>2024-10-13T08:01:08.000Z</time>
      </trkpt>
      <trkpt lat="49.33316" lon="0.92401">
        <ele>59.200000762939</ele>
        <time>2024-10-13T08:01:14.000Z</time>
      </trkpt>
      <trkpt lat="49.33317" lon="0.92386">
        <ele>58.799999237061</ele>
        <time>2024-10-13T08:01:16.000Z</time>
      </trkpt>
      <trkpt lat="49.33318" lon="0.92379">
        <ele>58.799999237061</ele>
        <time>2024-10-13T08:01:17.000Z</time>
      </trkpt>
      <trkpt lat="49.33319" lon="0.92372">
        <ele>59</ele>
        <time>2024-10-13T08:01:18.000Z</time>
      </trkpt>
      <trkpt lat="49.33321" lon="0.92366">
        <ele>58.799999237061</ele>
        <time>2024-10-13T08:01:19.000Z</time>
      </trkpt>
      <trkpt lat="49.33349" lon="0.92293">
        <ele>61.799999237061</ele>
        <time>2024-10-13T08:01:31.000Z</time>
      </trkpt>
      <trkpt lat="49.33359" lon="0.92277">
        <ele>62</ele>
        <time>2024-10-13T08:01:34.000Z</time>
      </trkpt>
      <trkpt lat="49.33374" lon="0.92259">
        <ele>61.599998474121</ele>
        <time>2024-10-13T08:01:38.000Z</time>
      </trkpt>
      <trkpt lat="49.33378" lon="0.92254">
        <ele>61.599998474121</ele>
        <time>2024-10-13T08:01:39.000Z</time>
      </trkpt>
      <trkpt lat="49.33394" lon="0.92224">
        <ele>62.200000762939</ele>
        <time>2024-10-13T08:01:44.000Z</time>
      </trkpt>
      <trkpt lat="49.33397" lon="0.92209">
        <ele>62.400001525879</ele>
        <time>2024-10-13T08:01:46.000Z</time>
      </trkpt>
      <trkpt lat="49.33398" lon="0.92194">
        <ele>62.599998474121</ele>
        <time>2024-10-13T08:01:48.000Z</time>
      </trkpt>
      <trkpt lat="49.33398" lon="0.92179">
        <ele>62</ele>
        <time>2024-10-13T08:01:50.000Z</time>
      </trkpt>
      <trkpt lat="49.33398" lon="0.92164">
        <ele>62</ele>
        <time>2024-10-13T08:01:52.000Z</time>
      </trkpt>
      <trkpt lat="49.33393" lon="0.92076">
        <ele>64.400001525879</ele>
        <time>2024-10-13T08:02:04.000Z</time>
      </trkpt>
      <trkpt lat="49.33387" lon="0.91992">
        <ele>66.400001525879</ele>
        <time>2024-10-13T08:02:19.000Z</time>
      </trkpt>
      <trkpt lat="49.33386" lon="0.91988">
        <ele>66</ele>
        <time>2024-10-13T08:02:20.000Z</time>
      </trkpt>
      <trkpt lat="49.33386" lon="0.91983">
        <ele>65.800003051758</ele>
        <time>2024-10-13T08:02:21.000Z</time>
      </trkpt>
      <trkpt lat="49.33386" lon="0.91978">
        <ele>65.599998474121</ele>
        <time>2024-10-13T08:02:22.000Z</time>
      </trkpt>
      <trkpt lat="49.33387" lon="0.91974">
        <ele>65.400001525879</ele>
        <time>2024-10-13T08:02:23.000Z</time>
      </trkpt>
      <trkpt lat="49.33385" lon="0.91952">
        <ele>65</ele>
        <time>2024-10-13T08:02:28.000Z</time>
      </trkpt>
      <trkpt lat="49.33385" lon="0.91934">
        <ele>65</ele>
        <time>2024-10-13T08:02:36.000Z</time>
      </trkpt>
      <trkpt lat="49.33405" lon="0.91923">
        <ele>62.599998474121</ele>
        <time>2024-10-13T08:02:42.000Z</time>
      </trkpt>
      <trkpt lat="49.33415" lon="0.91929">
        <ele>62</ele>
        <time>2024-10-13T08:02:45.000Z</time>
      </trkpt>
      <trkpt lat="49.33426" lon="0.91906">
        <ele>61.599998474121</ele>
        <time>2024-10-13T08:02:53.000Z</time>
      </trkpt>
      <trkpt lat="49.33426" lon="0.91859">
        <ele>60.400001525879</ele>
        <time>2024-10-13T08:03:05.000Z</time>
      </trkpt>
      <trkpt lat="49.3342" lon="0.91843">
        <ele>60.599998474121</ele>
        <time>2024-10-13T08:03:09.000Z</time>
      </trkpt>
      <trkpt lat="49.33419" lon="0.91829">
        <ele>60.200000762939</ele>
        <time>2024-10-13T08:03:11.000Z</time>
      </trkpt>
      <trkpt lat="49.33438" lon="0.91746">
        <ele>59.599998474121</ele>
        <time>2024-10-13T08:03:23.000Z</time>
      </trkpt>
      <trkpt lat="49.33439" lon="0.91732">
        <ele>60</ele>
        <time>2024-10-13T08:03:25.000Z</time>
      </trkpt>
      <trkpt lat="49.33439" lon="0.91717">
        <ele>60.200000762939</ele>
        <time>2024-10-13T08:03:27.000Z</time>
      </trkpt>
      <trkpt lat="49.33433" lon="0.91707">
        <ele>60.799999237061</ele>
        <time>2024-10-13T08:03:29.000Z</time>
      </trkpt>
      <trkpt lat="49.33429" lon="0.91705">
        <ele>61.200000762939</ele>
        <time>2024-10-13T08:03:30.000Z</time>
      </trkpt>
      <trkpt lat="49.33425" lon="0.91704">
        <ele>61.599998474121</ele>
        <time>2024-10-13T08:03:31.000Z</time>
      </trkpt>
      <trkpt lat="49.33421" lon="0.91704">
        <ele>62</ele>
        <time>2024-10-13T08:03:32.000Z</time>
      </trkpt>
      <trkpt lat="49.33416" lon="0.91703">
        <ele>62.599998474121</ele>
        <time>2024-10-13T08:03:34.000Z</time>
      </trkpt>
      <trkpt lat="49.33413" lon="0.91698">
        <ele>62.799999237061</ele>
        <time>2024-10-13T08:03:35.000Z</time>
      </trkpt>
      <trkpt lat="49.33411" lon="0.91694">
        <ele>63.200000762939</ele>
        <time>2024-10-13T08:03:36.000Z</time>
      </trkpt>
      <trkpt lat="49.33409" lon="0.91671">
        <ele>63.599998474121</ele>
        <time>2024-10-13T08:03:40.000Z</time>
      </trkpt>
      <trkpt lat="49.33433" lon="0.91613">
        <ele>63.599998474121</ele>
        <time>2024-10-13T08:03:49.000Z</time>
      </trkpt>
      <trkpt lat="49.33455" lon="0.91569">
        <ele>62.200000762939</ele>
        <time>2024-10-13T08:03:57.000Z</time>
      </trkpt>
      <trkpt lat="49.33457" lon="0.91562">
        <ele>62.599998474121</ele>
        <time>2024-10-13T08:03:59.000Z</time>
      </trkpt>
      <trkpt lat="49.3348" lon="0.91513">
        <ele>61.200000762939</ele>
        <time>2024-10-13T08:04:13.000Z</time>
      </trkpt>
      <trkpt lat="49.33496" lon="0.91475">
        <ele>60.599998474121</ele>
        <time>2024-10-13T08:04:21.000Z</time>
      </trkpt>
      <trkpt lat="49.33498" lon="0.9147">
        <ele>61</ele>
        <time>2024-10-13T08:04:22.000Z</time>
      </trkpt>
      <trkpt lat="49.33504" lon="0.91448">
        <ele>62</ele>
        <time>2024-10-13T08:04:26.000Z</time>
      </trkpt>
      <trkpt lat="49.33504" lon="0.91444">
        <ele>62.200000762939</ele>
        <time>2024-10-13T08:04:27.000Z</time>
      </trkpt>
      <trkpt lat="49.33512" lon="0.91415">
        <ele>63.599998474121</ele>
        <time>2024-10-13T08:04:33.000Z</time>
      </trkpt>
      <trkpt lat="49.33523" lon="0.91395">
        <ele>63.799999237061</ele>
        <time>2024-10-13T08:04:38.000Z</time>
      </trkpt>
      <trkpt lat="49.33556" lon="0.91332">
        <ele>68.800003051758</ele>
        <time>2024-10-13T08:04:56.000Z</time>
      </trkpt>
      <trkpt lat="49.33571" lon="0.9129">
        <ele>73.400001525879</ele>
        <time>2024-10-13T08:05:07.000Z</time>
      </trkpt>
      <trkpt lat="49.33586" lon="0.9126">
        <ele>76.599998474121</ele>
        <time>2024-10-13T08:05:18.000Z</time>
      </trkpt>
      <trkpt lat="49.336" lon="0.91249">
        <ele>76.599998474121</ele>
        <time>2024-10-13T08:05:25.000Z</time>
      </trkpt>
      <trkpt lat="49.33604" lon="0.91247">
        <ele>76.599998474121</ele>
        <time>2024-10-13T08:05:27.000Z</time>
      </trkpt>
      <trkpt lat="49.33614" lon="0.91238">
        <ele>77</ele>
        <time>2024-10-13T08:05:32.000Z</time>
      </trkpt>
      <trkpt lat="49.33617" lon="0.91235">
        <ele>76.800003051758</ele>
        <time>2024-10-13T08:05:33.000Z</time>
      </trkpt>
      <trkpt lat="49.3362" lon="0.91231">
        <ele>76.800003051758</ele>
        <time>2024-10-13T08:05:34.000Z</time>
      </trkpt>
      <trkpt lat="49.33626" lon="0.91224">
        <ele>76.599998474121</ele>
        <time>2024-10-13T08:05:37.000Z</time>
      </trkpt>
      <trkpt lat="49.33628" lon="0.91223">
        <ele>76.400001525879</ele>
        <time>2024-10-13T08:05:38.000Z</time>
      </trkpt>
      <trkpt lat="49.33632" lon="0.91222">
        <ele>76</ele>
        <time>2024-10-13T08:05:39.000Z</time>
      </trkpt>
      <trkpt lat="49.33635" lon="0.91221">
        <ele>75.800003051758</ele>
        <time>2024-10-13T08:05:40.000Z</time>
      </trkpt>
      <trkpt lat="49.33647" lon="0.91219">
        <ele>75.599998474121</ele>
        <time>2024-10-13T08:05:45.000Z</time>
      </trkpt>
      <trkpt lat="49.3365" lon="0.91218">
        <ele>75.400001525879</ele>
        <time>2024-10-13T08:05:46.000Z</time>
      </trkpt>
      <trkpt lat="49.33653" lon="0.91216">
        <ele>75.199996948242</ele>
        <time>2024-10-13T08:05:47.000Z</time>
      </trkpt>
      <trkpt lat="49.33671" lon="0.91197">
        <ele>76.599998474121</ele>
        <time>2024-10-13T08:05:55.000Z</time>
      </trkpt>
      <trkpt lat="49.33673" lon="0.91195">
        <ele>77</ele>
        <time>2024-10-13T08:05:56.000Z</time>
      </trkpt>
      <trkpt lat="49.33674" lon="0.91192">
        <ele>77.199996948242</ele>
        <time>2024-10-13T08:05:57.000Z</time>
      </trkpt>
      <trkpt lat="49.33677" lon="0.91188">
        <ele>77.800003051758</ele>
        <time>2024-10-13T08:05:58.000Z</time>
      </trkpt>
      <trkpt lat="49.33678" lon="0.91185">
        <ele>78</ele>
        <time>2024-10-13T08:06:00.000Z</time>
      </trkpt>
      <trkpt lat="49.3368" lon="0.91182">
        <ele>78.199996948242</ele>
        <time>2024-10-13T08:06:01.000Z</time>
      </trkpt>
      <trkpt lat="49.33681" lon="0.91179">
        <ele>78.400001525879</ele>
        <time>2024-10-13T08:06:02.000Z</time>
      </trkpt>
      <trkpt lat="49.33682" lon="0.91175">
        <ele>78.599998474121</ele>
        <time>2024-10-13T08:06:03.000Z</time>
      </trkpt>
      <trkpt lat="49.33684" lon="0.91172">
        <ele>78.800003051758</ele>
        <time>2024-10-13T08:06:04.000Z</time>
      </trkpt>
      <trkpt lat="49.33686" lon="0.91169">
        <ele>79</ele>
        <time>2024-10-13T08:06:05.000Z</time>
      </trkpt>
      <trkpt lat="49.33687" lon="0.91166">
        <ele>79.199996948242</ele>
        <time>2024-10-13T08:06:06.000Z</time>
      </trkpt>
      <trkpt lat="49.33698" lon="0.9114">
        <ele>80.599998474121</ele>
        <time>2024-10-13T08:06:14.000Z</time>
      </trkpt>
      <trkpt lat="49.33702" lon="0.91125">
        <ele>80.599998474121</ele>
        <time>2024-10-13T08:06:18.000Z</time>
      </trkpt>
      <trkpt lat="49.33705" lon="0.91119">
        <ele>80.599998474121</ele>
        <time>2024-10-13T08:06:20.000Z</time>
      </trkpt>
      <trkpt lat="49.33707" lon="0.91112">
        <ele>80.599998474121</ele>
        <time>2024-10-13T08:06:22.000Z</time>
      </trkpt>
      <trkpt lat="49.33708" lon="0.91095">
        <ele>80</ele>
        <time>2024-10-13T08:06:26.000Z</time>
      </trkpt>
      <trkpt lat="49.337" lon="0.91048">
        <ele>79.599998474121</ele>
        <time>2024-10-13T08:06:36.000Z</time>
      </trkpt>
      <trkpt lat="49.33692" lon="0.9101">
        <ele>79.800003051758</ele>
        <time>2024-10-13T08:06:45.000Z</time>
      </trkpt>
      <trkpt lat="49.33693" lon="0.90996">
        <ele>80.199996948242</ele>
        <time>2024-10-13T08:06:50.000Z</time>
      </trkpt>
      <trkpt lat="49.33695" lon="0.9098">
        <ele>79.800003051758</ele>
        <time>2024-10-13T08:06:56.000Z</time>
      </trkpt>
      <trkpt lat="49.33693" lon="0.90965">
        <ele>79.599998474121</ele>
        <time>2024-10-13T08:07:01.000Z</time>
      </trkpt>
      <trkpt lat="49.33692" lon="0.90913">
        <ele>75.599998474121</ele>
        <time>2024-10-13T08:07:12.000Z</time>
      </trkpt>
      <trkpt lat="49.33691" lon="0.90902">
        <ele>74.800003051758</ele>
        <time>2024-10-13T08:07:14.000Z</time>
      </trkpt>
      <trkpt lat="49.33692" lon="0.90897">
        <ele>74.400001525879</ele>
        <time>2024-10-13T08:07:15.000Z</time>
      </trkpt>
      <trkpt lat="49.33693" lon="0.90889">
        <ele>73.599998474121</ele>
        <time>2024-10-13T08:07:16.000Z</time>
      </trkpt>
      <trkpt lat="49.33693" lon="0.90889">
        <ele>73.599998474121</ele>
        <time>2024-10-13T08:07:17.000Z</time>
      </trkpt>
      <trkpt lat="49.33697" lon="0.90876">
        <ele>72.199996948242</ele>
        <time>2024-10-13T08:07:24.000Z</time>
      </trkpt>
      <trkpt lat="49.33707" lon="0.90897">
        <ele>71.599998474121</ele>
        <time>2024-10-13T08:07:30.000Z</time>
      </trkpt>
      <trkpt lat="49.33712" lon="0.90903">
        <ele>71.199996948242</ele>
        <time>2024-10-13T08:07:32.000Z</time>
      </trkpt>
      <trkpt lat="49.33716" lon="0.90923">
        <ele>71.199996948242</ele>
        <time>2024-10-13T08:07:37.000Z</time>
      </trkpt>
      <trkpt lat="49.33718" lon="0.90919">
        <ele>70.599998474121</ele>
        <time>2024-10-13T08:07:39.000Z</time>
      </trkpt>
      <trkpt lat="49.33711" lon="0.90889">
        <ele>70.800003051758</ele>
        <time>2024-10-13T08:07:48.000Z</time>
      </trkpt>
      <trkpt lat="49.3371" lon="0.90883">
        <ele>70.800003051758</ele>
        <time>2024-10-13T08:07:53.000Z</time>
      </trkpt>
      <trkpt lat="49.33681" lon="0.90816">
        <ele>71</ele>
        <time>2024-10-13T08:08:11.000Z</time>
      </trkpt>
      <trkpt lat="49.33695" lon="0.90744">
        <ele>71.800003051758</ele>
        <time>2024-10-13T08:08:26.000Z</time>
      </trkpt>
      <trkpt lat="49.33698" lon="0.90728">
        <ele>72.599998474121</ele>
        <time>2024-10-13T08:08:29.000Z</time>
      </trkpt>
      <trkpt lat="49.33701" lon="0.90723">
        <ele>72.599998474121</ele>
        <time>2024-10-13T08:08:30.000Z</time>
      </trkpt>
      <trkpt lat="49.33706" lon="0.90705">
        <ele>72.199996948242</ele>
        <time>2024-10-13T08:08:33.000Z</time>
      </trkpt>
      <trkpt lat="49.33708" lon="0.907">
        <ele>72</ele>
        <time>2024-10-13T08:08:34.000Z</time>
      </trkpt>
      <trkpt lat="49.33717" lon="0.90674">
        <ele>72.199996948242</ele>
        <time>2024-10-13T08:08:38.000Z</time>
      </trkpt>
      <trkpt lat="49.33717" lon="0.90655">
        <ele>72.800003051758</ele>
        <time>2024-10-13T08:08:41.000Z</time>
      </trkpt>
      <trkpt lat="49.33718" lon="0.90637">
        <ele>73</ele>
        <time>2024-10-13T08:08:44.000Z</time>
      </trkpt>
      <trkpt lat="49.33722" lon="0.90618">
        <ele>73.599998474121</ele>
        <time>2024-10-13T08:08:47.000Z</time>
      </trkpt>
      <trkpt lat="49.33726" lon="0.90587">
        <ele>73.800003051758</ele>
        <time>2024-10-13T08:08:52.000Z</time>
      </trkpt>
      <trkpt lat="49.33727" lon="0.90578">
        <ele>74.400001525879</ele>
        <time>2024-10-13T08:08:54.000Z</time>
      </trkpt>
      <trkpt lat="49.33735" lon="0.90545">
        <ele>74.800003051758</ele>
        <time>2024-10-13T08:09:01.000Z</time>
      </trkpt>
      <trkpt lat="49.33737" lon="0.90536">
        <ele>75.199996948242</ele>
        <time>2024-10-13T08:09:03.000Z</time>
      </trkpt>
      <trkpt lat="49.3374" lon="0.90528">
        <ele>75.400001525879</ele>
        <time>2024-10-13T08:09:05.000Z</time>
      </trkpt>
      <trkpt lat="49.33742" lon="0.90508">
        <ele>74.800003051758</ele>
        <time>2024-10-13T08:09:09.000Z</time>
      </trkpt>
      <trkpt lat="49.33743" lon="0.90464">
        <ele>74.400001525879</ele>
        <time>2024-10-13T08:09:20.000Z</time>
      </trkpt>
      <trkpt lat="49.33748" lon="0.90405">
        <ele>74.199996948242</ele>
        <time>2024-10-13T08:09:37.000Z</time>
      </trkpt>
      <trkpt lat="49.3375" lon="0.90399">
        <ele>74.199996948242</ele>
        <time>2024-10-13T08:09:40.000Z</time>
      </trkpt>
      <trkpt lat="49.33753" lon="0.90394">
        <ele>74.599998474121</ele>
        <time>2024-10-13T08:09:45.000Z</time>
      </trkpt>
      <trkpt lat="49.33754" lon="0.90394">
        <ele>74.599998474121</ele>
        <time>2024-10-13T08:09:46.000Z</time>
      </trkpt>
      <trkpt lat="49.33763" lon="0.90379">
        <ele>75</ele>
        <time>2024-10-13T08:09:55.000Z</time>
      </trkpt>
      <trkpt lat="49.3377" lon="0.90356">
        <ele>75.199996948242</ele>
        <time>2024-10-13T08:10:02.000Z</time>
      </trkpt>
      <trkpt lat="49.33768" lon="0.90335">
        <ele>75.199996948242</ele>
        <time>2024-10-13T08:10:06.000Z</time>
      </trkpt>
      <trkpt lat="49.33751" lon="0.9032">
        <ele>75.800003051758</ele>
        <time>2024-10-13T08:10:14.000Z</time>
      </trkpt>
      <trkpt lat="49.33743" lon="0.90315">
        <ele>76.599998474121</ele>
        <time>2024-10-13T08:10:23.000Z</time>
      </trkpt>
      <trkpt lat="49.33741" lon="0.90311">
        <ele>77.199996948242</ele>
        <time>2024-10-13T08:10:27.000Z</time>
      </trkpt>
      <trkpt lat="49.33743" lon="0.9031">
        <ele>76.800003051758</ele>
        <time>2024-10-13T08:10:29.000Z</time>
      </trkpt>
      <trkpt lat="49.33748" lon="0.90306">
        <ele>76.400001525879</ele>
        <time>2024-10-13T08:10:31.000Z</time>
      </trkpt>
      <trkpt lat="49.33753" lon="0.90298">
        <ele>76.400001525879</ele>
        <time>2024-10-13T08:10:35.000Z</time>
      </trkpt>
      <trkpt lat="49.33753" lon="0.90295">
        <ele>76.400001525879</ele>
        <time>2024-10-13T08:10:36.000Z</time>
      </trkpt>
      <trkpt lat="49.33754" lon="0.90293">
        <ele>76.400001525879</ele>
        <time>2024-10-13T08:10:37.000Z</time>
      </trkpt>
      <trkpt lat="49.33755" lon="0.90286">
        <ele>76.400001525879</ele>
        <time>2024-10-13T08:10:40.000Z</time>
      </trkpt>
      <trkpt lat="49.33755" lon="0.90282">
        <ele>76.599998474121</ele>
        <time>2024-10-13T08:10:41.000Z</time>
      </trkpt>
      <trkpt lat="49.33755" lon="0.90282">
        <ele>76.599998474121</ele>
        <time>2024-10-13T08:10:42.000Z</time>
      </trkpt>
      <trkpt lat="49.33756" lon="0.90279">
        <ele>76.599998474121</ele>
        <time>2024-10-13T08:10:44.000Z</time>
      </trkpt>
      <trkpt lat="49.33757" lon="0.90272">
        <ele>76.800003051758</ele>
        <time>2024-10-13T08:10:47.000Z</time>
      </trkpt>
      <trkpt lat="49.33757" lon="0.9027">
        <ele>76.800003051758</ele>
        <time>2024-10-13T08:10:48.000Z</time>
      </trkpt>
      <trkpt lat="49.33757" lon="0.90268">
        <ele>77</ele>
        <time>2024-10-13T08:10:49.000Z</time>
      </trkpt>
      <trkpt lat="49.33757" lon="0.90266">
        <ele>77</ele>
        <time>2024-10-13T08:10:50.000Z</time>
      </trkpt>
      <trkpt lat="49.33757" lon="0.90263">
        <ele>77.199996948242</ele>
        <time>2024-10-13T08:10:51.000Z</time>
      </trkpt>
      <trkpt lat="49.33757" lon="0.90261">
        <ele>77.199996948242</ele>
        <time>2024-10-13T08:10:52.000Z</time>
      </trkpt>
      <trkpt lat="49.33777" lon="0.90227">
        <ele>77.400001525879</ele>
        <time>2024-10-13T08:11:05.000Z</time>
      </trkpt>
      <trkpt lat="49.33789" lon="0.90211">
        <ele>77.599998474121</ele>
        <time>2024-10-13T08:11:09.000Z</time>
      </trkpt>
      <trkpt lat="49.33794" lon="0.90194">
        <ele>78.199996948242</ele>
        <time>2024-10-13T08:11:14.000Z</time>
      </trkpt>
      <trkpt lat="49.33809" lon="0.9014">
        <ele>79.800003051758</ele>
        <time>2024-10-13T08:11:27.000Z</time>
      </trkpt>
      <trkpt lat="49.33818" lon="0.90112">
        <ele>79.199996948242</ele>
        <time>2024-10-13T08:11:33.000Z</time>
      </trkpt>
      <trkpt lat="49.33822" lon="0.90094">
        <ele>78.800003051758</ele>
        <time>2024-10-13T08:11:37.000Z</time>
      </trkpt>
      <trkpt lat="49.33823" lon="0.90079">
        <ele>78.400001525879</ele>
        <time>2024-10-13T08:11:40.000Z</time>
      </trkpt>
      <trkpt lat="49.33823" lon="0.90068">
        <ele>77.800003051758</ele>
        <time>2024-10-13T08:11:42.000Z</time>
      </trkpt>
      <trkpt lat="49.33823" lon="0.90056">
        <ele>78.199996948242</ele>
        <time>2024-10-13T08:11:44.000Z</time>
      </trkpt>
      <trkpt lat="49.33821" lon="0.90047">
        <ele>78.400001525879</ele>
        <time>2024-10-13T08:11:46.000Z</time>
      </trkpt>
      <trkpt lat="49.33821" lon="0.90042">
        <ele>78.400001525879</ele>
        <time>2024-10-13T08:11:47.000Z</time>
      </trkpt>
      <trkpt lat="49.33824" lon="0.90025">
        <ele>78.400001525879</ele>
        <time>2024-10-13T08:11:51.000Z</time>
      </trkpt>
      <trkpt lat="49.33822" lon="0.90015">
        <ele>79</ele>
        <time>2024-10-13T08:11:54.000Z</time>
      </trkpt>
      <trkpt lat="49.33823" lon="0.90003">
        <ele>79.599998474121</ele>
        <time>2024-10-13T08:11:57.000Z</time>
      </trkpt>
      <trkpt lat="49.33823" lon="0.89995">
        <ele>79.800003051758</ele>
        <time>2024-10-13T08:11:59.000Z</time>
      </trkpt>
      <trkpt lat="49.33822" lon="0.89952">
        <ele>82.199996948242</ele>
        <time>2024-10-13T08:12:11.000Z</time>
      </trkpt>
      <trkpt lat="49.33829" lon="0.89916">
        <ele>82</ele>
        <time>2024-10-13T08:12:19.000Z</time>
      </trkpt>
      <trkpt lat="49.3383" lon="0.89902">
        <ele>81.800003051758</ele>
        <time>2024-10-13T08:12:22.000Z</time>
      </trkpt>
      <trkpt lat="49.33833" lon="0.89893">
        <ele>81.800003051758</ele>
        <time>2024-10-13T08:12:24.000Z</time>
      </trkpt>
      <trkpt lat="49.33834" lon="0.89888">
        <ele>81.599998474121</ele>
        <time>2024-10-13T08:12:25.000Z</time>
      </trkpt>
      <trkpt lat="49.33839" lon="0.89874">
        <ele>81</ele>
        <time>2024-10-13T08:12:28.000Z</time>
      </trkpt>
      <trkpt lat="49.33844" lon="0.89864">
        <ele>80</ele>
        <time>2024-10-13T08:12:31.000Z</time>
      </trkpt>
      <trkpt lat="49.33844" lon="0.89855">
        <ele>79.800003051758</ele>
        <time>2024-10-13T08:12:33.000Z</time>
      </trkpt>
      <trkpt lat="49.33838" lon="0.89831">
        <ele>79.400001525879</ele>
        <time>2024-10-13T08:12:39.000Z</time>
      </trkpt>
      <trkpt lat="49.33848" lon="0.89812">
        <ele>77.800003051758</ele>
        <time>2024-10-13T08:12:43.000Z</time>
      </trkpt>
      <trkpt lat="49.33859" lon="0.89768">
        <ele>75.199996948242</ele>
        <time>2024-10-13T08:12:49.000Z</time>
      </trkpt>
      <trkpt lat="49.33863" lon="0.8975">
        <ele>74.599998474121</ele>
        <time>2024-10-13T08:12:51.000Z</time>
      </trkpt>
      <trkpt lat="49.33855" lon="0.89718">
        <ele>74.199996948242</ele>
        <time>2024-10-13T08:12:58.000Z</time>
      </trkpt>
      <trkpt lat="49.33852" lon="0.89683">
        <ele>74.400001525879</ele>
        <time>2024-10-13T08:13:13.000Z</time>
      </trkpt>
      <trkpt lat="49.3385" lon="0.89599">
        <ele>75.800003051758</ele>
        <time>2024-10-13T08:13:35.000Z</time>
      </trkpt>
      <trkpt lat="49.33841" lon="0.89572">
        <ele>76</ele>
        <time>2024-10-13T08:13:50.000Z</time>
      </trkpt>
      <trkpt lat="49.3384" lon="0.89571">
        <ele>76</ele>
        <time>2024-10-13T08:13:56.000Z</time>
      </trkpt>
      <trkpt lat="49.33841" lon="0.89565">
        <ele>76</ele>
        <time>2024-10-13T08:14:09.000Z</time>
      </trkpt>
      <trkpt lat="49.33839" lon="0.89557">
        <ele>76.400001525879</ele>
        <time>2024-10-13T08:14:13.000Z</time>
      </trkpt>
      <trkpt lat="49.33838" lon="0.89552">
        <ele>76.599998474121</ele>
        <time>2024-10-13T08:14:15.000Z</time>
      </trkpt>
      <trkpt lat="49.33838" lon="0.89531">
        <ele>77</ele>
        <time>2024-10-13T08:14:21.000Z</time>
      </trkpt>
      <trkpt lat="49.33831" lon="0.89471">
        <ele>78.199996948242</ele>
        <time>2024-10-13T08:14:36.000Z</time>
      </trkpt>
      <trkpt lat="49.33832" lon="0.89437">
        <ele>78.599998474121</ele>
        <time>2024-10-13T08:14:46.000Z</time>
      </trkpt>
      <trkpt lat="49.33839" lon="0.8943">
        <ele>78.199996948242</ele>
        <time>2024-10-13T08:14:52.000Z</time>
      </trkpt>
      <trkpt lat="49.3385" lon="0.8942">
        <ele>77.599998474121</ele>
        <time>2024-10-13T08:15:01.000Z</time>
      </trkpt>
      <trkpt lat="49.33861" lon="0.89426">
        <ele>77.199996948242</ele>
        <time>2024-10-13T08:15:10.000Z</time>
      </trkpt>
      <trkpt lat="49.33861" lon="0.89431">
        <ele>77</ele>
        <time>2024-10-13T08:15:14.000Z</time>
      </trkpt>
      <trkpt lat="49.33858" lon="0.89435">
        <ele>76.800003051758</ele>
        <time>2024-10-13T08:15:27.000Z</time>
      </trkpt>
      <trkpt lat="49.33857" lon="0.8944">
        <ele>76.599998474121</ele>
        <time>2024-10-13T08:15:52.000Z</time>
      </trkpt>
      <trkpt lat="49.33865" lon="0.89437">
        <ele>77</ele>
        <time>2024-10-13T08:16:04.000Z</time>
      </trkpt>
      <trkpt lat="49.33867" lon="0.89436">
        <ele>77</ele>
        <time>2024-10-13T08:16:07.000Z</time>
      </trkpt>
      <trkpt lat="49.33867" lon="0.89435">
        <ele>77.199996948242</ele>
        <time>2024-10-13T08:16:11.000Z</time>
      </trkpt>
      <trkpt lat="49.33866" lon="0.89436">
        <ele>77</ele>
        <time>2024-10-13T08:16:15.000Z</time>
      </trkpt>
      <trkpt lat="49.33864" lon="0.89438">
        <ele>77</ele>
        <time>2024-10-13T08:16:19.000Z</time>
      </trkpt>
      <trkpt lat="49.33864" lon="0.8944">
        <ele>76.800003051758</ele>
        <time>2024-10-13T08:16:22.000Z</time>
      </trkpt>
      <trkpt lat="49.33867" lon="0.8944">
        <ele>76.800003051758</ele>
        <time>2024-10-13T08:16:27.000Z</time>
      </trkpt>
      <trkpt lat="49.33866" lon="0.89438">
        <ele>77</ele>
        <time>2024-10-13T08:16:32.000Z</time>
      </trkpt>
      <trkpt lat="49.33868" lon="0.89438">
        <ele>77</ele>
        <time>2024-10-13T08:16:38.000Z</time>
      </trkpt>
      <trkpt lat="49.3387" lon="0.89437">
        <ele>77.199996948242</ele>
        <time>2024-10-13T08:16:46.000Z</time>
      </trkpt>
      <trkpt lat="49.33871" lon="0.89434">
        <ele>77.400001525879</ele>
        <time>2024-10-13T08:16:48.000Z</time>
      </trkpt>
      <trkpt lat="49.33872" lon="0.89429">
        <ele>77.599998474121</ele>
        <time>2024-10-13T08:16:55.000Z</time>
      </trkpt>
      <trkpt lat="49.33877" lon="0.89423">
        <ele>77.800003051758</ele>
        <time>2024-10-13T08:17:04.000Z</time>
      </trkpt>
      <trkpt lat="49.33877" lon="0.89424">
        <ele>77.800003051758</ele>
        <time>2024-10-13T08:17:12.000Z</time>
      </trkpt>
      <trkpt lat="49.33879" lon="0.89429">
        <ele>77.800003051758</ele>
        <time>2024-10-13T08:17:26.000Z</time>
      </trkpt>
      <trkpt lat="49.33879" lon="0.89429">
        <ele>77.800003051758</ele>
        <time>2024-10-13T08:17:28.000Z</time>
      </trkpt>
      <trkpt lat="49.33879" lon="0.89428">
        <ele>77.800003051758</ele>
        <time>2024-10-13T08:17:29.000Z</time>
      </trkpt>
      <trkpt lat="49.33879" lon="0.89428">
        <ele>77.800003051758</ele>
        <time>2024-10-13T08:17:30.000Z</time>
      </trkpt>
      <trkpt lat="49.33877" lon="0.89425">
        <ele>77.800003051758</ele>
        <time>2024-10-13T08:17:35.000Z</time>
      </trkpt>
      <trkpt lat="49.3388" lon="0.89422">
        <ele>78</ele>
        <time>2024-10-13T08:17:41.000Z</time>
      </trkpt>
      <trkpt lat="49.33886" lon="0.89407">
        <ele>78</ele>
        <time>2024-10-13T08:18:16.000Z</time>
      </trkpt>
      <trkpt lat="49.33882" lon="0.89407">
        <ele>78</ele>
        <time>2024-10-13T08:18:21.000Z</time>
      </trkpt>
      <trkpt lat="49.3388" lon="0.89363">
        <ele>78.599998474121</ele>
        <time>2024-10-13T08:18:35.000Z</time>
      </trkpt>
      <trkpt lat="49.3388" lon="0.89359">
        <ele>79</ele>
        <time>2024-10-13T08:18:36.000Z</time>
      </trkpt>
      <trkpt lat="49.33881" lon="0.89355">
        <ele>79.199996948242</ele>
        <time>2024-10-13T08:18:37.000Z</time>
      </trkpt>
      <trkpt lat="49.33882" lon="0.89342">
        <ele>80.199996948242</ele>
        <time>2024-10-13T08:18:40.000Z</time>
      </trkpt>
      <trkpt lat="49.33878" lon="0.89321">
        <ele>81</ele>
        <time>2024-10-13T08:18:46.000Z</time>
      </trkpt>
      <trkpt lat="49.33879" lon="0.89318">
        <ele>81.199996948242</ele>
        <time>2024-10-13T08:18:47.000Z</time>
      </trkpt>
      <trkpt lat="49.33879" lon="0.8931">
        <ele>81.599998474121</ele>
        <time>2024-10-13T08:18:49.000Z</time>
      </trkpt>
      <trkpt lat="49.3388" lon="0.89281">
        <ele>84.199996948242</ele>
        <time>2024-10-13T08:18:58.000Z</time>
      </trkpt>
      <trkpt lat="49.33878" lon="0.89276">
        <ele>84.599998474121</ele>
        <time>2024-10-13T08:19:00.000Z</time>
      </trkpt>
      <trkpt lat="49.33878" lon="0.89272">
        <ele>84.800003051758</ele>
        <time>2024-10-13T08:19:01.000Z</time>
      </trkpt>
      <trkpt lat="49.33871" lon="0.89262">
        <ele>85</ele>
        <time>2024-10-13T08:19:05.000Z</time>
      </trkpt>
      <trkpt lat="49.3387" lon="0.89251">
        <ele>85.400001525879</ele>
        <time>2024-10-13T08:19:08.000Z</time>
      </trkpt>
      <trkpt lat="49.33871" lon="0.89195">
        <ele>86.599998474121</ele>
        <time>2024-10-13T08:19:20.000Z</time>
      </trkpt>
      <trkpt lat="49.33872" lon="0.89185">
        <ele>86.400001525879</ele>
        <time>2024-10-13T08:19:21.000Z</time>
      </trkpt>
      <trkpt lat="49.33872" lon="0.89185">
        <ele>86.400001525879</ele>
        <time>2024-10-13T08:19:22.000Z</time>
      </trkpt>
      <trkpt lat="49.33873" lon="0.89175">
        <ele>86.199996948242</ele>
        <time>2024-10-13T08:19:24.000Z</time>
      </trkpt>
      <trkpt lat="49.33874" lon="0.89165">
        <ele>86.400001525879</ele>
        <time>2024-10-13T08:19:26.000Z</time>
      </trkpt>
      <trkpt lat="49.33875" lon="0.89156">
        <ele>86.800003051758</ele>
        <time>2024-10-13T08:19:28.000Z</time>
      </trkpt>
      <trkpt lat="49.33876" lon="0.89128">
        <ele>89.199996948242</ele>
        <time>2024-10-13T08:19:32.000Z</time>
      </trkpt>
      <trkpt lat="49.33877" lon="0.89124">
        <ele>89.800003051758</ele>
        <time>2024-10-13T08:19:33.000Z</time>
      </trkpt>
      <trkpt lat="49.33878" lon="0.89113">
        <ele>91</ele>
        <time>2024-10-13T08:19:35.000Z</time>
      </trkpt>
      <trkpt lat="49.33881" lon="0.89086">
        <ele>94.800003051758</ele>
        <time>2024-10-13T08:19:40.000Z</time>
      </trkpt>
      <trkpt lat="49.33882" lon="0.89073">
        <ele>96</ele>
        <time>2024-10-13T08:19:42.000Z</time>
      </trkpt>
      <trkpt lat="49.33883" lon="0.89069">
        <ele>96.400001525879</ele>
        <time>2024-10-13T08:19:43.000Z</time>
      </trkpt>
      <trkpt lat="49.33883" lon="0.89064">
        <ele>96.599998474121</ele>
        <time>2024-10-13T08:19:44.000Z</time>
      </trkpt>
      <trkpt lat="49.33884" lon="0.89041">
        <ele>97</ele>
        <time>2024-10-13T08:19:49.000Z</time>
      </trkpt>
      <trkpt lat="49.33891" lon="0.88995">
        <ele>97.599998474121</ele>
        <time>2024-10-13T08:19:58.000Z</time>
      </trkpt>
      <trkpt lat="49.33891" lon="0.8899">
        <ele>97.400001525879</ele>
        <time>2024-10-13T08:19:59.000Z</time>
      </trkpt>
      <trkpt lat="49.33891" lon="0.88985">
        <ele>97.199996948242</ele>
        <time>2024-10-13T08:20:00.000Z</time>
      </trkpt>
      <trkpt lat="49.33891" lon="0.88979">
        <ele>97</ele>
        <time>2024-10-13T08:20:01.000Z</time>
      </trkpt>
      <trkpt lat="49.33892" lon="0.88974">
        <ele>96.599998474121</ele>
        <time>2024-10-13T08:20:02.000Z</time>
      </trkpt>
      <trkpt lat="49.33892" lon="0.88969">
        <ele>96.400001525879</ele>
        <time>2024-10-13T08:20:03.000Z</time>
      </trkpt>
      <trkpt lat="49.33892" lon="0.88962">
        <ele>96</ele>
        <time>2024-10-13T08:20:04.000Z</time>
      </trkpt>
      <trkpt lat="49.33893" lon="0.88955">
        <ele>95.800003051758</ele>
        <time>2024-10-13T08:20:05.000Z</time>
      </trkpt>
      <trkpt lat="49.33894" lon="0.8895">
        <ele>95.800003051758</ele>
        <time>2024-10-13T08:20:06.000Z</time>
      </trkpt>
      <trkpt lat="49.33897" lon="0.88934">
        <ele>95</ele>
        <time>2024-10-13T08:20:09.000Z</time>
      </trkpt>
      <trkpt lat="49.33898" lon="0.88929">
        <ele>94.599998474121</ele>
        <time>2024-10-13T08:20:10.000Z</time>
      </trkpt>
      <trkpt lat="49.33899" lon="0.88924">
        <ele>94.400001525879</ele>
        <time>2024-10-13T08:20:11.000Z</time>
      </trkpt>
      <trkpt lat="49.33901" lon="0.88919">
        <ele>94.400001525879</ele>
        <time>2024-10-13T08:20:12.000Z</time>
      </trkpt>
      <trkpt lat="49.33903" lon="0.88914">
        <ele>94.199996948242</ele>
        <time>2024-10-13T08:20:13.000Z</time>
      </trkpt>
      <trkpt lat="49.33905" lon="0.88908">
        <ele>93.800003051758</ele>
        <time>2024-10-13T08:20:14.000Z</time>
      </trkpt>
      <trkpt lat="49.33917" lon="0.88824">
        <ele>90.400001525879</ele>
        <time>2024-10-13T08:20:27.000Z</time>
      </trkpt>
      <trkpt lat="49.33938" lon="0.88747">
        <ele>92.599998474121</ele>
        <time>2024-10-13T08:20:42.000Z</time>
      </trkpt>
      <trkpt lat="49.33943" lon="0.88732">
        <ele>93.599998474121</ele>
        <time>2024-10-13T08:20:45.000Z</time>
      </trkpt>
      <trkpt lat="49.33946" lon="0.88719">
        <ele>93.800003051758</ele>
        <time>2024-10-13T08:20:48.000Z</time>
      </trkpt>
      <trkpt lat="49.33949" lon="0.88707">
        <ele>94.400001525879</ele>
        <time>2024-10-13T08:20:51.000Z</time>
      </trkpt>
      <trkpt lat="49.33952" lon="0.88699">
        <ele>94.800003051758</ele>
        <time>2024-10-13T08:20:53.000Z</time>
      </trkpt>
      <trkpt lat="49.33953" lon="0.88696">
        <ele>95</ele>
        <time>2024-10-13T08:20:54.000Z</time>
      </trkpt>
      <trkpt lat="49.33955" lon="0.88692">
        <ele>95.199996948242</ele>
        <time>2024-10-13T08:20:55.000Z</time>
      </trkpt>
      <trkpt lat="49.33956" lon="0.88688">
        <ele>95.400001525879</ele>
        <time>2024-10-13T08:20:56.000Z</time>
      </trkpt>
      <trkpt lat="49.33959" lon="0.88684">
        <ele>96</ele>
        <time>2024-10-13T08:20:57.000Z</time>
      </trkpt>
      <trkpt lat="49.3396" lon="0.8868">
        <ele>96.199996948242</ele>
        <time>2024-10-13T08:20:58.000Z</time>
      </trkpt>
      <trkpt lat="49.33962" lon="0.88677">
        <ele>96.400001525879</ele>
        <time>2024-10-13T08:20:59.000Z</time>
      </trkpt>
      <trkpt lat="49.33963" lon="0.88673">
        <ele>96.599998474121</ele>
        <time>2024-10-13T08:21:00.000Z</time>
      </trkpt>
      <trkpt lat="49.33968" lon="0.88666">
        <ele>97.599998474121</ele>
        <time>2024-10-13T08:21:01.000Z</time>
      </trkpt>
      <trkpt lat="49.33982" lon="0.88656">
        <ele>99.800003051758</ele>
        <time>2024-10-13T08:21:09.000Z</time>
      </trkpt>
      <trkpt lat="49.33984" lon="0.88655">
        <ele>100.19999694824</ele>
        <time>2024-10-13T08:21:10.000Z</time>
      </trkpt>
      <trkpt lat="49.33986" lon="0.88656">
        <ele>100.40000152588</ele>
        <time>2024-10-13T08:21:11.000Z</time>
      </trkpt>
      <trkpt lat="49.33991" lon="0.88654">
        <ele>101.40000152588</ele>
        <time>2024-10-13T08:21:14.000Z</time>
      </trkpt>
      <trkpt lat="49.33993" lon="0.88655">
        <ele>101.80000305176</ele>
        <time>2024-10-13T08:21:15.000Z</time>
      </trkpt>
      <trkpt lat="49.33997" lon="0.88656">
        <ele>102.40000152588</ele>
        <time>2024-10-13T08:21:17.000Z</time>
      </trkpt>
      <trkpt lat="49.34013" lon="0.88653">
        <ele>103.80000305176</ele>
        <time>2024-10-13T08:21:28.000Z</time>
      </trkpt>
      <trkpt lat="49.34025" lon="0.88653">
        <ele>105</ele>
        <time>2024-10-13T08:21:34.000Z</time>
      </trkpt>
      <trkpt lat="49.34033" lon="0.88653">
        <ele>105</ele>
        <time>2024-10-13T08:21:38.000Z</time>
      </trkpt>
      <trkpt lat="49.34037" lon="0.88651">
        <ele>105</ele>
        <time>2024-10-13T08:21:41.000Z</time>
      </trkpt>
      <trkpt lat="49.3405" lon="0.88667">
        <ele>105</ele>
        <time>2024-10-13T08:21:53.000Z</time>
      </trkpt>
      <trkpt lat="49.34066" lon="0.88732">
        <ele>107</ele>
        <time>2024-10-13T08:22:23.000Z</time>
      </trkpt>
      <trkpt lat="49.34076" lon="0.88736">
        <ele>107</ele>
        <time>2024-10-13T08:22:27.000Z</time>
      </trkpt>
      <trkpt lat="49.34081" lon="0.88738">
        <ele>107</ele>
        <time>2024-10-13T08:22:29.000Z</time>
      </trkpt>
      <trkpt lat="49.34084" lon="0.88739">
        <ele>106.80000305176</ele>
        <time>2024-10-13T08:22:30.000Z</time>
      </trkpt>
      <trkpt lat="49.34086" lon="0.8874">
        <ele>106.80000305176</ele>
        <time>2024-10-13T08:22:31.000Z</time>
      </trkpt>
      <trkpt lat="49.341" lon="0.88755">
        <ele>106.19999694824</ele>
        <time>2024-10-13T08:22:37.000Z</time>
      </trkpt>
      <trkpt lat="49.34106" lon="0.88755">
        <ele>106.19999694824</ele>
        <time>2024-10-13T08:22:39.000Z</time>
      </trkpt>
      <trkpt lat="49.34112" lon="0.88759">
        <ele>105.59999847412</ele>
        <time>2024-10-13T08:22:41.000Z</time>
      </trkpt>
      <trkpt lat="49.34118" lon="0.88764">
        <ele>104.59999847412</ele>
        <time>2024-10-13T08:22:43.000Z</time>
      </trkpt>
      <trkpt lat="49.34125" lon="0.88765">
        <ele>103.59999847412</ele>
        <time>2024-10-13T08:22:46.000Z</time>
      </trkpt>
      <trkpt lat="49.3413" lon="0.88762">
        <ele>103.40000152588</ele>
        <time>2024-10-13T08:22:48.000Z</time>
      </trkpt>
      <trkpt lat="49.34131" lon="0.8876">
        <ele>103.40000152588</ele>
        <time>2024-10-13T08:22:49.000Z</time>
      </trkpt>
      <trkpt lat="49.34133" lon="0.88759">
        <ele>103.19999694824</ele>
        <time>2024-10-13T08:22:50.000Z</time>
      </trkpt>
      <trkpt lat="49.34131" lon="0.88757">
        <ele>103.59999847412</ele>
        <time>2024-10-13T08:22:53.000Z</time>
      </trkpt>
      <trkpt lat="49.34129" lon="0.88757">
        <ele>103.59999847412</ele>
        <time>2024-10-13T08:22:55.000Z</time>
      </trkpt>
      <trkpt lat="49.34132" lon="0.88745">
        <ele>104.40000152588</ele>
        <time>2024-10-13T08:23:00.000Z</time>
      </trkpt>
      <trkpt lat="49.34134" lon="0.88739">
        <ele>104.59999847412</ele>
        <time>2024-10-13T08:23:01.000Z</time>
      </trkpt>
      <trkpt lat="49.34134" lon="0.88739">
        <ele>104.59999847412</ele>
        <time>2024-10-13T08:23:02.000Z</time>
      </trkpt>
      <trkpt lat="49.34142" lon="0.88725">
        <ele>105.19999694824</ele>
        <time>2024-10-13T08:23:07.000Z</time>
      </trkpt>
      <trkpt lat="49.3416" lon="0.88685">
        <ele>106.80000305176</ele>
        <time>2024-10-13T08:23:20.000Z</time>
      </trkpt>
      <trkpt lat="49.34162" lon="0.88677">
        <ele>107</ele>
        <time>2024-10-13T08:23:21.000Z</time>
      </trkpt>
      <trkpt lat="49.34162" lon="0.88677">
        <ele>107</ele>
        <time>2024-10-13T08:23:22.000Z</time>
      </trkpt>
      <trkpt lat="49.34164" lon="0.88672">
        <ele>107.19999694824</ele>
        <time>2024-10-13T08:23:24.000Z</time>
      </trkpt>
      <trkpt lat="49.3417" lon="0.88661">
        <ele>107.59999847412</ele>
        <time>2024-10-13T08:23:29.000Z</time>
      </trkpt>
      <trkpt lat="49.34171" lon="0.88658">
        <ele>107.80000305176</ele>
        <time>2024-10-13T08:23:30.000Z</time>
      </trkpt>
      <trkpt lat="49.3418" lon="0.88635">
        <ele>109</ele>
        <time>2024-10-13T08:23:37.000Z</time>
      </trkpt>
      <trkpt lat="49.34185" lon="0.88616">
        <ele>109.40000152588</ele>
        <time>2024-10-13T08:23:42.000Z</time>
      </trkpt>
      <trkpt lat="49.34196" lon="0.88584">
        <ele>110</ele>
        <time>2024-10-13T08:23:51.000Z</time>
      </trkpt>
      <trkpt lat="49.34228" lon="0.88513">
        <ele>111.59999847412</ele>
        <time>2024-10-13T08:24:07.000Z</time>
      </trkpt>
      <trkpt lat="49.34242" lon="0.88486">
        <ele>112.80000305176</ele>
        <time>2024-10-13T08:24:13.000Z</time>
      </trkpt>
      <trkpt lat="49.34254" lon="0.88424">
        <ele>112</ele>
        <time>2024-10-13T08:24:31.000Z</time>
      </trkpt>
      <trkpt lat="49.3422" lon="0.88405">
        <ele>110.40000152588</ele>
        <time>2024-10-13T08:24:42.000Z</time>
      </trkpt>
      <trkpt lat="49.34183" lon="0.88378">
        <ele>108.19999694824</ele>
        <time>2024-10-13T08:24:53.000Z</time>
      </trkpt>
      <trkpt lat="49.34176" lon="0.88359">
        <ele>108</ele>
        <time>2024-10-13T08:24:56.000Z</time>
      </trkpt>
      <trkpt lat="49.34136" lon="0.88318">
        <ele>106</ele>
        <time>2024-10-13T08:25:13.000Z</time>
      </trkpt>
      <trkpt lat="49.34128" lon="0.8831">
        <ele>104.59999847412</ele>
        <time>2024-10-13T08:25:17.000Z</time>
      </trkpt>
      <trkpt lat="49.34117" lon="0.88267">
        <ele>99.800003051758</ele>
        <time>2024-10-13T08:25:27.000Z</time>
      </trkpt>
      <trkpt lat="49.34121" lon="0.88232">
        <ele>97</ele>
        <time>2024-10-13T08:25:35.000Z</time>
      </trkpt>
      <trkpt lat="49.34116" lon="0.88227">
        <ele>96.199996948242</ele>
        <time>2024-10-13T08:25:37.000Z</time>
      </trkpt>
      <trkpt lat="49.34117" lon="0.88221">
        <ele>96</ele>
        <time>2024-10-13T08:25:38.000Z</time>
      </trkpt>
      <trkpt lat="49.34118" lon="0.88218">
        <ele>95.800003051758</ele>
        <time>2024-10-13T08:25:39.000Z</time>
      </trkpt>
      <trkpt lat="49.34121" lon="0.88141">
        <ele>91.599998474121</ele>
        <time>2024-10-13T08:26:10.000Z</time>
      </trkpt>
      <trkpt lat="49.34122" lon="0.88093">
        <ele>90.599998474121</ele>
        <time>2024-10-13T08:26:22.000Z</time>
      </trkpt>
      <trkpt lat="49.34145" lon="0.8808">
        <ele>89.599998474121</ele>
        <time>2024-10-13T08:26:31.000Z</time>
      </trkpt>
      <trkpt lat="49.34146" lon="0.8808">
        <ele>89.599998474121</ele>
        <time>2024-10-13T08:26:32.000Z</time>
      </trkpt>
      <trkpt lat="49.34147" lon="0.88087">
        <ele>90</ele>
        <time>2024-10-13T08:26:36.000Z</time>
      </trkpt>
      <trkpt lat="49.34149" lon="0.88095">
        <ele>90.599998474121</ele>
        <time>2024-10-13T08:26:40.000Z</time>
      </trkpt>
      <trkpt lat="49.34161" lon="0.88112">
        <ele>91.400001525879</ele>
        <time>2024-10-13T08:26:48.000Z</time>
      </trkpt>
      <trkpt lat="49.34166" lon="0.88109">
        <ele>90.599998474121</ele>
        <time>2024-10-13T08:26:51.000Z</time>
      </trkpt>
      <trkpt lat="49.34179" lon="0.88092">
        <ele>87.400001525879</ele>
        <time>2024-10-13T08:26:59.000Z</time>
      </trkpt>
      <trkpt lat="49.34174" lon="0.88039">
        <ele>85.800003051758</ele>
        <time>2024-10-13T08:27:13.000Z</time>
      </trkpt>
      <trkpt lat="49.34161" lon="0.88008">
        <ele>86</ele>
        <time>2024-10-13T08:27:26.000Z</time>
      </trkpt>
      <trkpt lat="49.34144" lon="0.87987">
        <ele>85.599998474121</ele>
        <time>2024-10-13T08:27:38.000Z</time>
      </trkpt>
      <trkpt lat="49.34144" lon="0.87984">
        <ele>85.599998474121</ele>
        <time>2024-10-13T08:27:39.000Z</time>
      </trkpt>
      <trkpt lat="49.34145" lon="0.87952">
        <ele>86.800003051758</ele>
        <time>2024-10-13T08:28:06.000Z</time>
      </trkpt>
      <trkpt lat="49.34143" lon="0.87902">
        <ele>89.599998474121</ele>
        <time>2024-10-13T08:28:19.000Z</time>
      </trkpt>
      <trkpt lat="49.34143" lon="0.87857">
        <ele>93.400001525879</ele>
        <time>2024-10-13T08:28:30.000Z</time>
      </trkpt>
      <trkpt lat="49.34132" lon="0.87842">
        <ele>93.800003051758</ele>
        <time>2024-10-13T08:28:38.000Z</time>
      </trkpt>
      <trkpt lat="49.34141" lon="0.87806">
        <ele>99.400001525879</ele>
        <time>2024-10-13T08:28:53.000Z</time>
      </trkpt>
      <trkpt lat="49.3415" lon="0.87777">
        <ele>102.40000152588</ele>
        <time>2024-10-13T08:29:14.000Z</time>
      </trkpt>
      <trkpt lat="49.34152" lon="0.87771">
        <ele>102.40000152588</ele>
        <time>2024-10-13T08:29:17.000Z</time>
      </trkpt>
      <trkpt lat="49.34154" lon="0.87764">
        <ele>102.80000305176</ele>
        <time>2024-10-13T08:29:21.000Z</time>
      </trkpt>
      <trkpt lat="49.34164" lon="0.87737">
        <ele>102.19999694824</ele>
        <time>2024-10-13T08:29:30.000Z</time>
      </trkpt>
      <trkpt lat="49.34168" lon="0.87728">
        <ele>102</ele>
        <time>2024-10-13T08:29:34.000Z</time>
      </trkpt>
      <trkpt lat="49.34195" lon="0.87664">
        <ele>101</ele>
        <time>2024-10-13T08:29:58.000Z</time>
      </trkpt>
      <trkpt lat="49.34199" lon="0.87651">
        <ele>101</ele>
        <time>2024-10-13T08:30:03.000Z</time>
      </trkpt>
      <trkpt lat="49.34201" lon="0.87648">
        <ele>101</ele>
        <time>2024-10-13T08:30:04.000Z</time>
      </trkpt>
      <trkpt lat="49.34215" lon="0.87576">
        <ele>103</ele>
        <time>2024-10-13T08:30:21.000Z</time>
      </trkpt>
      <trkpt lat="49.34218" lon="0.8755">
        <ele>103.59999847412</ele>
        <time>2024-10-13T08:30:27.000Z</time>
      </trkpt>
      <trkpt lat="49.34228" lon="0.87461">
        <ele>106.80000305176</ele>
        <time>2024-10-13T08:30:41.000Z</time>
      </trkpt>
      <trkpt lat="49.34227" lon="0.87415">
        <ele>107</ele>
        <time>2024-10-13T08:30:47.000Z</time>
      </trkpt>
      <trkpt lat="49.34221" lon="0.87329">
        <ele>104.80000305176</ele>
        <time>2024-10-13T08:31:00.000Z</time>
      </trkpt>
      <trkpt lat="49.34203" lon="0.87252">
        <ele>106.59999847412</ele>
        <time>2024-10-13T08:31:15.000Z</time>
      </trkpt>
      <trkpt lat="49.34197" lon="0.8724">
        <ele>107.80000305176</ele>
        <time>2024-10-13T08:31:18.000Z</time>
      </trkpt>
      <trkpt lat="49.34186" lon="0.87224">
        <ele>108.80000305176</ele>
        <time>2024-10-13T08:31:22.000Z</time>
      </trkpt>
      <trkpt lat="49.34183" lon="0.87222">
        <ele>109.19999694824</ele>
        <time>2024-10-13T08:31:23.000Z</time>
      </trkpt>
      <trkpt lat="49.34146" lon="0.87179">
        <ele>110.80000305176</ele>
        <time>2024-10-13T08:31:31.000Z</time>
      </trkpt>
      <trkpt lat="49.34132" lon="0.87161">
        <ele>112.19999694824</ele>
        <time>2024-10-13T08:31:34.000Z</time>
      </trkpt>
      <trkpt lat="49.34091" lon="0.87131">
        <ele>115.19999694824</ele>
        <time>2024-10-13T08:31:40.000Z</time>
      </trkpt>
      <trkpt lat="49.34073" lon="0.87103">
        <ele>116.19999694824</ele>
        <time>2024-10-13T08:31:46.000Z</time>
      </trkpt>
      <trkpt lat="49.34043" lon="0.87034">
        <ele>119.59999847412</ele>
        <time>2024-10-13T08:32:00.000Z</time>
      </trkpt>
      <trkpt lat="49.34037" lon="0.86975">
        <ele>119.40000152588</ele>
        <time>2024-10-13T08:32:14.000Z</time>
      </trkpt>
      <trkpt lat="49.34037" lon="0.86973">
        <ele>119.59999847412</ele>
        <time>2024-10-13T08:32:15.000Z</time>
      </trkpt>
      <trkpt lat="49.34035" lon="0.8697">
        <ele>119.59999847412</ele>
        <time>2024-10-13T08:32:16.000Z</time>
      </trkpt>
      <trkpt lat="49.34032" lon="0.86967">
        <ele>119.59999847412</ele>
        <time>2024-10-13T08:32:17.000Z</time>
      </trkpt>
      <trkpt lat="49.34026" lon="0.86953">
        <ele>120</ele>
        <time>2024-10-13T08:32:20.000Z</time>
      </trkpt>
      <trkpt lat="49.34019" lon="0.86946">
        <ele>120.19999694824</ele>
        <time>2024-10-13T08:32:22.000Z</time>
      </trkpt>
      <trkpt lat="49.34015" lon="0.86943">
        <ele>120.19999694824</ele>
        <time>2024-10-13T08:32:23.000Z</time>
      </trkpt>
      <trkpt lat="49.34012" lon="0.86941">
        <ele>120.40000152588</ele>
        <time>2024-10-13T08:32:24.000Z</time>
      </trkpt>
      <trkpt lat="49.34" lon="0.86932">
        <ele>120.80000305176</ele>
        <time>2024-10-13T08:32:28.000Z</time>
      </trkpt>
      <trkpt lat="49.33996" lon="0.8693">
        <ele>121</ele>
        <time>2024-10-13T08:32:29.000Z</time>
      </trkpt>
      <trkpt lat="49.3399" lon="0.86928">
        <ele>121.40000152588</ele>
        <time>2024-10-13T08:32:30.000Z</time>
      </trkpt>
      <trkpt lat="49.33962" lon="0.86918">
        <ele>123.40000152588</ele>
        <time>2024-10-13T08:32:35.000Z</time>
      </trkpt>
      <trkpt lat="49.33953" lon="0.86914">
        <ele>123.40000152588</ele>
        <time>2024-10-13T08:32:37.000Z</time>
      </trkpt>
      <trkpt lat="49.33938" lon="0.86892">
        <ele>124</ele>
        <time>2024-10-13T08:32:44.000Z</time>
      </trkpt>
      <trkpt lat="49.33919" lon="0.86862">
        <ele>124.40000152588</ele>
        <time>2024-10-13T08:32:53.000Z</time>
      </trkpt>
      <trkpt lat="49.33907" lon="0.86842">
        <ele>125</ele>
        <time>2024-10-13T08:32:59.000Z</time>
      </trkpt>
      <trkpt lat="49.33904" lon="0.86841">
        <ele>125.19999694824</ele>
        <time>2024-10-13T08:33:00.000Z</time>
      </trkpt>
      <trkpt lat="49.33897" lon="0.86835">
        <ele>125.59999847412</ele>
        <time>2024-10-13T08:33:03.000Z</time>
      </trkpt>
      <trkpt lat="49.33895" lon="0.86831">
        <ele>126</ele>
        <time>2024-10-13T08:33:04.000Z</time>
      </trkpt>
      <trkpt lat="49.33895" lon="0.86826">
        <ele>126.19999694824</ele>
        <time>2024-10-13T08:33:05.000Z</time>
      </trkpt>
      <trkpt lat="49.33895" lon="0.86817">
        <ele>127</ele>
        <time>2024-10-13T08:33:07.000Z</time>
      </trkpt>
      <trkpt lat="49.33895" lon="0.86813">
        <ele>127</ele>
        <time>2024-10-13T08:33:08.000Z</time>
      </trkpt>
      <trkpt lat="49.33883" lon="0.86797">
        <ele>127.59999847412</ele>
        <time>2024-10-13T08:33:14.000Z</time>
      </trkpt>
      <trkpt lat="49.33876" lon="0.86775">
        <ele>128</ele>
        <time>2024-10-13T08:33:23.000Z</time>
      </trkpt>
      <trkpt lat="49.33875" lon="0.86768">
        <ele>128</ele>
        <time>2024-10-13T08:33:26.000Z</time>
      </trkpt>
      <trkpt lat="49.33875" lon="0.86765">
        <ele>128</ele>
        <time>2024-10-13T08:33:27.000Z</time>
      </trkpt>
      <trkpt lat="49.33875" lon="0.86762">
        <ele>128</ele>
        <time>2024-10-13T08:33:28.000Z</time>
      </trkpt>
      <trkpt lat="49.33872" lon="0.86763">
        <ele>128</ele>
        <time>2024-10-13T08:33:29.000Z</time>
      </trkpt>
      <trkpt lat="49.33868" lon="0.86752">
        <ele>128.39999389648</ele>
        <time>2024-10-13T08:33:33.000Z</time>
      </trkpt>
      <trkpt lat="49.33867" lon="0.86743">
        <ele>128.60000610352</ele>
        <time>2024-10-13T08:33:36.000Z</time>
      </trkpt>
      <trkpt lat="49.33868" lon="0.86739">
        <ele>128.80000305176</ele>
        <time>2024-10-13T08:33:37.000Z</time>
      </trkpt>
      <trkpt lat="49.33868" lon="0.86735">
        <ele>129</ele>
        <time>2024-10-13T08:33:38.000Z</time>
      </trkpt>
      <trkpt lat="49.33869" lon="0.86717">
        <ele>129</ele>
        <time>2024-10-13T08:33:42.000Z</time>
      </trkpt>
      <trkpt lat="49.3387" lon="0.86712">
        <ele>129</ele>
        <time>2024-10-13T08:33:43.000Z</time>
      </trkpt>
      <trkpt lat="49.33873" lon="0.86694">
        <ele>129.39999389648</ele>
        <time>2024-10-13T08:33:47.000Z</time>
      </trkpt>
      <trkpt lat="49.33877" lon="0.86656">
        <ele>129.80000305176</ele>
        <time>2024-10-13T08:33:55.000Z</time>
      </trkpt>
      <trkpt lat="49.33876" lon="0.86646">
        <ele>130</ele>
        <time>2024-10-13T08:33:57.000Z</time>
      </trkpt>
      <trkpt lat="49.33875" lon="0.86641">
        <ele>130</ele>
        <time>2024-10-13T08:33:58.000Z</time>
      </trkpt>
      <trkpt lat="49.33838" lon="0.86583">
        <ele>132.39999389648</ele>
        <time>2024-10-13T08:34:17.000Z</time>
      </trkpt>
      <trkpt lat="49.33815" lon="0.86569">
        <ele>135</ele>
        <time>2024-10-13T08:34:23.000Z</time>
      </trkpt>
      <trkpt lat="49.33808" lon="0.86563">
        <ele>135.60000610352</ele>
        <time>2024-10-13T08:34:25.000Z</time>
      </trkpt>
      <trkpt lat="49.33805" lon="0.86559">
        <ele>136</ele>
        <time>2024-10-13T08:34:26.000Z</time>
      </trkpt>
      <trkpt lat="49.33801" lon="0.86558">
        <ele>136.19999694824</ele>
        <time>2024-10-13T08:34:27.000Z</time>
      </trkpt>
      <trkpt lat="49.33749" lon="0.86522">
        <ele>134.80000305176</ele>
        <time>2024-10-13T08:34:39.000Z</time>
      </trkpt>
      <trkpt lat="49.33711" lon="0.86504">
        <ele>133.60000610352</ele>
        <time>2024-10-13T08:34:48.000Z</time>
      </trkpt>
      <trkpt lat="49.33681" lon="0.8655">
        <ele>130</ele>
        <time>2024-10-13T08:35:01.000Z</time>
      </trkpt>
      <trkpt lat="49.33677" lon="0.86559">
        <ele>129.39999389648</ele>
        <time>2024-10-13T08:35:03.000Z</time>
      </trkpt>
      <trkpt lat="49.33674" lon="0.86568">
        <ele>128.80000305176</ele>
        <time>2024-10-13T08:35:06.000Z</time>
      </trkpt>
      <trkpt lat="49.33674" lon="0.86578">
        <ele>128.39999389648</ele>
        <time>2024-10-13T08:35:20.000Z</time>
      </trkpt>
      <trkpt lat="49.33674" lon="0.86578">
        <ele>128.39999389648</ele>
        <time>2024-10-13T08:35:23.000Z</time>
      </trkpt>
      <trkpt lat="49.33671" lon="0.86583">
        <ele>128</ele>
        <time>2024-10-13T08:35:34.000Z</time>
      </trkpt>
      <trkpt lat="49.33647" lon="0.86628">
        <ele>126.40000152588</ele>
        <time>2024-10-13T08:35:42.000Z</time>
      </trkpt>
      <trkpt lat="49.33658" lon="0.86642">
        <ele>126.80000305176</ele>
        <time>2024-10-13T08:35:46.000Z</time>
      </trkpt>
      <trkpt lat="49.33665" lon="0.86651">
        <ele>127</ele>
        <time>2024-10-13T08:35:50.000Z</time>
      </trkpt>
      <trkpt lat="49.33669" lon="0.86657">
        <ele>126.59999847412</ele>
        <time>2024-10-13T08:35:54.000Z</time>
      </trkpt>
      <trkpt lat="49.33673" lon="0.8666">
        <ele>126.59999847412</ele>
        <time>2024-10-13T08:35:58.000Z</time>
      </trkpt>
      <trkpt lat="49.33669" lon="0.86666">
        <ele>126</ele>
        <time>2024-10-13T08:36:04.000Z</time>
      </trkpt>
      <trkpt lat="49.33669" lon="0.86666">
        <ele>126</ele>
        <time>2024-10-13T08:36:09.000Z</time>
      </trkpt>
      <trkpt lat="49.33669" lon="0.86666">
        <ele>126</ele>
        <time>2024-10-13T08:36:13.000Z</time>
      </trkpt>
      <trkpt lat="49.33668" lon="0.86668">
        <ele>125.80000305176</ele>
        <time>2024-10-13T08:36:16.000Z</time>
      </trkpt>
      <trkpt lat="49.33668" lon="0.86668">
        <ele>125.80000305176</ele>
        <time>2024-10-13T08:36:17.000Z</time>
      </trkpt>
      <trkpt lat="49.33668" lon="0.86668">
        <ele>125.80000305176</ele>
        <time>2024-10-13T08:36:18.000Z</time>
      </trkpt>
      <trkpt lat="49.33667" lon="0.86669">
        <ele>125.80000305176</ele>
        <time>2024-10-13T08:36:19.000Z</time>
      </trkpt>
      <trkpt lat="49.33665" lon="0.86672">
        <ele>125.40000152588</ele>
        <time>2024-10-13T08:36:24.000Z</time>
      </trkpt>
      <trkpt lat="49.33661" lon="0.86675">
        <ele>125</ele>
        <time>2024-10-13T08:36:28.000Z</time>
      </trkpt>
      <trkpt lat="49.3365" lon="0.86675">
        <ele>124.59999847412</ele>
        <time>2024-10-13T08:36:35.000Z</time>
      </trkpt>
      <trkpt lat="49.33642" lon="0.8668">
        <ele>124.19999694824</ele>
        <time>2024-10-13T08:36:42.000Z</time>
      </trkpt>
      <trkpt lat="49.33637" lon="0.86687">
        <ele>123.40000152588</ele>
        <time>2024-10-13T08:36:47.000Z</time>
      </trkpt>
      <trkpt lat="49.33624" lon="0.86696">
        <ele>121.40000152588</ele>
        <time>2024-10-13T08:36:58.000Z</time>
      </trkpt>
      <trkpt lat="49.33619" lon="0.86704">
        <ele>120.40000152588</ele>
        <time>2024-10-13T08:37:00.000Z</time>
      </trkpt>
      <trkpt lat="49.33608" lon="0.8673">
        <ele>116.40000152588</ele>
        <time>2024-10-13T08:37:17.000Z</time>
      </trkpt>
      <trkpt lat="49.33618" lon="0.86801">
        <ele>110.80000305176</ele>
        <time>2024-10-13T08:37:54.000Z</time>
      </trkpt>
      <trkpt lat="49.33599" lon="0.8685">
        <ele>102.80000305176</ele>
        <time>2024-10-13T08:38:22.000Z</time>
      </trkpt>
      <trkpt lat="49.33602" lon="0.86864">
        <ele>101.40000152588</ele>
        <time>2024-10-13T08:38:26.000Z</time>
      </trkpt>
      <trkpt lat="49.33595" lon="0.86872">
        <ele>99.599998474121</ele>
        <time>2024-10-13T08:38:31.000Z</time>
      </trkpt>
      <trkpt lat="49.33582" lon="0.86879">
        <ele>98.199996948242</ele>
        <time>2024-10-13T08:38:34.000Z</time>
      </trkpt>
      <trkpt lat="49.33583" lon="0.86881">
        <ele>98.199996948242</ele>
        <time>2024-10-13T08:38:36.000Z</time>
      </trkpt>
      <trkpt lat="49.33583" lon="0.86884">
        <ele>98.199996948242</ele>
        <time>2024-10-13T08:38:37.000Z</time>
      </trkpt>
      <trkpt lat="49.33583" lon="0.86884">
        <ele>98.199996948242</ele>
        <time>2024-10-13T08:38:38.000Z</time>
      </trkpt>
      <trkpt lat="49.33584" lon="0.86885">
        <ele>98.199996948242</ele>
        <time>2024-10-13T08:38:39.000Z</time>
      </trkpt>
      <trkpt lat="49.33586" lon="0.86887">
        <ele>98.199996948242</ele>
        <time>2024-10-13T08:38:40.000Z</time>
      </trkpt>
      <trkpt lat="49.33588" lon="0.8689">
        <ele>98.400001525879</ele>
        <time>2024-10-13T08:38:41.000Z</time>
      </trkpt>
      <trkpt lat="49.33597" lon="0.86901">
        <ele>98.599998474121</ele>
        <time>2024-10-13T08:38:44.000Z</time>
      </trkpt>
      <trkpt lat="49.33601" lon="0.86905">
        <ele>98.599998474121</ele>
        <time>2024-10-13T08:38:45.000Z</time>
      </trkpt>
      <trkpt lat="49.33605" lon="0.86909">
        <ele>98.599998474121</ele>
        <time>2024-10-13T08:38:46.000Z</time>
      </trkpt>
      <trkpt lat="49.33609" lon="0.86913">
        <ele>98.599998474121</ele>
        <time>2024-10-13T08:38:47.000Z</time>
      </trkpt>
      <trkpt lat="49.33614" lon="0.86923">
        <ele>98.400001525879</ele>
        <time>2024-10-13T08:38:49.000Z</time>
      </trkpt>
      <trkpt lat="49.33622" lon="0.86939">
        <ele>98.199996948242</ele>
        <time>2024-10-13T08:38:52.000Z</time>
      </trkpt>
      <trkpt lat="49.33628" lon="0.86953">
        <ele>98</ele>
        <time>2024-10-13T08:38:55.000Z</time>
      </trkpt>
      <trkpt lat="49.33663" lon="0.87019">
        <ele>97</ele>
        <time>2024-10-13T08:39:07.000Z</time>
      </trkpt>
      <trkpt lat="49.33688" lon="0.87068">
        <ele>94.199996948242</ele>
        <time>2024-10-13T08:39:15.000Z</time>
      </trkpt>
      <trkpt lat="49.33695" lon="0.87078">
        <ele>94.199996948242</ele>
        <time>2024-10-13T08:39:17.000Z</time>
      </trkpt>
      <trkpt lat="49.3371" lon="0.87098">
        <ele>94.400001525879</ele>
        <time>2024-10-13T08:39:21.000Z</time>
      </trkpt>
      <trkpt lat="49.33745" lon="0.8712">
        <ele>92</ele>
        <time>2024-10-13T08:39:29.000Z</time>
      </trkpt>
      <trkpt lat="49.33769" lon="0.87136">
        <ele>90</ele>
        <time>2024-10-13T08:39:34.000Z</time>
      </trkpt>
      <trkpt lat="49.33773" lon="0.8714">
        <ele>89.599998474121</ele>
        <time>2024-10-13T08:39:35.000Z</time>
      </trkpt>
      <trkpt lat="49.33792" lon="0.87152">
        <ele>88.800003051758</ele>
        <time>2024-10-13T08:39:40.000Z</time>
      </trkpt>
      <trkpt lat="49.33839" lon="0.87202">
        <ele>85.800003051758</ele>
        <time>2024-10-13T08:39:53.000Z</time>
      </trkpt>
      <trkpt lat="49.33857" lon="0.87218">
        <ele>85</ele>
        <time>2024-10-13T08:39:57.000Z</time>
      </trkpt>
      <trkpt lat="49.33878" lon="0.87235">
        <ele>85</ele>
        <time>2024-10-13T08:40:01.000Z</time>
      </trkpt>
      <trkpt lat="49.33928" lon="0.87267">
        <ele>85</ele>
        <time>2024-10-13T08:40:09.000Z</time>
      </trkpt>
      <trkpt lat="49.33941" lon="0.87286">
        <ele>84.199996948242</ele>
        <time>2024-10-13T08:40:13.000Z</time>
      </trkpt>
      <trkpt lat="49.33971" lon="0.87351">
        <ele>82.800003051758</ele>
        <time>2024-10-13T08:40:28.000Z</time>
      </trkpt>
      <trkpt lat="49.34003" lon="0.87419">
        <ele>81.199996948242</ele>
        <time>2024-10-13T08:40:43.000Z</time>
      </trkpt>
      <trkpt lat="49.34009" lon="0.87448">
        <ele>81.199996948242</ele>
        <time>2024-10-13T08:40:48.000Z</time>
      </trkpt>
      <trkpt lat="49.34017" lon="0.87537">
        <ele>82.800003051758</ele>
        <time>2024-10-13T08:41:02.000Z</time>
      </trkpt>
      <trkpt lat="49.34016" lon="0.87545">
        <ele>82.800003051758</ele>
        <time>2024-10-13T08:41:03.000Z</time>
      </trkpt>
      <trkpt lat="49.3401" lon="0.87573">
        <ele>83.800003051758</ele>
        <time>2024-10-13T08:41:06.000Z</time>
      </trkpt>
      <trkpt lat="49.3401" lon="0.87597">
        <ele>84</ele>
        <time>2024-10-13T08:41:20.000Z</time>
      </trkpt>
      <trkpt lat="49.3401" lon="0.87595">
        <ele>84</ele>
        <time>2024-10-13T08:41:21.000Z</time>
      </trkpt>
      <trkpt lat="49.34011" lon="0.87592">
        <ele>84</ele>
        <time>2024-10-13T08:41:22.000Z</time>
      </trkpt>
      <trkpt lat="49.34012" lon="0.87572">
        <ele>83.400001525879</ele>
        <time>2024-10-13T08:41:26.000Z</time>
      </trkpt>
      <trkpt lat="49.3401" lon="0.87566">
        <ele>83.400001525879</ele>
        <time>2024-10-13T08:41:28.000Z</time>
      </trkpt>
      <trkpt lat="49.34009" lon="0.87557">
        <ele>83.599998474121</ele>
        <time>2024-10-13T08:41:30.000Z</time>
      </trkpt>
      <trkpt lat="49.34007" lon="0.87545">
        <ele>83.800003051758</ele>
        <time>2024-10-13T08:41:34.000Z</time>
      </trkpt>
      <trkpt lat="49.33992" lon="0.87464">
        <ele>83.599998474121</ele>
        <time>2024-10-13T08:41:53.000Z</time>
      </trkpt>
      <trkpt lat="49.3399" lon="0.87431">
        <ele>82.800003051758</ele>
        <time>2024-10-13T08:42:00.000Z</time>
      </trkpt>
      <trkpt lat="49.33962" lon="0.87359">
        <ele>83.400001525879</ele>
        <time>2024-10-13T08:42:20.000Z</time>
      </trkpt>
      <trkpt lat="49.33947" lon="0.87344">
        <ele>84.400001525879</ele>
        <time>2024-10-13T08:42:26.000Z</time>
      </trkpt>
      <trkpt lat="49.33945" lon="0.87342">
        <ele>84.599998474121</ele>
        <time>2024-10-13T08:42:27.000Z</time>
      </trkpt>
      <trkpt lat="49.33942" lon="0.8734">
        <ele>84.800003051758</ele>
        <time>2024-10-13T08:42:28.000Z</time>
      </trkpt>
      <trkpt lat="49.33939" lon="0.87338">
        <ele>84.800003051758</ele>
        <time>2024-10-13T08:42:29.000Z</time>
      </trkpt>
      <trkpt lat="49.33934" lon="0.87333">
        <ele>85</ele>
        <time>2024-10-13T08:42:31.000Z</time>
      </trkpt>
      <trkpt lat="49.33926" lon="0.87327">
        <ele>85.400001525879</ele>
        <time>2024-10-13T08:42:34.000Z</time>
      </trkpt>
      <trkpt lat="49.3391" lon="0.87322">
        <ele>86.400001525879</ele>
        <time>2024-10-13T08:42:39.000Z</time>
      </trkpt>
      <trkpt lat="49.33903" lon="0.8732">
        <ele>87</ele>
        <time>2024-10-13T08:42:41.000Z</time>
      </trkpt>
      <trkpt lat="49.33898" lon="0.87318">
        <ele>87.599998474121</ele>
        <time>2024-10-13T08:42:43.000Z</time>
      </trkpt>
      <trkpt lat="49.3387" lon="0.87313">
        <ele>90.800003051758</ele>
        <time>2024-10-13T08:42:52.000Z</time>
      </trkpt>
      <trkpt lat="49.33864" lon="0.87312">
        <ele>91.199996948242</ele>
        <time>2024-10-13T08:42:54.000Z</time>
      </trkpt>
      <trkpt lat="49.33859" lon="0.87311">
        <ele>92</ele>
        <time>2024-10-13T08:42:56.000Z</time>
      </trkpt>
      <trkpt lat="49.33856" lon="0.87311">
        <ele>92.400001525879</ele>
        <time>2024-10-13T08:42:57.000Z</time>
      </trkpt>
      <trkpt lat="49.33853" lon="0.8731">
        <ele>92.599998474121</ele>
        <time>2024-10-13T08:42:58.000Z</time>
      </trkpt>
      <trkpt lat="49.33849" lon="0.87309">
        <ele>93</ele>
        <time>2024-10-13T08:42:59.000Z</time>
      </trkpt>
      <trkpt lat="49.33846" lon="0.87309">
        <ele>93.400001525879</ele>
        <time>2024-10-13T08:43:00.000Z</time>
      </trkpt>
      <trkpt lat="49.33844" lon="0.87307">
        <ele>93.599998474121</ele>
        <time>2024-10-13T08:43:01.000Z</time>
      </trkpt>
      <trkpt lat="49.33841" lon="0.87305">
        <ele>93.599998474121</ele>
        <time>2024-10-13T08:43:02.000Z</time>
      </trkpt>
      <trkpt lat="49.33839" lon="0.87304">
        <ele>93.800003051758</ele>
        <time>2024-10-13T08:43:03.000Z</time>
      </trkpt>
      <trkpt lat="49.33837" lon="0.87303">
        <ele>93.800003051758</ele>
        <time>2024-10-13T08:43:04.000Z</time>
      </trkpt>
      <trkpt lat="49.33779" lon="0.87305">
        <ele>99.599998474121</ele>
        <time>2024-10-13T08:43:19.000Z</time>
      </trkpt>
      <trkpt lat="49.3375" lon="0.873">
        <ele>102.40000152588</ele>
        <time>2024-10-13T08:43:28.000Z</time>
      </trkpt>
      <trkpt lat="49.33748" lon="0.87299">
        <ele>102.59999847412</ele>
        <time>2024-10-13T08:43:29.000Z</time>
      </trkpt>
      <trkpt lat="49.33743" lon="0.873">
        <ele>103.80000305176</ele>
        <time>2024-10-13T08:43:31.000Z</time>
      </trkpt>
      <trkpt lat="49.33719" lon="0.87287">
        <ele>107.40000152588</ele>
        <time>2024-10-13T08:43:39.000Z</time>
      </trkpt>
      <trkpt lat="49.33666" lon="0.87269">
        <ele>118.40000152588</ele>
        <time>2024-10-13T08:43:59.000Z</time>
      </trkpt>
      <trkpt lat="49.33649" lon="0.87247">
        <ele>118</ele>
        <time>2024-10-13T08:44:06.000Z</time>
      </trkpt>
      <trkpt lat="49.33633" lon="0.8723">
        <ele>117.80000305176</ele>
        <time>2024-10-13T08:44:12.000Z</time>
      </trkpt>
      <trkpt lat="49.33609" lon="0.87219">
        <ele>119.80000305176</ele>
        <time>2024-10-13T08:44:19.000Z</time>
      </trkpt>
      <trkpt lat="49.33594" lon="0.87212">
        <ele>121.19999694824</ele>
        <time>2024-10-13T08:44:24.000Z</time>
      </trkpt>
      <trkpt lat="49.33583" lon="0.87209">
        <ele>123</ele>
        <time>2024-10-13T08:44:28.000Z</time>
      </trkpt>
      <trkpt lat="49.33577" lon="0.87207">
        <ele>123.59999847412</ele>
        <time>2024-10-13T08:44:30.000Z</time>
      </trkpt>
      <trkpt lat="49.33564" lon="0.87206">
        <ele>125.59999847412</ele>
        <time>2024-10-13T08:44:34.000Z</time>
      </trkpt>
      <trkpt lat="49.33562" lon="0.87205">
        <ele>126</ele>
        <time>2024-10-13T08:44:35.000Z</time>
      </trkpt>
      <trkpt lat="49.33559" lon="0.87205">
        <ele>126.40000152588</ele>
        <time>2024-10-13T08:44:36.000Z</time>
      </trkpt>
      <trkpt lat="49.3355" lon="0.87204">
        <ele>128</ele>
        <time>2024-10-13T08:44:39.000Z</time>
      </trkpt>
      <trkpt lat="49.33547" lon="0.87203">
        <ele>128.39999389648</ele>
        <time>2024-10-13T08:44:40.000Z</time>
      </trkpt>
      <trkpt lat="49.33525" lon="0.87208">
        <ele>132</ele>
        <time>2024-10-13T08:44:49.000Z</time>
      </trkpt>
      <trkpt lat="49.33498" lon="0.8722">
        <ele>134.39999389648</ele>
        <time>2024-10-13T08:44:57.000Z</time>
      </trkpt>
      <trkpt lat="49.33495" lon="0.87221">
        <ele>134.60000610352</ele>
        <time>2024-10-13T08:44:58.000Z</time>
      </trkpt>
      <trkpt lat="49.33492" lon="0.87222">
        <ele>134.80000305176</ele>
        <time>2024-10-13T08:44:59.000Z</time>
      </trkpt>
      <trkpt lat="49.33469" lon="0.87234">
        <ele>136</ele>
        <time>2024-10-13T08:45:05.000Z</time>
      </trkpt>
      <trkpt lat="49.33449" lon="0.87248">
        <ele>137.60000610352</ele>
        <time>2024-10-13T08:45:11.000Z</time>
      </trkpt>
      <trkpt lat="49.33435" lon="0.87257">
        <ele>137.80000305176</ele>
        <time>2024-10-13T08:45:15.000Z</time>
      </trkpt>
      <trkpt lat="49.33431" lon="0.8726">
        <ele>138</ele>
        <time>2024-10-13T08:45:16.000Z</time>
      </trkpt>
      <trkpt lat="49.33427" lon="0.87263">
        <ele>138</ele>
        <time>2024-10-13T08:45:17.000Z</time>
      </trkpt>
      <trkpt lat="49.33423" lon="0.87265">
        <ele>138.19999694824</ele>
        <time>2024-10-13T08:45:18.000Z</time>
      </trkpt>
      <trkpt lat="49.33416" lon="0.87269">
        <ele>138.19999694824</ele>
        <time>2024-10-13T08:45:21.000Z</time>
      </trkpt>
      <trkpt lat="49.33389" lon="0.87285">
        <ele>136.19999694824</ele>
        <time>2024-10-13T08:45:28.000Z</time>
      </trkpt>
      <trkpt lat="49.33386" lon="0.87287">
        <ele>136</ele>
        <time>2024-10-13T08:45:29.000Z</time>
      </trkpt>
      <trkpt lat="49.33382" lon="0.8729">
        <ele>136</ele>
        <time>2024-10-13T08:45:30.000Z</time>
      </trkpt>
      <trkpt lat="49.33378" lon="0.873">
        <ele>135.80000305176</ele>
        <time>2024-10-13T08:45:33.000Z</time>
      </trkpt>
      <trkpt lat="49.3338" lon="0.87302">
        <ele>135.80000305176</ele>
        <time>2024-10-13T08:45:34.000Z</time>
      </trkpt>
      <trkpt lat="49.33387" lon="0.87308">
        <ele>136.19999694824</ele>
        <time>2024-10-13T08:45:36.000Z</time>
      </trkpt>
      <trkpt lat="49.33387" lon="0.87308">
        <ele>136.19999694824</ele>
        <time>2024-10-13T08:45:37.000Z</time>
      </trkpt>
      <trkpt lat="49.33399" lon="0.87314">
        <ele>137</ele>
        <time>2024-10-13T08:45:41.000Z</time>
      </trkpt>
      <trkpt lat="49.33404" lon="0.87317">
        <ele>137.39999389648</ele>
        <time>2024-10-13T08:45:43.000Z</time>
      </trkpt>
      <trkpt lat="49.33411" lon="0.87317">
        <ele>137.80000305176</ele>
        <time>2024-10-13T08:45:45.000Z</time>
      </trkpt>
      <trkpt lat="49.33416" lon="0.87317">
        <ele>138.19999694824</ele>
        <time>2024-10-13T08:45:47.000Z</time>
      </trkpt>
      <trkpt lat="49.3342" lon="0.87316">
        <ele>138.19999694824</ele>
        <time>2024-10-13T08:45:48.000Z</time>
      </trkpt>
      <trkpt lat="49.33427" lon="0.87317">
        <ele>138.60000610352</ele>
        <time>2024-10-13T08:45:50.000Z</time>
      </trkpt>
      <trkpt lat="49.3343" lon="0.87318">
        <ele>138.60000610352</ele>
        <time>2024-10-13T08:45:51.000Z</time>
      </trkpt>
      <trkpt lat="49.3344" lon="0.87323">
        <ele>139</ele>
        <time>2024-10-13T08:45:54.000Z</time>
      </trkpt>
      <trkpt lat="49.33461" lon="0.87335">
        <ele>138.19999694824</ele>
        <time>2024-10-13T08:45:59.000Z</time>
      </trkpt>
      <trkpt lat="49.33488" lon="0.87346">
        <ele>137.19999694824</ele>
        <time>2024-10-13T08:46:07.000Z</time>
      </trkpt>
      <trkpt lat="49.33541" lon="0.87373">
        <ele>137.39999389648</ele>
        <time>2024-10-13T08:46:24.000Z</time>
      </trkpt>
      <trkpt lat="49.33589" lon="0.87415">
        <ele>136.60000610352</ele>
        <time>2024-10-13T08:46:37.000Z</time>
      </trkpt>
      <trkpt lat="49.33614" lon="0.87429">
        <ele>135.39999389648</ele>
        <time>2024-10-13T08:46:45.000Z</time>
      </trkpt>
      <trkpt lat="49.33638" lon="0.87442">
        <ele>133</ele>
        <time>2024-10-13T08:46:52.000Z</time>
      </trkpt>
      <trkpt lat="49.3368" lon="0.87499">
        <ele>126.80000305176</ele>
        <time>2024-10-13T08:47:07.000Z</time>
      </trkpt>
      <trkpt lat="49.33687" lon="0.87578">
        <ele>124.40000152588</ele>
        <time>2024-10-13T08:47:20.000Z</time>
      </trkpt>
      <trkpt lat="49.33681" lon="0.876">
        <ele>125</ele>
        <time>2024-10-13T08:47:24.000Z</time>
      </trkpt>
      <trkpt lat="49.33669" lon="0.87685">
        <ele>129.80000305176</ele>
        <time>2024-10-13T08:47:42.000Z</time>
      </trkpt>
      <trkpt lat="49.33666" lon="0.87709">
        <ele>131</ele>
        <time>2024-10-13T08:47:48.000Z</time>
      </trkpt>
      <trkpt lat="49.33662" lon="0.87737">
        <ele>133</ele>
        <time>2024-10-13T08:47:53.000Z</time>
      </trkpt>
      <trkpt lat="49.33662" lon="0.87813">
        <ele>132</ele>
        <time>2024-10-13T08:48:10.000Z</time>
      </trkpt>
      <trkpt lat="49.3368" lon="0.87859">
        <ele>130.80000305176</ele>
        <time>2024-10-13T08:48:20.000Z</time>
      </trkpt>
      <trkpt lat="49.33703" lon="0.87871">
        <ele>130</ele>
        <time>2024-10-13T08:48:24.000Z</time>
      </trkpt>
      <trkpt lat="49.33721" lon="0.87892">
        <ele>130.60000610352</ele>
        <time>2024-10-13T08:48:30.000Z</time>
      </trkpt>
      <trkpt lat="49.33728" lon="0.8791">
        <ele>130.60000610352</ele>
        <time>2024-10-13T08:48:33.000Z</time>
      </trkpt>
      <trkpt lat="49.33735" lon="0.87933">
        <ele>130.39999389648</ele>
        <time>2024-10-13T08:48:36.000Z</time>
      </trkpt>
      <trkpt lat="49.33731" lon="0.87955">
        <ele>130.60000610352</ele>
        <time>2024-10-13T08:48:38.000Z</time>
      </trkpt>
      <trkpt lat="49.33729" lon="0.88045">
        <ele>121</ele>
        <time>2024-10-13T08:48:47.000Z</time>
      </trkpt>
      <trkpt lat="49.33726" lon="0.88086">
        <ele>111</ele>
        <time>2024-10-13T08:48:51.000Z</time>
      </trkpt>
      <trkpt lat="49.33728" lon="0.88128">
        <ele>104.40000152588</ele>
        <time>2024-10-13T08:48:55.000Z</time>
      </trkpt>
      <trkpt lat="49.33727" lon="0.88151">
        <ele>103.19999694824</ele>
        <time>2024-10-13T08:48:57.000Z</time>
      </trkpt>
      <trkpt lat="49.33728" lon="0.88174">
        <ele>101.59999847412</ele>
        <time>2024-10-13T08:48:59.000Z</time>
      </trkpt>
      <trkpt lat="49.33747" lon="0.8822">
        <ele>98.599998474121</ele>
        <time>2024-10-13T08:49:04.000Z</time>
      </trkpt>
      <trkpt lat="49.33779" lon="0.88244">
        <ele>99.800003051758</ele>
        <time>2024-10-13T08:49:11.000Z</time>
      </trkpt>
      <trkpt lat="49.33792" lon="0.88254">
        <ele>100.59999847412</ele>
        <time>2024-10-13T08:49:14.000Z</time>
      </trkpt>
      <trkpt lat="49.33809" lon="0.88286">
        <ele>99.800003051758</ele>
        <time>2024-10-13T08:49:20.000Z</time>
      </trkpt>
      <trkpt lat="49.33816" lon="0.88298">
        <ele>99.400001525879</ele>
        <time>2024-10-13T08:49:22.000Z</time>
      </trkpt>
      <trkpt lat="49.33819" lon="0.88314">
        <ele>98.800003051758</ele>
        <time>2024-10-13T08:49:24.000Z</time>
      </trkpt>
      <trkpt lat="49.33818" lon="0.88334">
        <ele>98</ele>
        <time>2024-10-13T08:49:26.000Z</time>
      </trkpt>
      <trkpt lat="49.33815" lon="0.88355">
        <ele>97.199996948242</ele>
        <time>2024-10-13T08:49:28.000Z</time>
      </trkpt>
      <trkpt lat="49.33796" lon="0.88441">
        <ele>93.599998474121</ele>
        <time>2024-10-13T08:49:36.000Z</time>
      </trkpt>
      <trkpt lat="49.33793" lon="0.8845">
        <ele>93.199996948242</ele>
        <time>2024-10-13T08:49:37.000Z</time>
      </trkpt>
      <trkpt lat="49.33779" lon="0.88512">
        <ele>92</ele>
        <time>2024-10-13T08:49:44.000Z</time>
      </trkpt>
      <trkpt lat="49.33778" lon="0.88522">
        <ele>92.199996948242</ele>
        <time>2024-10-13T08:49:45.000Z</time>
      </trkpt>
      <trkpt lat="49.33778" lon="0.88539">
        <ele>92.800003051758</ele>
        <time>2024-10-13T08:49:47.000Z</time>
      </trkpt>
      <trkpt lat="49.33781" lon="0.88554">
        <ele>92.400001525879</ele>
        <time>2024-10-13T08:49:49.000Z</time>
      </trkpt>
      <trkpt lat="49.33796" lon="0.88577">
        <ele>91.599998474121</ele>
        <time>2024-10-13T08:49:52.000Z</time>
      </trkpt>
      <trkpt lat="49.33802" lon="0.88584">
        <ele>91.199996948242</ele>
        <time>2024-10-13T08:49:53.000Z</time>
      </trkpt>
      <trkpt lat="49.33803" lon="0.88592">
        <ele>91</ele>
        <time>2024-10-13T08:49:54.000Z</time>
      </trkpt>
      <trkpt lat="49.33818" lon="0.88609">
        <ele>88.599998474121</ele>
        <time>2024-10-13T08:49:57.000Z</time>
      </trkpt>
      <trkpt lat="49.33837" lon="0.8869">
        <ele>83.599998474121</ele>
        <time>2024-10-13T08:50:07.000Z</time>
      </trkpt>
      <trkpt lat="49.33842" lon="0.8872">
        <ele>82.599998474121</ele>
        <time>2024-10-13T08:50:11.000Z</time>
      </trkpt>
      <trkpt lat="49.33837" lon="0.88742">
        <ele>82.400001525879</ele>
        <time>2024-10-13T08:50:14.000Z</time>
      </trkpt>
      <trkpt lat="49.33829" lon="0.88772">
        <ele>81.199996948242</ele>
        <time>2024-10-13T08:50:18.000Z</time>
      </trkpt>
      <trkpt lat="49.33819" lon="0.88847">
        <ele>79.400001525879</ele>
        <time>2024-10-13T08:50:29.000Z</time>
      </trkpt>
      <trkpt lat="49.33817" lon="0.88861">
        <ele>79.400001525879</ele>
        <time>2024-10-13T08:50:31.000Z</time>
      </trkpt>
      <trkpt lat="49.33812" lon="0.88902">
        <ele>79</ele>
        <time>2024-10-13T08:50:36.000Z</time>
      </trkpt>
      <trkpt lat="49.33808" lon="0.88941">
        <ele>79.599998474121</ele>
        <time>2024-10-13T08:50:41.000Z</time>
      </trkpt>
      <trkpt lat="49.33806" lon="0.88966">
        <ele>79.599998474121</ele>
        <time>2024-10-13T08:50:44.000Z</time>
      </trkpt>
      <trkpt lat="49.338" lon="0.89003">
        <ele>79</ele>
        <time>2024-10-13T08:50:49.000Z</time>
      </trkpt>
      <trkpt lat="49.33804" lon="0.89095">
        <ele>80.199996948242</ele>
        <time>2024-10-13T08:51:03.000Z</time>
      </trkpt>
      <trkpt lat="49.33788" lon="0.89159">
        <ele>80.199996948242</ele>
        <time>2024-10-13T08:51:12.000Z</time>
      </trkpt>
      <trkpt lat="49.33788" lon="0.89171">
        <ele>79.800003051758</ele>
        <time>2024-10-13T08:51:14.000Z</time>
      </trkpt>
      <trkpt lat="49.33786" lon="0.892">
        <ele>79.199996948242</ele>
        <time>2024-10-13T08:51:19.000Z</time>
      </trkpt>
      <trkpt lat="49.33761" lon="0.89274">
        <ele>80</ele>
        <time>2024-10-13T08:51:34.000Z</time>
      </trkpt>
      <trkpt lat="49.33715" lon="0.89324">
        <ele>85.800003051758</ele>
        <time>2024-10-13T08:51:47.000Z</time>
      </trkpt>
      <trkpt lat="49.3367" lon="0.89372">
        <ele>89</ele>
        <time>2024-10-13T08:52:01.000Z</time>
      </trkpt>
      <trkpt lat="49.33655" lon="0.89395">
        <ele>90.199996948242</ele>
        <time>2024-10-13T08:52:07.000Z</time>
      </trkpt>
      <trkpt lat="49.33639" lon="0.89422">
        <ele>91.800003051758</ele>
        <time>2024-10-13T08:52:15.000Z</time>
      </trkpt>
      <trkpt lat="49.33632" lon="0.89436">
        <ele>92.599998474121</ele>
        <time>2024-10-13T08:52:20.000Z</time>
      </trkpt>
      <trkpt lat="49.33615" lon="0.89458">
        <ele>95.199996948242</ele>
        <time>2024-10-13T08:52:31.000Z</time>
      </trkpt>
      <trkpt lat="49.33616" lon="0.89475">
        <ele>95.599998474121</ele>
        <time>2024-10-13T08:52:40.000Z</time>
      </trkpt>
      <trkpt lat="49.33614" lon="0.89479">
        <ele>95.800003051758</ele>
        <time>2024-10-13T08:52:41.000Z</time>
      </trkpt>
      <trkpt lat="49.33614" lon="0.89479">
        <ele>95.800003051758</ele>
        <time>2024-10-13T08:52:42.000Z</time>
      </trkpt>
      <trkpt lat="49.33611" lon="0.89494">
        <ele>96.400001525879</ele>
        <time>2024-10-13T08:52:49.000Z</time>
      </trkpt>
      <trkpt lat="49.33604" lon="0.89507">
        <ele>97.199996948242</ele>
        <time>2024-10-13T08:52:55.000Z</time>
      </trkpt>
      <trkpt lat="49.33601" lon="0.89523">
        <ele>98.199996948242</ele>
        <time>2024-10-13T08:53:03.000Z</time>
      </trkpt>
      <trkpt lat="49.3359" lon="0.89542">
        <ele>99.800003051758</ele>
        <time>2024-10-13T08:53:12.000Z</time>
      </trkpt>
      <trkpt lat="49.33572" lon="0.89572">
        <ele>101.80000305176</ele>
        <time>2024-10-13T08:53:23.000Z</time>
      </trkpt>
      <trkpt lat="49.33558" lon="0.89608">
        <ele>104.19999694824</ele>
        <time>2024-10-13T08:53:32.000Z</time>
      </trkpt>
      <trkpt lat="49.33547" lon="0.89633">
        <ele>105.80000305176</ele>
        <time>2024-10-13T08:53:38.000Z</time>
      </trkpt>
      <trkpt lat="49.33529" lon="0.89681">
        <ele>108.80000305176</ele>
        <time>2024-10-13T08:53:52.000Z</time>
      </trkpt>
      <trkpt lat="49.33525" lon="0.89693">
        <ele>109.40000152588</ele>
        <time>2024-10-13T08:53:55.000Z</time>
      </trkpt>
      <trkpt lat="49.33523" lon="0.89698">
        <ele>109.80000305176</ele>
        <time>2024-10-13T08:53:56.000Z</time>
      </trkpt>
      <trkpt lat="49.3352" lon="0.89708">
        <ele>110.19999694824</ele>
        <time>2024-10-13T08:53:59.000Z</time>
      </trkpt>
      <trkpt lat="49.33514" lon="0.89721">
        <ele>110.59999847412</ele>
        <time>2024-10-13T08:54:02.000Z</time>
      </trkpt>
      <trkpt lat="49.33492" lon="0.898">
        <ele>110.19999694824</ele>
        <time>2024-10-13T08:54:16.000Z</time>
      </trkpt>
      <trkpt lat="49.33488" lon="0.89806">
        <ele>110.59999847412</ele>
        <time>2024-10-13T08:54:18.000Z</time>
      </trkpt>
      <trkpt lat="49.33437" lon="0.89842">
        <ele>115.40000152588</ele>
        <time>2024-10-13T08:54:37.000Z</time>
      </trkpt>
      <trkpt lat="49.33419" lon="0.8984">
        <ele>118</ele>
        <time>2024-10-13T08:54:46.000Z</time>
      </trkpt>
      <trkpt lat="49.33408" lon="0.89844">
        <ele>119.40000152588</ele>
        <time>2024-10-13T08:54:51.000Z</time>
      </trkpt>
      <trkpt lat="49.33399" lon="0.8985">
        <ele>120.40000152588</ele>
        <time>2024-10-13T08:54:54.000Z</time>
      </trkpt>
      <trkpt lat="49.33394" lon="0.89853">
        <ele>121</ele>
        <time>2024-10-13T08:54:56.000Z</time>
      </trkpt>
      <trkpt lat="49.33376" lon="0.89882">
        <ele>122</ele>
        <time>2024-10-13T08:55:06.000Z</time>
      </trkpt>
      <trkpt lat="49.33376" lon="0.89902">
        <ele>121.59999847412</ele>
        <time>2024-10-13T08:55:12.000Z</time>
      </trkpt>
      <trkpt lat="49.33363" lon="0.89941">
        <ele>122.40000152588</ele>
        <time>2024-10-13T08:55:22.000Z</time>
      </trkpt>
      <trkpt lat="49.3335" lon="0.89989">
        <ele>124</ele>
        <time>2024-10-13T08:55:34.000Z</time>
      </trkpt>
      <trkpt lat="49.3335" lon="0.89993">
        <ele>124</ele>
        <time>2024-10-13T08:55:35.000Z</time>
      </trkpt>
      <trkpt lat="49.33336" lon="0.90045">
        <ele>125.59999847412</ele>
        <time>2024-10-13T08:55:47.000Z</time>
      </trkpt>
      <trkpt lat="49.33317" lon="0.90127">
        <ele>127.19999694824</ele>
        <time>2024-10-13T08:56:06.000Z</time>
      </trkpt>
      <trkpt lat="49.33316" lon="0.90143">
        <ele>127.40000152588</ele>
        <time>2024-10-13T08:56:09.000Z</time>
      </trkpt>
      <trkpt lat="49.33314" lon="0.90155">
        <ele>127.19999694824</ele>
        <time>2024-10-13T08:56:12.000Z</time>
      </trkpt>
      <trkpt lat="49.33313" lon="0.90161">
        <ele>127.40000152588</ele>
        <time>2024-10-13T08:56:13.000Z</time>
      </trkpt>
      <trkpt lat="49.33312" lon="0.90169">
        <ele>127.19999694824</ele>
        <time>2024-10-13T08:56:14.000Z</time>
      </trkpt>
      <trkpt lat="49.33311" lon="0.90181">
        <ele>127</ele>
        <time>2024-10-13T08:56:16.000Z</time>
      </trkpt>
      <trkpt lat="49.3331" lon="0.90187">
        <ele>126.59999847412</ele>
        <time>2024-10-13T08:56:17.000Z</time>
      </trkpt>
      <trkpt lat="49.33308" lon="0.90193">
        <ele>126.80000305176</ele>
        <time>2024-10-13T08:56:18.000Z</time>
      </trkpt>
      <trkpt lat="49.33306" lon="0.90207">
        <ele>127.19999694824</ele>
        <time>2024-10-13T08:56:20.000Z</time>
      </trkpt>
      <trkpt lat="49.33304" lon="0.90233">
        <ele>127.80000305176</ele>
        <time>2024-10-13T08:56:24.000Z</time>
      </trkpt>
      <trkpt lat="49.33301" lon="0.90248">
        <ele>128</ele>
        <time>2024-10-13T08:56:26.000Z</time>
      </trkpt>
      <trkpt lat="49.33299" lon="0.90255">
        <ele>127.80000305176</ele>
        <time>2024-10-13T08:56:27.000Z</time>
      </trkpt>
      <trkpt lat="49.33299" lon="0.90267">
        <ele>127.59999847412</ele>
        <time>2024-10-13T08:56:29.000Z</time>
      </trkpt>
      <trkpt lat="49.33287" lon="0.90312">
        <ele>126.59999847412</ele>
        <time>2024-10-13T08:56:35.000Z</time>
      </trkpt>
      <trkpt lat="49.33286" lon="0.9032">
        <ele>126.19999694824</ele>
        <time>2024-10-13T08:56:36.000Z</time>
      </trkpt>
      <trkpt lat="49.33284" lon="0.90335">
        <ele>126</ele>
        <time>2024-10-13T08:56:38.000Z</time>
      </trkpt>
      <trkpt lat="49.33282" lon="0.90342">
        <ele>126.59999847412</ele>
        <time>2024-10-13T08:56:39.000Z</time>
      </trkpt>
      <trkpt lat="49.3327" lon="0.90429">
        <ele>130.19999694824</ele>
        <time>2024-10-13T08:56:52.000Z</time>
      </trkpt>
      <trkpt lat="49.33267" lon="0.90462">
        <ele>131.19999694824</ele>
        <time>2024-10-13T08:56:57.000Z</time>
      </trkpt>
      <trkpt lat="49.33262" lon="0.90492">
        <ele>131.39999389648</ele>
        <time>2024-10-13T08:57:02.000Z</time>
      </trkpt>
      <trkpt lat="49.33257" lon="0.90511">
        <ele>131.60000610352</ele>
        <time>2024-10-13T08:57:05.000Z</time>
      </trkpt>
      <trkpt lat="49.33255" lon="0.90537">
        <ele>132.19999694824</ele>
        <time>2024-10-13T08:57:09.000Z</time>
      </trkpt>
      <trkpt lat="49.33253" lon="0.90554">
        <ele>132.39999389648</ele>
        <time>2024-10-13T08:57:12.000Z</time>
      </trkpt>
      <trkpt lat="49.33243" lon="0.90585">
        <ele>133</ele>
        <time>2024-10-13T08:57:17.000Z</time>
      </trkpt>
      <trkpt lat="49.33237" lon="0.90608">
        <ele>133</ele>
        <time>2024-10-13T08:57:21.000Z</time>
      </trkpt>
      <trkpt lat="49.33226" lon="0.9065">
        <ele>132</ele>
        <time>2024-10-13T08:57:28.000Z</time>
      </trkpt>
      <trkpt lat="49.33216" lon="0.90705">
        <ele>130</ele>
        <time>2024-10-13T08:57:37.000Z</time>
      </trkpt>
      <trkpt lat="49.3321" lon="0.90738">
        <ele>128.60000610352</ele>
        <time>2024-10-13T08:57:42.000Z</time>
      </trkpt>
      <trkpt lat="49.33186" lon="0.90813">
        <ele>126.19999694824</ele>
        <time>2024-10-13T08:57:53.000Z</time>
      </trkpt>
      <trkpt lat="49.33182" lon="0.9085">
        <ele>125.80000305176</ele>
        <time>2024-10-13T08:58:02.000Z</time>
      </trkpt>
      <trkpt lat="49.3318" lon="0.90863">
        <ele>125.40000152588</ele>
        <time>2024-10-13T08:58:04.000Z</time>
      </trkpt>
      <trkpt lat="49.33173" lon="0.90949">
        <ele>120.19999694824</ele>
        <time>2024-10-13T08:58:20.000Z</time>
      </trkpt>
      <trkpt lat="49.33173" lon="0.90958">
        <ele>119.19999694824</ele>
        <time>2024-10-13T08:58:21.000Z</time>
      </trkpt>
      <trkpt lat="49.33176" lon="0.90968">
        <ele>118.59999847412</ele>
        <time>2024-10-13T08:58:26.000Z</time>
      </trkpt>
      <trkpt lat="49.33143" lon="0.90967">
        <ele>118.40000152588</ele>
        <time>2024-10-13T08:58:40.000Z</time>
      </trkpt>
      <trkpt lat="49.3312" lon="0.90973">
        <ele>116.80000305176</ele>
        <time>2024-10-13T08:59:04.000Z</time>
      </trkpt>
      <trkpt lat="49.33116" lon="0.90972">
        <ele>116.80000305176</ele>
        <time>2024-10-13T08:59:29.000Z</time>
      </trkpt>
      <trkpt lat="49.33114" lon="0.90971">
        <ele>117</ele>
        <time>2024-10-13T08:59:35.000Z</time>
      </trkpt>
      <trkpt lat="49.33097" lon="0.90972">
        <ele>116.80000305176</ele>
        <time>2024-10-13T08:59:39.000Z</time>
      </trkpt>
      <trkpt lat="49.33084" lon="0.90973">
        <ele>116.80000305176</ele>
        <time>2024-10-13T08:59:42.000Z</time>
      </trkpt>
      <trkpt lat="49.33051" lon="0.90981">
        <ele>116.19999694824</ele>
        <time>2024-10-13T08:59:52.000Z</time>
      </trkpt>
      <trkpt lat="49.33044" lon="0.90983">
        <ele>116.40000152588</ele>
        <time>2024-10-13T08:59:54.000Z</time>
      </trkpt>
      <trkpt lat="49.33027" lon="0.90988">
        <ele>117.59999847412</ele>
        <time>2024-10-13T09:00:00.000Z</time>
      </trkpt>
      <trkpt lat="49.33002" lon="0.90991">
        <ele>117.80000305176</ele>
        <time>2024-10-13T09:00:11.000Z</time>
      </trkpt>
      <trkpt lat="49.32994" lon="0.90989">
        <ele>118.40000152588</ele>
        <time>2024-10-13T09:00:14.000Z</time>
      </trkpt>
      <trkpt lat="49.32985" lon="0.90988">
        <ele>118.80000305176</ele>
        <time>2024-10-13T09:00:17.000Z</time>
      </trkpt>
      <trkpt lat="49.32978" lon="0.90988">
        <ele>119.40000152588</ele>
        <time>2024-10-13T09:00:20.000Z</time>
      </trkpt>
      <trkpt lat="49.32959" lon="0.9099">
        <ele>120.19999694824</ele>
        <time>2024-10-13T09:00:25.000Z</time>
      </trkpt>
      <trkpt lat="49.32951" lon="0.90993">
        <ele>120.59999847412</ele>
        <time>2024-10-13T09:00:27.000Z</time>
      </trkpt>
      <trkpt lat="49.32928" lon="0.90993">
        <ele>122.19999694824</ele>
        <time>2024-10-13T09:00:33.000Z</time>
      </trkpt>
      <trkpt lat="49.32924" lon="0.90993">
        <ele>122.59999847412</ele>
        <time>2024-10-13T09:00:34.000Z</time>
      </trkpt>
      <trkpt lat="49.32916" lon="0.90994">
        <ele>123.19999694824</ele>
        <time>2024-10-13T09:00:36.000Z</time>
      </trkpt>
      <trkpt lat="49.32887" lon="0.90995">
        <ele>127</ele>
        <time>2024-10-13T09:00:44.000Z</time>
      </trkpt>
      <trkpt lat="49.32869" lon="0.90999">
        <ele>129.19999694824</ele>
        <time>2024-10-13T09:00:49.000Z</time>
      </trkpt>
      <trkpt lat="49.3282" lon="0.90966">
        <ele>132</ele>
        <time>2024-10-13T09:01:03.000Z</time>
      </trkpt>
      <trkpt lat="49.3277" lon="0.90904">
        <ele>134.19999694824</ele>
        <time>2024-10-13T09:01:21.000Z</time>
      </trkpt>
      <trkpt lat="49.32754" lon="0.90864">
        <ele>134.60000610352</ele>
        <time>2024-10-13T09:01:29.000Z</time>
      </trkpt>
      <trkpt lat="49.32745" lon="0.90844">
        <ele>135</ele>
        <time>2024-10-13T09:01:33.000Z</time>
      </trkpt>
      <trkpt lat="49.32745" lon="0.9084">
        <ele>135</ele>
        <time>2024-10-13T09:01:34.000Z</time>
      </trkpt>
      <trkpt lat="49.32729" lon="0.90759">
        <ele>135.19999694824</ele>
        <time>2024-10-13T09:01:50.000Z</time>
      </trkpt>
      <trkpt lat="49.32723" lon="0.90734">
        <ele>135.60000610352</ele>
        <time>2024-10-13T09:01:55.000Z</time>
      </trkpt>
      <trkpt lat="49.32713" lon="0.90717">
        <ele>136.39999389648</ele>
        <time>2024-10-13T09:01:58.000Z</time>
      </trkpt>
      <trkpt lat="49.32688" lon="0.90663">
        <ele>138</ele>
        <time>2024-10-13T09:02:08.000Z</time>
      </trkpt>
      <trkpt lat="49.3266" lon="0.90585">
        <ele>140.19999694824</ele>
        <time>2024-10-13T09:02:20.000Z</time>
      </trkpt>
      <trkpt lat="49.32657" lon="0.90571">
        <ele>140.60000610352</ele>
        <time>2024-10-13T09:02:22.000Z</time>
      </trkpt>
      <trkpt lat="49.32657" lon="0.90555">
        <ele>140.39999389648</ele>
        <time>2024-10-13T09:02:24.000Z</time>
      </trkpt>
      <trkpt lat="49.32654" lon="0.9053">
        <ele>140.39999389648</ele>
        <time>2024-10-13T09:02:27.000Z</time>
      </trkpt>
      <trkpt lat="49.32652" lon="0.90524">
        <ele>140.39999389648</ele>
        <time>2024-10-13T09:02:28.000Z</time>
      </trkpt>
      <trkpt lat="49.3265" lon="0.9051">
        <ele>140.19999694824</ele>
        <time>2024-10-13T09:02:30.000Z</time>
      </trkpt>
      <trkpt lat="49.32643" lon="0.90469">
        <ele>140.39999389648</ele>
        <time>2024-10-13T09:02:37.000Z</time>
      </trkpt>
      <trkpt lat="49.32627" lon="0.90413">
        <ele>141.60000610352</ele>
        <time>2024-10-13T09:02:52.000Z</time>
      </trkpt>
      <trkpt lat="49.32609" lon="0.90333">
        <ele>143</ele>
        <time>2024-10-13T09:03:06.000Z</time>
      </trkpt>
      <trkpt lat="49.32585" lon="0.90255">
        <ele>145.39999389648</ele>
        <time>2024-10-13T09:03:18.000Z</time>
      </trkpt>
      <trkpt lat="49.32578" lon="0.90241">
        <ele>146</ele>
        <time>2024-10-13T09:03:20.000Z</time>
      </trkpt>
      <trkpt lat="49.32564" lon="0.90178">
        <ele>147</ele>
        <time>2024-10-13T09:03:29.000Z</time>
      </trkpt>
      <trkpt lat="49.32544" lon="0.90098">
        <ele>147.19999694824</ele>
        <time>2024-10-13T09:03:40.000Z</time>
      </trkpt>
      <trkpt lat="49.32529" lon="0.90039">
        <ele>147</ele>
        <time>2024-10-13T09:03:48.000Z</time>
      </trkpt>
      <trkpt lat="49.32516" lon="0.90015">
        <ele>145.60000610352</ele>
        <time>2024-10-13T09:03:51.000Z</time>
      </trkpt>
      <trkpt lat="49.32489" lon="0.89942">
        <ele>145</ele>
        <time>2024-10-13T09:04:01.000Z</time>
      </trkpt>
      <trkpt lat="49.32487" lon="0.89925">
        <ele>144.39999389648</ele>
        <time>2024-10-13T09:04:03.000Z</time>
      </trkpt>
      <trkpt lat="49.32474" lon="0.89875">
        <ele>143</ele>
        <time>2024-10-13T09:04:09.000Z</time>
      </trkpt>
      <trkpt lat="49.32468" lon="0.89859">
        <ele>142.60000610352</ele>
        <time>2024-10-13T09:04:11.000Z</time>
      </trkpt>
      <trkpt lat="49.3247" lon="0.89771">
        <ele>139.39999389648</ele>
        <time>2024-10-13T09:04:24.000Z</time>
      </trkpt>
      <trkpt lat="49.3248" lon="0.89707">
        <ele>140</ele>
        <time>2024-10-13T09:04:34.000Z</time>
      </trkpt>
      <trkpt lat="49.32479" lon="0.8962">
        <ele>140.80000305176</ele>
        <time>2024-10-13T09:04:51.000Z</time>
      </trkpt>
      <trkpt lat="49.32477" lon="0.89604">
        <ele>140.39999389648</ele>
        <time>2024-10-13T09:04:55.000Z</time>
      </trkpt>
      <trkpt lat="49.3248" lon="0.89518">
        <ele>142</ele>
        <time>2024-10-13T09:05:08.000Z</time>
      </trkpt>
      <trkpt lat="49.32489" lon="0.89484">
        <ele>142.80000305176</ele>
        <time>2024-10-13T09:05:13.000Z</time>
      </trkpt>
      <trkpt lat="49.32496" lon="0.89434">
        <ele>141.19999694824</ele>
        <time>2024-10-13T09:05:19.000Z</time>
      </trkpt>
      <trkpt lat="49.32496" lon="0.89409">
        <ele>140.39999389648</ele>
        <time>2024-10-13T09:05:22.000Z</time>
      </trkpt>
      <trkpt lat="49.32497" lon="0.89325">
        <ele>135.39999389648</ele>
        <time>2024-10-13T09:05:35.000Z</time>
      </trkpt>
      <trkpt lat="49.32497" lon="0.89237">
        <ele>135</ele>
        <time>2024-10-13T09:05:50.000Z</time>
      </trkpt>
      <trkpt lat="49.32512" lon="0.89189">
        <ele>137.39999389648</ele>
        <time>2024-10-13T09:05:58.000Z</time>
      </trkpt>
      <trkpt lat="49.32503" lon="0.89175">
        <ele>136.19999694824</ele>
        <time>2024-10-13T09:06:01.000Z</time>
      </trkpt>
      <trkpt lat="49.32472" lon="0.89107">
        <ele>131.80000305176</ele>
        <time>2024-10-13T09:06:19.000Z</time>
      </trkpt>
      <trkpt lat="49.32456" lon="0.89088">
        <ele>131</ele>
        <time>2024-10-13T09:06:24.000Z</time>
      </trkpt>
      <trkpt lat="49.32438" lon="0.89063">
        <ele>132.19999694824</ele>
        <time>2024-10-13T09:06:30.000Z</time>
      </trkpt>
      <trkpt lat="49.32429" lon="0.89058">
        <ele>132.60000610352</ele>
        <time>2024-10-13T09:06:32.000Z</time>
      </trkpt>
      <trkpt lat="49.3242" lon="0.89054">
        <ele>132.80000305176</ele>
        <time>2024-10-13T09:06:34.000Z</time>
      </trkpt>
      <trkpt lat="49.32397" lon="0.89039">
        <ele>133.39999389648</ele>
        <time>2024-10-13T09:06:39.000Z</time>
      </trkpt>
      <trkpt lat="49.32344" lon="0.89004">
        <ele>128.60000610352</ele>
        <time>2024-10-13T09:06:50.000Z</time>
      </trkpt>
      <trkpt lat="49.32322" lon="0.88982">
        <ele>126</ele>
        <time>2024-10-13T09:06:56.000Z</time>
      </trkpt>
      <trkpt lat="49.32282" lon="0.88921">
        <ele>121.80000305176</ele>
        <time>2024-10-13T09:07:08.000Z</time>
      </trkpt>
      <trkpt lat="49.32278" lon="0.88904">
        <ele>121.19999694824</ele>
        <time>2024-10-13T09:07:11.000Z</time>
      </trkpt>
      <trkpt lat="49.32267" lon="0.88889">
        <ele>121.19999694824</ele>
        <time>2024-10-13T09:07:14.000Z</time>
      </trkpt>
      <trkpt lat="49.32265" lon="0.88874">
        <ele>121.19999694824</ele>
        <time>2024-10-13T09:07:15.000Z</time>
      </trkpt>
      <trkpt lat="49.32268" lon="0.88825">
        <ele>128</ele>
        <time>2024-10-13T09:07:22.000Z</time>
      </trkpt>
      <trkpt lat="49.32267" lon="0.88787">
        <ele>131</ele>
        <time>2024-10-13T09:07:28.000Z</time>
      </trkpt>
      <trkpt lat="49.32267" lon="0.88764">
        <ele>131.19999694824</ele>
        <time>2024-10-13T09:07:31.000Z</time>
      </trkpt>
      <trkpt lat="49.32254" lon="0.88725">
        <ele>130.39999389648</ele>
        <time>2024-10-13T09:07:39.000Z</time>
      </trkpt>
      <trkpt lat="49.32244" lon="0.88708">
        <ele>130.19999694824</ele>
        <time>2024-10-13T09:07:44.000Z</time>
      </trkpt>
      <trkpt lat="49.32232" lon="0.88624">
        <ele>132.39999389648</ele>
        <time>2024-10-13T09:07:57.000Z</time>
      </trkpt>
      <trkpt lat="49.32225" lon="0.88598">
        <ele>133.60000610352</ele>
        <time>2024-10-13T09:08:02.000Z</time>
      </trkpt>
      <trkpt lat="49.32219" lon="0.88585">
        <ele>134</ele>
        <time>2024-10-13T09:08:03.000Z</time>
      </trkpt>
      <trkpt lat="49.32211" lon="0.88537">
        <ele>133.60000610352</ele>
        <time>2024-10-13T09:08:11.000Z</time>
      </trkpt>
      <trkpt lat="49.3221" lon="0.88509">
        <ele>132.39999389648</ele>
        <time>2024-10-13T09:08:15.000Z</time>
      </trkpt>
      <trkpt lat="49.32208" lon="0.88492">
        <ele>131.60000610352</ele>
        <time>2024-10-13T09:08:18.000Z</time>
      </trkpt>
      <trkpt lat="49.32205" lon="0.88477">
        <ele>131</ele>
        <time>2024-10-13T09:08:21.000Z</time>
      </trkpt>
      <trkpt lat="49.32197" lon="0.88452">
        <ele>129.60000610352</ele>
        <time>2024-10-13T09:08:25.000Z</time>
      </trkpt>
      <trkpt lat="49.32187" lon="0.88371">
        <ele>129.80000305176</ele>
        <time>2024-10-13T09:08:37.000Z</time>
      </trkpt>
      <trkpt lat="49.32174" lon="0.88344">
        <ele>129.39999389648</ele>
        <time>2024-10-13T09:08:45.000Z</time>
      </trkpt>
      <trkpt lat="49.32156" lon="0.88336">
        <ele>129.19999694824</ele>
        <time>2024-10-13T09:08:51.000Z</time>
      </trkpt>
      <trkpt lat="49.32122" lon="0.88321">
        <ele>128</ele>
        <time>2024-10-13T09:09:00.000Z</time>
      </trkpt>
      <trkpt lat="49.32083" lon="0.88307">
        <ele>124.59999847412</ele>
        <time>2024-10-13T09:09:10.000Z</time>
      </trkpt>
      <trkpt lat="49.32078" lon="0.88306">
        <ele>124.19999694824</ele>
        <time>2024-10-13T09:09:11.000Z</time>
      </trkpt>
      <trkpt lat="49.32058" lon="0.883">
        <ele>122.19999694824</ele>
        <time>2024-10-13T09:09:14.000Z</time>
      </trkpt>
      <trkpt lat="49.32024" lon="0.88301">
        <ele>118.59999847412</ele>
        <time>2024-10-13T09:09:18.000Z</time>
      </trkpt>
      <trkpt lat="49.32004" lon="0.88297">
        <ele>115</ele>
        <time>2024-10-13T09:09:21.000Z</time>
      </trkpt>
      <trkpt lat="49.31987" lon="0.88292">
        <ele>111.40000152588</ele>
        <time>2024-10-13T09:09:22.000Z</time>
      </trkpt>
      <trkpt lat="49.31946" lon="0.8827">
        <ele>108</ele>
        <time>2024-10-13T09:09:29.000Z</time>
      </trkpt>
      <trkpt lat="49.31934" lon="0.88265">
        <ele>107.80000305176</ele>
        <time>2024-10-13T09:09:31.000Z</time>
      </trkpt>
      <trkpt lat="49.31924" lon="0.88264">
        <ele>107.40000152588</ele>
        <time>2024-10-13T09:09:33.000Z</time>
      </trkpt>
      <trkpt lat="49.31916" lon="0.88271">
        <ele>107.19999694824</ele>
        <time>2024-10-13T09:09:35.000Z</time>
      </trkpt>
      <trkpt lat="49.31899" lon="0.88295">
        <ele>107.19999694824</ele>
        <time>2024-10-13T09:09:39.000Z</time>
      </trkpt>
      <trkpt lat="49.31889" lon="0.88302">
        <ele>107.19999694824</ele>
        <time>2024-10-13T09:09:41.000Z</time>
      </trkpt>
      <trkpt lat="49.31841" lon="0.88301">
        <ele>107.59999847412</ele>
        <time>2024-10-13T09:09:49.000Z</time>
      </trkpt>
      <trkpt lat="49.31814" lon="0.88294">
        <ele>108</ele>
        <time>2024-10-13T09:09:54.000Z</time>
      </trkpt>
      <trkpt lat="49.31793" lon="0.88287">
        <ele>108</ele>
        <time>2024-10-13T09:09:58.000Z</time>
      </trkpt>
      <trkpt lat="49.31781" lon="0.88285">
        <ele>108</ele>
        <time>2024-10-13T09:10:00.000Z</time>
      </trkpt>
      <trkpt lat="49.31726" lon="0.88261">
        <ele>109.40000152588</ele>
        <time>2024-10-13T09:10:10.000Z</time>
      </trkpt>
      <trkpt lat="49.31711" lon="0.88248">
        <ele>110.40000152588</ele>
        <time>2024-10-13T09:10:13.000Z</time>
      </trkpt>
      <trkpt lat="49.31707" lon="0.88244">
        <ele>110.80000305176</ele>
        <time>2024-10-13T09:10:14.000Z</time>
      </trkpt>
      <trkpt lat="49.31703" lon="0.88239">
        <ele>111</ele>
        <time>2024-10-13T09:10:15.000Z</time>
      </trkpt>
      <trkpt lat="49.31695" lon="0.88229">
        <ele>111.40000152588</ele>
        <time>2024-10-13T09:10:17.000Z</time>
      </trkpt>
      <trkpt lat="49.31683" lon="0.88214">
        <ele>111.59999847412</ele>
        <time>2024-10-13T09:10:20.000Z</time>
      </trkpt>
      <trkpt lat="49.31679" lon="0.88209">
        <ele>111.59999847412</ele>
        <time>2024-10-13T09:10:21.000Z</time>
      </trkpt>
      <trkpt lat="49.31676" lon="0.88205">
        <ele>111.40000152588</ele>
        <time>2024-10-13T09:10:22.000Z</time>
      </trkpt>
      <trkpt lat="49.31667" lon="0.88195">
        <ele>111.40000152588</ele>
        <time>2024-10-13T09:10:24.000Z</time>
      </trkpt>
      <trkpt lat="49.31664" lon="0.8819">
        <ele>111.40000152588</ele>
        <time>2024-10-13T09:10:25.000Z</time>
      </trkpt>
      <trkpt lat="49.31649" lon="0.88169">
        <ele>110.59999847412</ele>
        <time>2024-10-13T09:10:29.000Z</time>
      </trkpt>
      <trkpt lat="49.31635" lon="0.88149">
        <ele>110</ele>
        <time>2024-10-13T09:10:33.000Z</time>
      </trkpt>
      <trkpt lat="49.31619" lon="0.88128">
        <ele>109.19999694824</ele>
        <time>2024-10-13T09:10:38.000Z</time>
      </trkpt>
      <trkpt lat="49.31587" lon="0.88061">
        <ele>110.40000152588</ele>
        <time>2024-10-13T09:10:49.000Z</time>
      </trkpt>
      <trkpt lat="49.3156" lon="0.87986">
        <ele>113.59999847412</ele>
        <time>2024-10-13T09:10:59.000Z</time>
      </trkpt>
      <trkpt lat="49.31551" lon="0.87965">
        <ele>115</ele>
        <time>2024-10-13T09:11:02.000Z</time>
      </trkpt>
      <trkpt lat="49.3151" lon="0.87898">
        <ele>117.19999694824</ele>
        <time>2024-10-13T09:11:11.000Z</time>
      </trkpt>
      <trkpt lat="49.3148" lon="0.87829">
        <ele>118.59999847412</ele>
        <time>2024-10-13T09:11:22.000Z</time>
      </trkpt>
      <trkpt lat="49.31478" lon="0.87816">
        <ele>118.59999847412</ele>
        <time>2024-10-13T09:11:24.000Z</time>
      </trkpt>
      <trkpt lat="49.31468" lon="0.87731">
        <ele>121</ele>
        <time>2024-10-13T09:11:36.000Z</time>
      </trkpt>
      <trkpt lat="49.31467" lon="0.87725">
        <ele>120.80000305176</ele>
        <time>2024-10-13T09:11:37.000Z</time>
      </trkpt>
      <trkpt lat="49.31424" lon="0.8767">
        <ele>118.80000305176</ele>
        <time>2024-10-13T09:11:46.000Z</time>
      </trkpt>
      <trkpt lat="49.31406" lon="0.87652">
        <ele>118.19999694824</ele>
        <time>2024-10-13T09:11:50.000Z</time>
      </trkpt>
      <trkpt lat="49.31396" lon="0.87645">
        <ele>118.80000305176</ele>
        <time>2024-10-13T09:11:52.000Z</time>
      </trkpt>
      <trkpt lat="49.31369" lon="0.8764">
        <ele>120</ele>
        <time>2024-10-13T09:11:57.000Z</time>
      </trkpt>
      <trkpt lat="49.31364" lon="0.87641">
        <ele>120.40000152588</ele>
        <time>2024-10-13T09:11:58.000Z</time>
      </trkpt>
      <trkpt lat="49.31349" lon="0.87644">
        <ele>121.19999694824</ele>
        <time>2024-10-13T09:12:02.000Z</time>
      </trkpt>
      <trkpt lat="49.31337" lon="0.87656">
        <ele>122</ele>
        <time>2024-10-13T09:12:08.000Z</time>
      </trkpt>
      <trkpt lat="49.31332" lon="0.87656">
        <ele>122</ele>
        <time>2024-10-13T09:12:12.000Z</time>
      </trkpt>
      <trkpt lat="49.31321" lon="0.87681">
        <ele>121.80000305176</ele>
        <time>2024-10-13T09:12:25.000Z</time>
      </trkpt>
      <trkpt lat="49.31304" lon="0.87736">
        <ele>122</ele>
        <time>2024-10-13T09:12:37.000Z</time>
      </trkpt>
      <trkpt lat="49.31298" lon="0.87736">
        <ele>122</ele>
        <time>2024-10-13T09:12:39.000Z</time>
      </trkpt>
      <trkpt lat="49.31287" lon="0.87727">
        <ele>121.80000305176</ele>
        <time>2024-10-13T09:12:42.000Z</time>
      </trkpt>
      <trkpt lat="49.31271" lon="0.87709">
        <ele>121.19999694824</ele>
        <time>2024-10-13T09:12:46.000Z</time>
      </trkpt>
      <trkpt lat="49.31246" lon="0.8767">
        <ele>121.19999694824</ele>
        <time>2024-10-13T09:12:53.000Z</time>
      </trkpt>
      <trkpt lat="49.31205" lon="0.87607">
        <ele>123.80000305176</ele>
        <time>2024-10-13T09:13:04.000Z</time>
      </trkpt>
      <trkpt lat="49.31169" lon="0.87544">
        <ele>123.40000152588</ele>
        <time>2024-10-13T09:13:14.000Z</time>
      </trkpt>
      <trkpt lat="49.31135" lon="0.87473">
        <ele>121.40000152588</ele>
        <time>2024-10-13T09:13:24.000Z</time>
      </trkpt>
      <trkpt lat="49.31118" lon="0.87432">
        <ele>122</ele>
        <time>2024-10-13T09:13:30.000Z</time>
      </trkpt>
      <trkpt lat="49.31111" lon="0.87427">
        <ele>122</ele>
        <time>2024-10-13T09:13:32.000Z</time>
      </trkpt>
      <trkpt lat="49.31104" lon="0.87432">
        <ele>121.80000305176</ele>
        <time>2024-10-13T09:13:34.000Z</time>
      </trkpt>
      <trkpt lat="49.31083" lon="0.87473">
        <ele>120.59999847412</ele>
        <time>2024-10-13T09:13:40.000Z</time>
      </trkpt>
      <trkpt lat="49.31058" lon="0.87551">
        <ele>119</ele>
        <time>2024-10-13T09:13:50.000Z</time>
      </trkpt>
      <trkpt lat="49.31044" lon="0.87618">
        <ele>118.80000305176</ele>
        <time>2024-10-13T09:13:58.000Z</time>
      </trkpt>
      <trkpt lat="49.31032" lon="0.877">
        <ele>118.40000152588</ele>
        <time>2024-10-13T09:14:10.000Z</time>
      </trkpt>
      <trkpt lat="49.3101" lon="0.87709">
        <ele>117.59999847412</ele>
        <time>2024-10-13T09:14:16.000Z</time>
      </trkpt>
      <trkpt lat="49.31001" lon="0.87708">
        <ele>117.19999694824</ele>
        <time>2024-10-13T09:14:18.000Z</time>
      </trkpt>
      <trkpt lat="49.30944" lon="0.87682">
        <ele>115.19999694824</ele>
        <time>2024-10-13T09:14:31.000Z</time>
      </trkpt>
      <trkpt lat="49.30906" lon="0.87677">
        <ele>115</ele>
        <time>2024-10-13T09:14:37.000Z</time>
      </trkpt>
      <trkpt lat="49.30899" lon="0.87676">
        <ele>115</ele>
        <time>2024-10-13T09:14:38.000Z</time>
      </trkpt>
      <trkpt lat="49.30867" lon="0.8767">
        <ele>114.40000152588</ele>
        <time>2024-10-13T09:14:43.000Z</time>
      </trkpt>
      <trkpt lat="49.30856" lon="0.87653">
        <ele>114</ele>
        <time>2024-10-13T09:14:46.000Z</time>
      </trkpt>
      <trkpt lat="49.30855" lon="0.87634">
        <ele>114</ele>
        <time>2024-10-13T09:14:48.000Z</time>
      </trkpt>
      <trkpt lat="49.30862" lon="0.87552">
        <ele>115</ele>
        <time>2024-10-13T09:14:57.000Z</time>
      </trkpt>
      <trkpt lat="49.30868" lon="0.87517">
        <ele>115.19999694824</ele>
        <time>2024-10-13T09:15:01.000Z</time>
      </trkpt>
      <trkpt lat="49.30879" lon="0.87434">
        <ele>115.19999694824</ele>
        <time>2024-10-13T09:15:10.000Z</time>
      </trkpt>
      <trkpt lat="49.30879" lon="0.87417">
        <ele>115</ele>
        <time>2024-10-13T09:15:12.000Z</time>
      </trkpt>
      <trkpt lat="49.30875" lon="0.87403">
        <ele>114.80000305176</ele>
        <time>2024-10-13T09:15:14.000Z</time>
      </trkpt>
      <trkpt lat="49.30867" lon="0.87396">
        <ele>115</ele>
        <time>2024-10-13T09:15:16.000Z</time>
      </trkpt>
      <trkpt lat="49.30842" lon="0.8739">
        <ele>116.19999694824</ele>
        <time>2024-10-13T09:15:22.000Z</time>
      </trkpt>
      <trkpt lat="49.30809" lon="0.8738">
        <ele>117</ele>
        <time>2024-10-13T09:15:30.000Z</time>
      </trkpt>
      <trkpt lat="49.30802" lon="0.87373">
        <ele>117</ele>
        <time>2024-10-13T09:15:32.000Z</time>
      </trkpt>
      <trkpt lat="49.30796" lon="0.87363">
        <ele>117.19999694824</ele>
        <time>2024-10-13T09:15:34.000Z</time>
      </trkpt>
      <trkpt lat="49.30786" lon="0.87334">
        <ele>118</ele>
        <time>2024-10-13T09:15:39.000Z</time>
      </trkpt>
      <trkpt lat="49.30781" lon="0.87316">
        <ele>118.40000152588</ele>
        <time>2024-10-13T09:15:42.000Z</time>
      </trkpt>
      <trkpt lat="49.3077" lon="0.87282">
        <ele>120.19999694824</ele>
        <time>2024-10-13T09:15:48.000Z</time>
      </trkpt>
      <trkpt lat="49.30763" lon="0.87274">
        <ele>120.40000152588</ele>
        <time>2024-10-13T09:15:50.000Z</time>
      </trkpt>
      <trkpt lat="49.3075" lon="0.87271">
        <ele>120.80000305176</ele>
        <time>2024-10-13T09:15:53.000Z</time>
      </trkpt>
      <trkpt lat="49.307" lon="0.87282">
        <ele>121</ele>
        <time>2024-10-13T09:16:06.000Z</time>
      </trkpt>
      <trkpt lat="49.30692" lon="0.87281">
        <ele>121</ele>
        <time>2024-10-13T09:16:08.000Z</time>
      </trkpt>
      <trkpt lat="49.30638" lon="0.87261">
        <ele>122.80000305176</ele>
        <time>2024-10-13T09:16:21.000Z</time>
      </trkpt>
      <trkpt lat="49.30627" lon="0.87257">
        <ele>123</ele>
        <time>2024-10-13T09:16:25.000Z</time>
      </trkpt>
      <trkpt lat="49.30625" lon="0.87237">
        <ele>123</ele>
        <time>2024-10-13T09:16:29.000Z</time>
      </trkpt>
      <trkpt lat="49.30615" lon="0.87156">
        <ele>122</ele>
        <time>2024-10-13T09:16:41.000Z</time>
      </trkpt>
      <trkpt lat="49.3061" lon="0.87145">
        <ele>122.19999694824</ele>
        <time>2024-10-13T09:16:43.000Z</time>
      </trkpt>
      <trkpt lat="49.30601" lon="0.87141">
        <ele>122</ele>
        <time>2024-10-13T09:16:45.000Z</time>
      </trkpt>
      <trkpt lat="49.30592" lon="0.87142">
        <ele>122</ele>
        <time>2024-10-13T09:16:47.000Z</time>
      </trkpt>
      <trkpt lat="49.30574" lon="0.8715">
        <ele>122</ele>
        <time>2024-10-13T09:16:51.000Z</time>
      </trkpt>
      <trkpt lat="49.30565" lon="0.87156">
        <ele>122</ele>
        <time>2024-10-13T09:16:53.000Z</time>
      </trkpt>
      <trkpt lat="49.30555" lon="0.87157">
        <ele>122</ele>
        <time>2024-10-13T09:16:55.000Z</time>
      </trkpt>
      <trkpt lat="49.30547" lon="0.87158">
        <ele>122.19999694824</ele>
        <time>2024-10-13T09:16:57.000Z</time>
      </trkpt>
      <trkpt lat="49.30543" lon="0.87158">
        <ele>122.19999694824</ele>
        <time>2024-10-13T09:16:58.000Z</time>
      </trkpt>
      <trkpt lat="49.30532" lon="0.87156">
        <ele>122.59999847412</ele>
        <time>2024-10-13T09:17:02.000Z</time>
      </trkpt>
      <trkpt lat="49.30523" lon="0.87155">
        <ele>122.80000305176</ele>
        <time>2024-10-13T09:17:04.000Z</time>
      </trkpt>
      <trkpt lat="49.30513" lon="0.87155">
        <ele>123.40000152588</ele>
        <time>2024-10-13T09:17:06.000Z</time>
      </trkpt>
      <trkpt lat="49.30508" lon="0.87156">
        <ele>123.80000305176</ele>
        <time>2024-10-13T09:17:07.000Z</time>
      </trkpt>
      <trkpt lat="49.30473" lon="0.87157">
        <ele>124.40000152588</ele>
        <time>2024-10-13T09:17:13.000Z</time>
      </trkpt>
      <trkpt lat="49.30448" lon="0.87155">
        <ele>124</ele>
        <time>2024-10-13T09:17:17.000Z</time>
      </trkpt>
      <trkpt lat="49.30442" lon="0.87154">
        <ele>123.80000305176</ele>
        <time>2024-10-13T09:17:18.000Z</time>
      </trkpt>
      <trkpt lat="49.30436" lon="0.87153">
        <ele>123.59999847412</ele>
        <time>2024-10-13T09:17:19.000Z</time>
      </trkpt>
      <trkpt lat="49.3038" lon="0.87146">
        <ele>123.19999694824</ele>
        <time>2024-10-13T09:17:28.000Z</time>
      </trkpt>
      <trkpt lat="49.30323" lon="0.87152">
        <ele>124</ele>
        <time>2024-10-13T09:17:37.000Z</time>
      </trkpt>
      <trkpt lat="49.30266" lon="0.8715">
        <ele>124.80000305176</ele>
        <time>2024-10-13T09:17:46.000Z</time>
      </trkpt>
      <trkpt lat="49.30209" lon="0.87159">
        <ele>124.19999694824</ele>
        <time>2024-10-13T09:17:55.000Z</time>
      </trkpt>
      <trkpt lat="49.3018" lon="0.87166">
        <ele>125.40000152588</ele>
        <time>2024-10-13T09:18:00.000Z</time>
      </trkpt>
      <trkpt lat="49.30174" lon="0.87167">
        <ele>125.59999847412</ele>
        <time>2024-10-13T09:18:01.000Z</time>
      </trkpt>
      <trkpt lat="49.30158" lon="0.8717">
        <ele>126</ele>
        <time>2024-10-13T09:18:04.000Z</time>
      </trkpt>
      <trkpt lat="49.30147" lon="0.87171">
        <ele>126</ele>
        <time>2024-10-13T09:18:06.000Z</time>
      </trkpt>
      <trkpt lat="49.30136" lon="0.87171">
        <ele>126</ele>
        <time>2024-10-13T09:18:08.000Z</time>
      </trkpt>
      <trkpt lat="49.30089" lon="0.87174">
        <ele>127.80000305176</ele>
        <time>2024-10-13T09:18:17.000Z</time>
      </trkpt>
      <trkpt lat="49.3005" lon="0.87178">
        <ele>128</ele>
        <time>2024-10-13T09:18:25.000Z</time>
      </trkpt>
      <trkpt lat="49.30038" lon="0.87187">
        <ele>128.39999389648</ele>
        <time>2024-10-13T09:18:28.000Z</time>
      </trkpt>
      <trkpt lat="49.30024" lon="0.87189">
        <ele>128.60000610352</ele>
        <time>2024-10-13T09:18:31.000Z</time>
      </trkpt>
      <trkpt lat="49.30008" lon="0.87198">
        <ele>129</ele>
        <time>2024-10-13T09:18:35.000Z</time>
      </trkpt>
      <trkpt lat="49.30002" lon="0.87206">
        <ele>129.39999389648</ele>
        <time>2024-10-13T09:18:37.000Z</time>
      </trkpt>
      <trkpt lat="49.29971" lon="0.87281">
        <ele>129.80000305176</ele>
        <time>2024-10-13T09:18:49.000Z</time>
      </trkpt>
      <trkpt lat="49.29968" lon="0.87307">
        <ele>130</ele>
        <time>2024-10-13T09:18:54.000Z</time>
      </trkpt>
      <trkpt lat="49.29973" lon="0.87326">
        <ele>130.19999694824</ele>
        <time>2024-10-13T09:18:57.000Z</time>
      </trkpt>
      <trkpt lat="49.29975" lon="0.87339">
        <ele>130.60000610352</ele>
        <time>2024-10-13T09:18:59.000Z</time>
      </trkpt>
      <trkpt lat="49.29978" lon="0.87353">
        <ele>131</ele>
        <time>2024-10-13T09:19:01.000Z</time>
      </trkpt>
      <trkpt lat="49.29979" lon="0.87373">
        <ele>131</ele>
        <time>2024-10-13T09:19:04.000Z</time>
      </trkpt>
      <trkpt lat="49.2998" lon="0.87411">
        <ele>132</ele>
        <time>2024-10-13T09:19:11.000Z</time>
      </trkpt>
      <trkpt lat="49.29983" lon="0.87423">
        <ele>132</ele>
        <time>2024-10-13T09:19:13.000Z</time>
      </trkpt>
      <trkpt lat="49.29978" lon="0.87434">
        <ele>132</ele>
        <time>2024-10-13T09:19:15.000Z</time>
      </trkpt>
      <trkpt lat="49.29944" lon="0.87465">
        <ele>131.80000305176</ele>
        <time>2024-10-13T09:19:24.000Z</time>
      </trkpt>
      <trkpt lat="49.29928" lon="0.87467">
        <ele>132</ele>
        <time>2024-10-13T09:19:33.000Z</time>
      </trkpt>
      <trkpt lat="49.29958" lon="0.87542">
        <ele>131.80000305176</ele>
        <time>2024-10-13T09:19:46.000Z</time>
      </trkpt>
      <trkpt lat="49.29963" lon="0.87556">
        <ele>132</ele>
        <time>2024-10-13T09:19:48.000Z</time>
      </trkpt>
      <trkpt lat="49.2998" lon="0.87613">
        <ele>129</ele>
        <time>2024-10-13T09:19:55.000Z</time>
      </trkpt>
      <trkpt lat="49.29978" lon="0.8763">
        <ele>128.39999389648</ele>
        <time>2024-10-13T09:20:02.000Z</time>
      </trkpt>
      <trkpt lat="49.29976" lon="0.87631">
        <ele>128.60000610352</ele>
        <time>2024-10-13T09:20:03.000Z</time>
      </trkpt>
      <trkpt lat="49.29946" lon="0.87612">
        <ele>133.19999694824</ele>
        <time>2024-10-13T09:20:13.000Z</time>
      </trkpt>
      <trkpt lat="49.29933" lon="0.87643">
        <ele>132.80000305176</ele>
        <time>2024-10-13T09:20:19.000Z</time>
      </trkpt>
      <trkpt lat="49.29925" lon="0.87667">
        <ele>132.19999694824</ele>
        <time>2024-10-13T09:20:22.000Z</time>
      </trkpt>
      <trkpt lat="49.2992" lon="0.87692">
        <ele>130.80000305176</ele>
        <time>2024-10-13T09:20:25.000Z</time>
      </trkpt>
      <trkpt lat="49.29917" lon="0.87738">
        <ele>128.60000610352</ele>
        <time>2024-10-13T09:20:31.000Z</time>
      </trkpt>
      <trkpt lat="49.29908" lon="0.87745">
        <ele>129.19999694824</ele>
        <time>2024-10-13T09:20:34.000Z</time>
      </trkpt>
      <trkpt lat="49.29887" lon="0.87738">
        <ele>130.60000610352</ele>
        <time>2024-10-13T09:20:40.000Z</time>
      </trkpt>
      <trkpt lat="49.29878" lon="0.87738">
        <ele>131.19999694824</ele>
        <time>2024-10-13T09:20:42.000Z</time>
      </trkpt>
      <trkpt lat="49.29867" lon="0.87737">
        <ele>132</ele>
        <time>2024-10-13T09:20:44.000Z</time>
      </trkpt>
      <trkpt lat="49.29859" lon="0.8773">
        <ele>132.80000305176</ele>
        <time>2024-10-13T09:20:46.000Z</time>
      </trkpt>
      <trkpt lat="49.29854" lon="0.87718">
        <ele>133.60000610352</ele>
        <time>2024-10-13T09:20:48.000Z</time>
      </trkpt>
      <trkpt lat="49.29851" lon="0.87711">
        <ele>133.80000305176</ele>
        <time>2024-10-13T09:20:49.000Z</time>
      </trkpt>
      <trkpt lat="49.29849" lon="0.87705">
        <ele>134</ele>
        <time>2024-10-13T09:20:50.000Z</time>
      </trkpt>
      <trkpt lat="49.29846" lon="0.877">
        <ele>133.80000305176</ele>
        <time>2024-10-13T09:20:51.000Z</time>
      </trkpt>
      <trkpt lat="49.29835" lon="0.87697">
        <ele>133.80000305176</ele>
        <time>2024-10-13T09:20:55.000Z</time>
      </trkpt>
      <trkpt lat="49.29833" lon="0.87701">
        <ele>133.80000305176</ele>
        <time>2024-10-13T09:20:56.000Z</time>
      </trkpt>
      <trkpt lat="49.29843" lon="0.87736">
        <ele>132.80000305176</ele>
        <time>2024-10-13T09:21:02.000Z</time>
      </trkpt>
      <trkpt lat="49.29844" lon="0.87743">
        <ele>132.19999694824</ele>
        <time>2024-10-13T09:21:03.000Z</time>
      </trkpt>
      <trkpt lat="49.29845" lon="0.8775">
        <ele>131.80000305176</ele>
        <time>2024-10-13T09:21:04.000Z</time>
      </trkpt>
      <trkpt lat="49.29845" lon="0.87758">
        <ele>131.80000305176</ele>
        <time>2024-10-13T09:21:05.000Z</time>
      </trkpt>
      <trkpt lat="49.29845" lon="0.87764">
        <ele>131.60000610352</ele>
        <time>2024-10-13T09:21:06.000Z</time>
      </trkpt>
      <trkpt lat="49.29861" lon="0.87808">
        <ele>129.80000305176</ele>
        <time>2024-10-13T09:21:15.000Z</time>
      </trkpt>
      <trkpt lat="49.29866" lon="0.87823">
        <ele>129.60000610352</ele>
        <time>2024-10-13T09:21:19.000Z</time>
      </trkpt>
      <trkpt lat="49.29868" lon="0.8782">
        <ele>129.60000610352</ele>
        <time>2024-10-13T09:21:24.000Z</time>
      </trkpt>
      <trkpt lat="49.29868" lon="0.87821">
        <ele>129.60000610352</ele>
        <time>2024-10-13T09:21:28.000Z</time>
      </trkpt>
      <trkpt lat="49.29868" lon="0.87821">
        <ele>129.60000610352</ele>
        <time>2024-10-13T09:21:42.000Z</time>
      </trkpt>
      <trkpt lat="49.29868" lon="0.87821">
        <ele>129.60000610352</ele>
        <time>2024-10-13T09:21:48.000Z</time>
      </trkpt>
      <trkpt lat="49.29868" lon="0.87821">
        <ele>129.60000610352</ele>
        <time>2024-10-13T09:21:53.000Z</time>
      </trkpt>
      <trkpt lat="49.29868" lon="0.87821">
        <ele>129.60000610352</ele>
        <time>2024-10-13T09:21:58.000Z</time>
      </trkpt>
      <trkpt lat="49.29868" lon="0.87821">
        <ele>129.60000610352</ele>
        <time>2024-10-13T09:22:02.000Z</time>
      </trkpt>
      <trkpt lat="49.29868" lon="0.87821">
        <ele>129.60000610352</ele>
        <time>2024-10-13T09:22:09.000Z</time>
      </trkpt>
      <trkpt lat="49.29868" lon="0.87821">
        <ele>129.60000610352</ele>
        <time>2024-10-13T09:22:13.000Z</time>
      </trkpt>
    </trkseg>
  </trk>
</gpx>